[[{"header":{"parameterUnit":"m.s-1","parameterCategory":1,"la1":31.0,"la2":29.5877,"lo1":-88.7671,"lo2":-86.6584,"dy":0.0162,"dx":0.0185,"nx":115,"ny":88,"refTime":"2024-08-16T12:00:00:Z","depth":0,"parameterNumber":2,"parameterNumberName":"U-component_of_WINDS"},"data":[0.0,0.0,0.0,0.0,0.0,0.0,0.0,0.0,0.0,0.0,0.0,0.0,0.0,0.0,0.0,0.0,0.0,0.0,0.0,0.0,0.0,0.0,0.0,0.0,0.0,0.0,0.0,0.0,0.0,0.0,0.0,0.0,0.0,0.0,0.0,0.0,0.0,0.0,0.0,0.0,0.0,0.0,0.0,0.0,0.0,0.0,0.0,0.0,0.0,0.0,0.0,0.0,0.0,0.0,0.0,0.0,0.0,0.0,0.0,0.0,0.0,0.0,0.0,0.0,0.0,0.0,0.0,0.0,0.0,0.0,0.0,0.0,0.0,0.0,0.0,0.0,0.0,0.0,0.0,0.0,0.0,0.0,0.0,0.0,0.0,0.0,0.0,0.0,0.0,0.0,0.0,0.0,0.0,0.0,0.0,0.0,0.0,0.0,0.0,0.0,0.0,0.0,0.0,0.0,0.0,0.0,0.0,0.0,0.0,0.0,0.0,0.0,0.0,0.0,0.0,0.0,0.0,0.0,0.0,0.0,0.0,0.0,0.0,0.0,0.0,0.0,0.0,0.0,0.0,0.0,0.0,0.0,0.0,0.0,0.0,0.0,0.0,0.0,0.0,0.0,0.0,0.0,0.0,0.0,0.0,0.0,0.0,0.0,0.0,0.0,0.0,0.0,0.0,0.0,0.0,0.0,0.0,0.0,0.0,0.0,0.0,0.0,0.0,0.0,0.0,0.0,0.0,0.0,0.0,0.0,0.0,0.0,0.0,0.0,0.0,0.0,0.0,0.0,0.0,0.0,0.0,0.0,0.0,0.0,0.0,0.0,0.0,0.0,0.0,0.0,0.0,0.0,0.0,0.0,0.0,0.0,0.0,0.0,0.0,0.0,0.0,0.0,0.0,0.0,0.0,0.0,0.0,0.0,0.0,0.0,0.0,0.0,0.0,0.0,0.0,0.0,0.0,0.0,0.0,0.0,0.0,0.0,0.0,0.0,0.0,0.0,0.0,0.0,0.0,0.0,0.0,0.0,0.0,0.0,0.0,0.0,0.0,0.0,0.0,0.0,0.0,0.0,0.0,0.0,0.0,0.0,0.0,0.0,0.0,0.0,0.0,0.0,0.0,0.0,0.0,0.0,0.0,0.0,0.0,0.0,0.0,0.0,0.0,0.0,0.0,0.0,0.0,0.0,0.0,0.0,0.0,0.0,0.0,0.0,0.0,0.0,0.0,0.0,0.0,0.0,0.0,0.0,0.0,0.0,0.0,0.0,0.0,0.0,0.0,0.0,0.0,0.0,0.0,0.0,0.0,0.0,0.0,0.0,0.0,0.0,0.0,0.0,0.0,0.0,0.0,0.0,0.0,0.0,0.0,0.0,0.0,0.0,0.0,0.0,0.0,0.0,0.0,0.0,0.0,0.0,0.0,0.0,0.0,0.0,0.0,0.0,0.0,0.0,0.0,0.0,0.0,0.0,0.0,0.0,0.0,0.0,0.0,0.0,0.0,0.0,0.0,0.0,0.0,0.0,0.0,0.0,0.0,0.0,0.0,0.0,0.0,0.0,0.0,0.0,0.0,0.0,0.0,0.0,0.0,0.0,0.0,0.0,0.0,0.0,0.0,0.0,0.0,0.0,0.0,0.0,0.0,0.0,0.0,0.0,0.0,0.0,0.0,0.0,0.0,0.0,0.0,0.0,0.0,0.0,0.0,0.0,0.0,0.0,0.0,0.0,0.0,0.0,0.0,0.0,0.0,0.0,0.0,0.0,0.0,0.0,0.0,0.0,0.0,0.0,0.0,0.0,0.0,0.0,0.0,0.0,0.0,0.0,0.0,0.0,0.0,0.0,0.0,0.0,0.0,0.0,0.0,0.0,0.0,0.0,0.0,0.0,0.0,0.0,0.0,0.0,0.0,0.0,0.0,0.0,0.0,0.0,0.0,0.0,0.0,0.0,0.0,0.0,0.0,0.0,0.0,0.0,0.0,0.0,0.0,0.0,0.0,0.0,0.0,0.0,0.0,0.0,0.0,0.0,0.0,0.0,0.0,0.0,0.0,0.0,0.0,0.0,0.0,0.0,0.0,0.0,0.0,0.0,0.0,0.0,0.0,0.0,0.0,0.0,0.0,0.0,0.0,0.0,0.0,0.0,0.0,0.0,0.0,0.0,0.0,0.0,0.0,0.0,0.0,0.0,0.0,0.0,0.0,0.0,0.0,0.0,0.0,0.0,0.0,0.0,0.0,0.0,0.0,0.0,0.0,0.0,0.0,0.0,0.0,0.0,0.0,0.0,0.0,0.0,0.0,0.0,0.0,0.0,0.0,0.0,0.0,0.0,0.0,0.0,0.0,0.0,0.0,0.0,0.0,0.0,0.0,0.0,0.0,0.0,0.0,0.0,0.0,0.0,0.0,0.0,0.0,0.0,0.0,0.0,0.0,0.0,0.0,0.0,0.0,0.0,0.0,0.0,0.0,0.0,0.0,0.0,0.0,0.0,0.0,0.0,0.0,0.0,0.0,0.0,0.0,0.0,0.0,0.0,0.0,0.0,0.0,0.0,0.0,0.0,0.0,0.0,0.0,0.0,0.0,0.0,0.0,0.0,0.0,0.0,0.0,0.0,0.0,0.0,0.0,0.0,0.0,0.0,0.0,0.0,0.0,0.0,0.0,0.0,0.0,0.0,0.0,0.0,0.0,0.0,0.0,0.0,0.0,0.0,0.0,0.0,0.0,0.0,0.0,0.0,0.0,0.0,0.0,0.0,0.0,0.0,0.0,0.0,0.0,0.0,0.0,0.0,0.0,0.0,0.0,0.0,0.0,0.0,0.0,0.0,0.0,0.0,0.0,0.0,0.0,0.0,0.0,0.0,0.0,0.0,0.0,0.0,0.0,0.0,0.0,0.0,0.0,0.0,0.0,0.0,0.0,0.0,0.0,0.0,0.0,0.0,0.0,0.0,0.0,0.0,0.0,0.0,0.0,0.0,0.0,0.0,0.0,0.0,0.0,0.0,0.0,0.0,0.0,0.0,0.0,0.0,0.0,0.0,0.0,0.0,0.0,0.0,0.0,0.0,0.0,0.0,0.0,0.0,0.0,0.0,0.0,0.0,0.0,0.0,0.0,0.0,0.0,0.0,0.0,0.0,0.0,0.0,0.0,0.0,0.0,0.0,0.0,0.0,0.0,0.0,0.0,0.0,0.0,0.0,0.0,0.0,0.0,0.0,0.0,0.0,0.0,0.0,0.0,0.0,0.0,0.0,0.0,0.0,0.0,0.0,0.0,0.0,0.0,0.0,0.0,0.0,0.0,0.0,0.0,0.0,0.0,0.0,0.0,0.0,0.0,0.0,0.0,0.0,0.0,0.0,0.0,0.0,0.0,0.0,0.0,0.0,0.0,0.0,0.0,0.0,0.0,0.0,0.0,0.0,0.0,0.0,0.0,0.0,0.0,0.0,0.0,0.0,0.0,0.0,0.0,0.0,0.0,0.0,0.0,0.0,0.0,0.0,0.0,0.0,0.0,0.0,0.0,0.0,0.0,0.0,0.0,0.0,0.0,0.0,0.0,0.0,0.0,0.0,0.0,0.0,0.0,0.0,0.0,0.0,0.0,0.0,0.0,0.0,0.0,0.0,0.0,0.0,0.0,0.0,0.0,0.0,0.0,0.0,0.0,0.0,0.0,0.0,0.0,0.0,0.0,0.0,0.0,0.0,0.0,0.0,0.0,0.0,0.0,0.0,0.0,0.0,0.0,0.0,0.0,0.0,0.0,0.0,0.0,0.0,0.0,0.0,0.0,0.0,0.0,0.0,0.0,0.0,0.0,0.0,0.0,0.0,0.0,0.0,0.0,0.0,0.0,0.0,0.0,0.0,0.0,0.0,0.0,0.0,0.0,0.0,0.0,0.0,0.0,0.0,0.0,0.0,0.0,0.0,0.0,0.0,0.0,0.0,0.0,0.0,0.0,0.0,0.0,0.0,0.0,0.0,0.0,0.0,0.0,0.0,0.0,0.0,0.0,0.0,0.0,0.0,0.0,0.0,0.0,0.0,0.0,0.0,0.0,0.0,0.0,0.0,0.0,0.0,0.0,0.0,0.0,0.0,0.0,0.0,0.0,0.0,0.0,0.0,0.0,0.0,0.0,0.0,0.0,0.0,0.0,0.0,0.0,0.0,0.0,0.0,0.0,0.0,0.0,0.0,0.0,0.0,0.0,0.0,0.0,0.0,0.0,0.0,0.0,0.0,0.0,0.0,0.0,0.0,0.0,0.0,0.0,0.0,0.0,0.0,-2.5288,0.0,0.0,0.0,0.0,0.0,0.0,0.0,0.0,0.0,0.0,0.0,0.0,0.0,0.0,0.0,0.0,0.0,0.0,0.0,0.0,0.0,0.0,0.0,0.0,0.0,0.0,0.0,0.0,0.0,0.0,0.0,0.0,0.0,0.0,0.0,0.0,0.0,0.0,0.0,0.0,0.0,0.0,0.0,0.0,0.0,0.0,0.0,0.0,0.0,0.0,0.0,0.0,0.0,0.0,0.0,0.0,0.0,0.0,0.0,0.0,0.0,0.0,0.0,0.0,0.0,0.0,0.0,0.0,0.0,0.0,0.0,0.0,0.0,0.0,0.0,0.0,0.0,0.0,0.0,0.0,0.0,0.0,0.0,0.0,0.0,0.0,0.0,0.0,0.0,0.0,0.0,0.0,0.0,0.0,0.0,0.0,0.0,0.0,0.0,0.0,0.0,0.0,0.0,0.0,0.0,0.0,0.0,0.0,0.0,0.0,-2.9849,-2.971,-2.948,-2.8366,-2.6228,0.0,0.0,0.0,0.0,0.0,0.0,0.0,0.0,0.0,0.0,0.0,0.0,0.0,0.0,0.0,0.0,0.0,0.0,0.0,0.0,0.0,0.0,0.0,0.0,0.0,0.0,0.0,0.0,0.0,0.0,0.0,0.0,0.0,0.0,0.0,0.0,0.0,0.0,0.0,0.0,0.0,0.0,0.0,0.0,0.0,0.0,0.0,0.0,0.0,0.0,0.0,0.0,0.0,0.0,0.0,0.0,0.0,0.0,0.0,0.0,0.0,0.0,0.0,0.0,0.0,0.0,0.0,0.0,0.0,0.0,0.0,0.0,0.0,0.0,0.0,0.0,0.0,0.0,0.0,0.0,0.0,0.0,0.0,0.0,0.0,0.0,0.0,0.0,0.0,0.0,0.0,0.0,0.0,0.0,0.0,0.0,0.0,0.0,0.0,0.0,0.0,0.0,0.0,0.0,0.0,0.0,0.0,0.0,0.0,0.0,0.0,0.0,-3.0494,-2.9309,-2.701,0.0,0.0,0.0,0.0,0.0,0.0,0.0,0.0,0.0,0.0,0.0,0.0,0.0,0.0,0.0,0.0,0.0,0.0,0.0,0.0,0.0,0.0,0.0,0.0,0.0,0.0,0.0,0.0,0.0,0.0,0.0,0.0,0.0,0.0,0.0,0.0,0.0,0.0,0.0,0.0,0.0,0.0,0.0,0.0,0.0,0.0,0.0,0.0,0.0,0.0,0.0,0.0,0.0,0.0,0.0,0.0,0.0,0.0,0.0,0.0,0.0,0.0,0.0,0.0,0.0,0.0,0.0,0.0,0.0,0.0,0.0,0.0,0.0,0.0,0.0,0.0,0.0,0.0,0.0,0.0,0.0,0.0,0.0,0.0,0.0,0.0,0.0,0.0,0.0,0.0,0.0,0.0,0.0,0.0,0.0,0.0,0.0,0.0,0.0,0.0,0.0,0.0,0.0,0.0,0.0,0.0,0.0,0.0,0.0,0.0,-3.0979,-3.0401,-3.1909,0.0,-2.7943,0.0,0.0,0.0,0.0,0.0,0.0,0.0,0.0,0.0,0.0,0.0,0.0,0.0,0.0,0.0,0.0,0.0,0.0,0.0,0.0,0.0,0.0,0.0,0.0,0.0,0.0,0.0,0.0,0.0,0.0,0.0,0.0,0.0,0.0,0.0,0.0,0.0,0.0,0.0,0.0,0.0,0.0,0.0,0.0,0.0,0.0,0.0,0.0,0.0,0.0,0.0,0.0,0.0,0.0,0.0,0.0,0.0,0.0,0.0,0.0,0.0,0.0,0.0,0.0,0.0,0.0,0.0,0.0,0.0,0.0,0.0,0.0,0.0,0.0,0.0,0.0,0.0,0.0,0.0,0.0,0.0,0.0,0.0,0.0,0.0,0.0,0.0,0.0,0.0,0.0,0.0,0.0,0.0,0.0,0.0,0.0,0.0,0.0,0.0,0.0,0.0,0.0,0.0,0.0,0.0,0.0,0.0,0.0,0.0,0.0,-3.2789,-3.2714,-3.1621,-3.0132,0.0,0.0,0.0,0.0,0.0,0.0,0.0,0.0,0.0,0.0,0.0,0.0,0.0,0.0,0.0,0.0,0.0,0.0,0.0,0.0,0.0,0.0,0.0,0.0,0.0,0.0,0.0,0.0,0.0,0.0,0.0,0.0,0.0,0.0,0.0,0.0,0.0,0.0,0.0,0.0,0.0,0.0,0.0,0.0,0.0,0.0,0.0,0.0,0.0,0.0,0.0,0.0,0.0,0.0,0.0,0.0,0.0,0.0,0.0,0.0,0.0,0.0,0.0,0.0,0.0,0.0,0.0,0.0,0.0,0.0,0.0,0.0,0.0,0.0,0.0,0.0,0.0,0.0,0.0,0.0,0.0,0.0,0.0,0.0,0.0,0.0,0.0,0.0,0.0,0.0,0.0,0.0,0.0,0.0,0.0,0.0,0.0,0.0,0.0,0.0,0.0,0.0,0.0,0.0,0.0,0.0,0.0,0.0,0.0,0.0,-3.3168,-3.4124,-3.4374,-3.1978,-2.9909,-2.8373,0.0,0.0,0.0,0.0,0.0,0.0,0.0,0.0,0.0,0.0,0.0,0.0,0.0,0.0,0.0,0.0,0.0,0.0,0.0,0.0,0.0,0.0,0.0,0.0,0.0,0.0,0.0,0.0,0.0,0.0,0.0,0.0,0.0,0.0,0.0,0.0,0.0,0.0,0.0,0.0,0.0,0.0,0.0,0.0,0.0,0.0,0.0,0.0,0.0,0.0,0.0,0.0,0.0,0.0,0.0,0.0,0.0,0.0,0.0,0.0,0.0,0.0,0.0,0.0,0.0,0.0,0.0,0.0,0.0,0.0,0.0,0.0,0.0,0.0,0.0,0.0,0.0,0.0,0.0,0.0,0.0,0.0,0.0,0.0,0.0,0.0,0.0,0.0,0.0,0.0,0.0,0.0,0.0,0.0,0.0,0.0,0.0,0.0,0.0,0.0,0.0,0.0,0.0,0.0,0.0,0.0,0.0,0.0,-3.348,-3.4067,-3.4439,-3.4793,-3.3716,-3.1592,0.0,0.0,0.0,0.0,0.0,0.0,0.0,0.0,0.0,0.0,0.0,0.0,0.0,0.0,0.0,0.0,0.0,0.0,0.0,0.0,0.0,0.0,0.0,0.0,0.0,0.0,0.0,0.0,0.0,0.0,0.0,0.0,0.0,0.0,0.0,0.0,0.0,0.0,0.0,0.0,0.0,0.0,0.0,0.0,0.0,0.0,0.0,0.0,0.0,0.0,0.0,0.0,0.0,0.0,0.0,0.0,0.0,0.0,0.0,0.0,0.0,0.0,0.0,0.0,0.0,0.0,0.0,0.0,0.0,0.0,0.0,0.0,0.0,0.0,0.0,0.0,0.0,0.0,0.0,0.0,0.0,0.0,0.0,0.0,0.0,0.0,0.0,0.0,0.0,0.0,0.0,0.0,0.0,0.0,0.0,0.0,0.0,0.0,0.0,0.0,0.0,0.0,0.0,0.0,0.0,0.0,0.0,0.0,0.0,-3.2241,-3.4104,-3.5713,-3.6876,-3.3652,-3.1385,0.0,0.0,0.0,0.0,0.0,0.0,0.0,0.0,0.0,0.0,0.0,0.0,0.0,0.0,0.0,0.0,0.0,0.0,0.0,0.0,0.0,0.0,0.0,0.0,0.0,0.0,0.0,0.0,0.0,0.0,0.0,0.0,0.0,0.0,0.0,0.0,0.0,0.0,0.0,0.0,0.0,0.0,0.0,0.0,0.0,0.0,0.0,0.0,0.0,0.0,0.0,0.0,0.0,0.0,0.0,0.0,0.0,0.0,0.0,0.0,0.0,0.0,0.0,0.0,0.0,0.0,0.0,0.0,0.0,0.0,0.0,0.0,0.0,0.0,0.0,0.0,0.0,0.0,0.0,0.0,0.0,0.0,0.0,0.0,0.0,0.0,0.0,0.0,0.0,0.0,0.0,0.0,0.0,0.0,0.0,0.0,0.0,0.0,0.0,0.0,0.0,0.0,0.0,0.0,0.0,0.0,0.0,0.0,0.0,-3.3658,0.0,-3.6791,0.0,-3.4147,-3.1632,0.0,0.0,0.0,0.0,0.0,0.0,0.0,0.0,0.0,0.0,0.0,0.0,0.0,0.0,0.0,0.0,0.0,0.0,0.0,0.0,0.0,0.0,0.0,0.0,0.0,0.0,0.0,0.0,0.0,0.0,0.0,0.0,0.0,0.0,0.0,0.0,0.0,0.0,0.0,0.0,0.0,0.0,0.0,0.0,0.0,0.0,0.0,0.0,0.0,0.0,0.0,0.0,0.0,0.0,0.0,0.0,0.0,0.0,0.0,0.0,0.0,0.0,0.0,0.0,0.0,0.0,0.0,0.0,0.0,0.0,0.0,0.0,0.0,0.0,0.0,0.0,0.0,0.0,0.0,0.0,0.0,0.0,0.0,0.0,0.0,0.0,0.0,0.0,0.0,0.0,0.0,0.0,0.0,0.0,0.0,0.0,0.0,0.0,0.0,0.0,0.0,0.0,0.0,0.0,0.0,0.0,0.0,0.0,-3.2606,-3.8086,-3.8123,-3.7642,-3.6628,-3.543,-3.2438,0.0,0.0,0.0,0.0,0.0,0.0,0.0,0.0,0.0,0.0,0.0,0.0,0.0,0.0,0.0,0.0,0.0,0.0,0.0,0.0,0.0,0.0,0.0,0.0,0.0,0.0,0.0,0.0,0.0,0.0,0.0,0.0,0.0,0.0,0.0,0.0,0.0,0.0,0.0,0.0,0.0,0.0,0.0,0.0,0.0,0.0,0.0,0.0,0.0,0.0,0.0,0.0,0.0,0.0,0.0,0.0,0.0,0.0,0.0,0.0,0.0,0.0,0.0,0.0,0.0,0.0,0.0,0.0,0.0,0.0,0.0,0.0,0.0,0.0,0.0,0.0,0.0,0.0,0.0,0.0,0.0,0.0,0.0,0.0,0.0,0.0,0.0,0.0,0.0,0.0,0.0,0.0,0.0,0.0,0.0,0.0,0.0,0.0,0.0,0.0,0.0,0.0,0.0,0.0,0.0,0.0,0.0,0.0,0.0,-3.7527,-3.8114,-3.8997,-4.0089,-3.6014,-3.3418,0.0,0.0,0.0,0.0,0.0,0.0,0.0,0.0,0.0,0.0,0.0,0.0,0.0,0.0,0.0,0.0,0.0,0.0,0.0,0.0,0.0,0.0,0.0,0.0,0.0,0.0,0.0,0.0,0.0,0.0,0.0,0.0,0.0,0.0,0.0,0.0,0.0,0.0,0.0,0.0,0.0,0.0,0.0,0.0,0.0,0.0,0.0,0.0,0.0,0.0,0.0,0.0,0.0,0.0,0.0,0.0,0.0,0.0,0.0,0.0,0.0,0.0,0.0,0.0,0.0,0.0,0.0,0.0,0.0,0.0,0.0,0.0,0.0,0.0,0.0,0.0,0.0,0.0,0.0,0.0,0.0,0.0,0.0,0.0,0.0,0.0,0.0,0.0,0.0,0.0,0.0,0.0,0.0,0.0,0.0,0.0,0.0,0.0,0.0,0.0,0.0,0.0,0.0,0.0,0.0,0.0,0.0,0.0,0.0,-3.8614,-3.9723,-4.0699,-4.1521,-3.7373,-3.4743,-3.3853,0.0,0.0,0.0,0.0,0.0,0.0,0.0,0.0,0.0,0.0,0.0,0.0,0.0,0.0,0.0,0.0,0.0,0.0,0.0,0.0,0.0,0.0,0.0,0.0,0.0,0.0,0.0,0.0,0.0,0.0,0.0,0.0,0.0,0.0,0.0,0.0,0.0,0.0,0.0,0.0,0.0,0.0,0.0,0.0,0.0,0.0,0.0,0.0,0.0,0.0,0.0,0.0,0.0,0.0,0.0,0.0,0.0,0.0,0.0,0.0,0.0,0.0,0.0,0.0,0.0,0.0,0.0,0.0,0.0,0.0,0.0,0.0,0.0,0.0,0.0,0.0,0.0,0.0,0.0,0.0,0.0,0.0,0.0,0.0,0.0,0.0,0.0,0.0,0.0,0.0,0.0,0.0,0.0,0.0,0.0,0.0,0.0,0.0,0.0,0.0,0.0,0.0,0.0,0.0,0.0,0.0,0.0,0.0,-4.0934,-4.2598,-4.2685,-4.1165,-3.9312,-3.6376,0.0,0.0,0.0,0.0,0.0,0.0,0.0,0.0,0.0,0.0,0.0,0.0,0.0,0.0,0.0,0.0,0.0,0.0,0.0,0.0,0.0,0.0,0.0,0.0,0.0,0.0,0.0,0.0,0.0,0.0,0.0,0.0,0.0,0.0,0.0,0.0,0.0,0.0,0.0,0.0,0.0,0.0,0.0,0.0,0.0,0.0,0.0,0.0,0.0,0.0,0.0,0.0,0.0,0.0,0.0,0.0,0.0,0.0,0.0,0.0,0.0,0.0,0.0,0.0,0.0,0.0,0.0,0.0,0.0,0.0,0.0,0.0,0.0,0.0,0.0,0.0,0.0,0.0,0.0,0.0,0.0,0.0,0.0,0.0,0.0,0.0,0.0,0.0,0.0,0.0,0.0,0.0,0.0,0.0,0.0,0.0,0.0,0.0,0.0,0.0,0.0,0.0,0.0,0.0,0.0,0.0,0.0,0.0,0.0,-4.1731,-4.3434,-4.435,-4.4388,-4.0488,-3.8031,0.0,0.0,0.0,0.0,0.0,0.0,0.0,0.0,0.0,0.0,0.0,0.0,0.0,0.0,0.0,0.0,0.0,0.0,0.0,0.0,0.0,0.0,0.0,0.0,0.0,0.0,0.0,0.0,0.0,0.0,0.0,0.0,0.0,0.0,0.0,0.0,0.0,0.0,0.0,0.0,0.0,0.0,0.0,0.0,0.0,0.0,0.0,0.0,0.0,0.0,0.0,0.0,0.0,0.0,0.0,0.0,0.0,0.0,0.0,0.0,0.0,0.0,0.0,0.0,0.0,0.0,0.0,0.0,0.0,0.0,0.0,0.0,0.0,0.0,0.0,0.0,0.0,0.0,0.0,0.0,0.0,0.0,0.0,0.0,0.0,0.0,0.0,0.0,0.0,0.0,0.0,0.0,0.0,0.0,0.0,0.0,0.0,0.0,0.0,0.0,0.0,0.0,0.0,0.0,0.0,0.0,0.0,0.0,-4.0224,-4.2337,-4.3989,-4.5028,-4.5475,-4.2176,-3.9883,0.0,0.0,0.0,0.0,0.0,0.0,0.0,0.0,0.0,0.0,0.0,0.0,0.0,0.0,0.0,0.0,0.0,0.0,0.0,0.0,0.0,0.0,0.0,0.0,0.0,0.0,0.0,0.0,0.0,0.0,0.0,0.0,0.0,0.0,0.0,0.0,0.0,0.0,0.0,0.0,0.0,0.0,0.0,0.0,0.0,0.0,0.0,0.0,0.0,0.0,0.0,0.0,0.0,0.0,0.0,0.0,0.0,0.0,0.0,0.0,0.0,0.0,0.0,0.0,0.0,0.0,0.0,0.0,0.0,0.0,0.0,0.0,0.0,0.0,0.0,0.0,0.0,0.0,0.0,0.0,0.0,0.0,0.0,0.0,0.0,0.0,0.0,0.0,0.0,0.0,0.0,0.0,0.0,0.0,0.0,0.0,0.0,0.0,0.0,0.0,0.0,0.0,0.0,0.0,0.0,0.0,0.0,0.0,-4.1022,-4.2764,-4.4228,-4.503,-4.5069,-4.3781,-4.1603,0.0,0.0,0.0,0.0,0.0,0.0,0.0,0.0,0.0,0.0,0.0,0.0,0.0,0.0,0.0,0.0,0.0,0.0,0.0,0.0,0.0,0.0,0.0,0.0,0.0,0.0,0.0,0.0,0.0,0.0,0.0,0.0,0.0,0.0,0.0,0.0,0.0,0.0,0.0,0.0,0.0,0.0,0.0,0.0,0.0,0.0,0.0,0.0,0.0,0.0,0.0,0.0,0.0,0.0,0.0,0.0,0.0,0.0,0.0,0.0,0.0,0.0,0.0,0.0,0.0,0.0,0.0,0.0,0.0,0.0,0.0,0.0,0.0,0.0,0.0,0.0,0.0,0.0,0.0,0.0,0.0,0.0,0.0,0.0,0.0,0.0,0.0,0.0,0.0,0.0,0.0,0.0,0.0,0.0,0.0,0.0,0.0,0.0,0.0,0.0,0.0,0.0,0.0,0.0,0.0,0.0,0.0,0.0,-4.1289,-4.2768,-4.3731,-4.4503,-4.5066,-4.3145,-4.1428,0.0,0.0,0.0,0.0,0.0,0.0,0.0,0.0,0.0,0.0,0.0,0.0,0.0,0.0,0.0,0.0,0.0,0.0,0.0,0.0,0.0,0.0,0.0,0.0,0.0,0.0,0.0,0.0,0.0,0.0,0.0,0.0,0.0,0.0,0.0,0.0,0.0,0.0,0.0,0.0,0.0,0.0,0.0,0.0,0.0,0.0,0.0,0.0,-4.034,0.0,0.0,0.0,0.0,0.0,0.0,0.0,0.0,0.0,0.0,0.0,0.0,0.0,0.0,0.0,0.0,0.0,0.0,0.0,0.0,0.0,0.0,0.0,0.0,0.0,0.0,0.0,0.0,0.0,0.0,0.0,0.0,0.0,0.0,0.0,0.0,0.0,0.0,0.0,0.0,0.0,0.0,0.0,0.0,0.0,0.0,0.0,0.0,0.0,0.0,0.0,0.0,0.0,0.0,0.0,0.0,0.0,0.0,0.0,-4.1347,-4.2725,-4.3574,-4.4088,-4.4173,-4.2888,-4.1558,0.0,0.0,0.0,0.0,0.0,0.0,0.0,0.0,0.0,0.0,0.0,0.0,0.0,0.0,0.0,0.0,0.0,0.0,0.0,0.0,0.0,0.0,0.0,0.0,0.0,0.0,0.0,0.0,0.0,0.0,0.0,0.0,0.0,0.0,0.0,0.0,0.0,0.0,0.0,0.0,0.0,0.0,0.0,0.0,0.0,0.0,0.0,0.0,0.0,0.0,0.0,0.0,0.0,0.0,0.0,0.0,0.0,0.0,0.0,0.0,0.0,0.0,0.0,0.0,0.0,0.0,0.0,0.0,0.0,0.0,0.0,0.0,0.0,0.0,0.0,0.0,0.0,0.0,0.0,0.0,0.0,0.0,0.0,0.0,0.0,0.0,0.0,0.0,0.0,0.0,0.0,0.0,0.0,0.0,0.0,0.0,0.0,0.0,0.0,0.0,0.0,0.0,0.0,0.0,0.0,0.0,0.0,-3.9873,-4.1217,-4.2523,-4.3367,-4.3554,-4.3115,-4.2745,-4.1673,-3.985,0.0,0.0,0.0,0.0,0.0,0.0,0.0,0.0,0.0,0.0,0.0,0.0,0.0,0.0,0.0,0.0,0.0,0.0,0.0,0.0,0.0,0.0,0.0,0.0,0.0,0.0,0.0,0.0,0.0,0.0,0.0,0.0,0.0,0.0,0.0,0.0,0.0,0.0,-3.3958,-3.734,0.0,0.0,0.0,0.0,0.0,0.0,0.0,0.0,-4.1988,0.0,0.0,0.0,0.0,0.0,0.0,0.0,0.0,0.0,0.0,0.0,0.0,0.0,0.0,0.0,0.0,0.0,0.0,0.0,0.0,0.0,0.0,0.0,0.0,0.0,0.0,0.0,0.0,0.0,0.0,0.0,0.0,0.0,0.0,0.0,0.0,0.0,0.0,0.0,0.0,0.0,0.0,0.0,0.0,0.0,0.0,0.0,0.0,0.0,0.0,0.0,0.0,0.0,0.0,0.0,0.0,-3.7753,-3.9214,-4.0587,-4.1902,-4.2581,-4.2685,-4.2244,-4.2549,-4.1373,-3.8483,0.0,0.0,0.0,0.0,0.0,0.0,0.0,0.0,0.0,0.0,0.0,0.0,0.0,0.0,0.0,0.0,0.0,0.0,0.0,0.0,0.0,0.0,0.0,0.0,0.0,0.0,0.0,0.0,0.0,0.0,0.0,0.0,0.0,0.0,0.0,0.0,0.0,0.0,0.0,-3.9118,-4.0971,0.0,0.0,0.0,0.0,0.0,0.0,0.0,0.0,-4.1517,0.0,0.0,0.0,0.0,0.0,0.0,0.0,0.0,0.0,0.0,0.0,0.0,0.0,0.0,0.0,0.0,0.0,0.0,0.0,0.0,0.0,0.0,0.0,0.0,0.0,0.0,0.0,0.0,0.0,0.0,0.0,0.0,0.0,0.0,0.0,0.0,0.0,0.0,0.0,0.0,0.0,0.0,0.0,0.0,0.0,0.0,0.0,0.0,0.0,0.0,0.0,0.0,0.0,0.0,0.0,-3.7133,-3.9276,-4.0676,-4.1318,-4.1916,-4.1932,-4.1341,-4.1177,-3.9907,0.0,0.0,0.0,0.0,0.0,0.0,0.0,0.0,0.0,0.0,0.0,0.0,0.0,0.0,0.0,0.0,0.0,0.0,0.0,0.0,0.0,0.0,0.0,0.0,0.0,0.0,0.0,0.0,0.0,0.0,0.0,0.0,0.0,0.0,0.0,0.0,0.0,0.0,0.0,0.0,-3.9333,-4.0834,-4.1822,0.0,0.0,0.0,0.0,0.0,0.0,-4.1979,-4.1331,0.0,0.0,0.0,0.0,0.0,0.0,0.0,0.0,0.0,0.0,0.0,0.0,0.0,0.0,0.0,0.0,0.0,0.0,0.0,0.0,0.0,0.0,0.0,0.0,0.0,0.0,0.0,0.0,0.0,0.0,0.0,0.0,0.0,0.0,0.0,0.0,0.0,0.0,0.0,0.0,0.0,0.0,0.0,0.0,0.0,0.0,0.0,0.0,0.0,0.0,0.0,0.0,0.0,0.0,0.0,-3.6615,-3.9193,-4.0595,-4.0756,-4.1313,-4.1184,-4.0292,-3.9778,-3.8544,0.0,0.0,0.0,0.0,0.0,0.0,0.0,0.0,0.0,0.0,0.0,0.0,0.0,0.0,0.0,0.0,0.0,0.0,0.0,0.0,0.0,0.0,0.0,0.0,0.0,0.0,0.0,0.0,0.0,0.0,0.0,0.0,0.0,0.0,0.0,0.0,0.0,0.0,0.0,0.0,0.0,-4.0815,-4.1534,-4.1822,0.0,0.0,0.0,0.0,-4.2583,-4.1831,0.0,0.0,0.0,0.0,0.0,0.0,0.0,0.0,0.0,0.0,0.0,0.0,0.0,0.0,0.0,0.0,0.0,0.0,0.0,0.0,0.0,0.0,0.0,0.0,0.0,0.0,0.0,0.0,0.0,0.0,0.0,0.0,0.0,0.0,0.0,0.0,0.0,0.0,0.0,0.0,0.0,0.0,0.0,0.0,0.0,0.0,0.0,0.0,0.0,0.0,0.0,0.0,0.0,0.0,0.0,0.0,-3.591,-3.8078,-3.9534,-4.017,-4.0726,-4.0334,-3.8911,-3.9249,-3.8293,0.0,0.0,0.0,0.0,0.0,0.0,0.0,0.0,0.0,0.0,0.0,0.0,0.0,0.0,0.0,0.0,0.0,0.0,0.0,0.0,0.0,0.0,0.0,0.0,0.0,0.0,0.0,0.0,0.0,0.0,0.0,0.0,0.0,0.0,0.0,0.0,0.0,0.0,0.0,0.0,0.0,-4.1522,-4.031,-4.0807,-4.1482,0.0,0.0,-4.1653,-4.343,-4.2741,0.0,0.0,0.0,0.0,0.0,0.0,0.0,0.0,0.0,0.0,0.0,0.0,0.0,0.0,0.0,0.0,0.0,0.0,0.0,0.0,0.0,0.0,0.0,0.0,0.0,0.0,0.0,0.0,0.0,0.0,0.0,0.0,0.0,0.0,0.0,0.0,0.0,0.0,0.0,0.0,0.0,0.0,0.0,0.0,0.0,0.0,0.0,0.0,0.0,0.0,0.0,0.0,0.0,0.0,0.0,-3.3731,-3.5765,-3.7887,-3.9318,-4.0037,-3.9927,-3.9444,-3.8641,-3.8011,-3.687,0.0,0.0,0.0,0.0,0.0,0.0,0.0,0.0,0.0,0.0,0.0,0.0,0.0,0.0,0.0,0.0,0.0,0.0,0.0,0.0,0.0,0.0,0.0,0.0,0.0,0.0,0.0,0.0,0.0,0.0,0.0,0.0,0.0,0.0,0.0,0.0,0.0,0.0,0.0,0.0,0.0,0.0,-4.0499,-4.0478,0.0,0.0,0.0,-4.0034,-4.2605,0.0,0.0,0.0,0.0,0.0,0.0,0.0,0.0,0.0,0.0,0.0,0.0,0.0,0.0,0.0,0.0,0.0,0.0,0.0,0.0,0.0,0.0,0.0,0.0,0.0,0.0,0.0,0.0,0.0,0.0,0.0,0.0,0.0,0.0,0.0,0.0,0.0,0.0,0.0,0.0,0.0,0.0,0.0,0.0,0.0,0.0,0.0,0.0,0.0,0.0,0.0,0.0,0.0,0.0,0.0,0.0,0.0,-3.5514,-3.7572,-3.8924,-3.9489,-3.8992,-3.85,-3.8117,-3.6997,0.0,0.0,0.0,0.0,0.0,0.0,0.0,0.0,0.0,0.0,0.0,0.0,0.0,0.0,0.0,0.0,0.0,0.0,0.0,0.0,0.0,0.0,0.0,0.0,0.0,0.0,0.0,-2.7024,0.0,0.0,0.0,0.0,0.0,0.0,0.0,0.0,0.0,0.0,0.0,0.0,0.0,0.0,-4.0023,-4.0515,-4.015,-4.0102,0.0,0.0,-3.9099,-4.1355,-3.9618,-3.7801,0.0,0.0,0.0,0.0,0.0,0.0,0.0,0.0,0.0,0.0,0.0,0.0,0.0,0.0,0.0,0.0,0.0,0.0,0.0,0.0,0.0,0.0,0.0,0.0,0.0,0.0,0.0,0.0,0.0,0.0,0.0,0.0,0.0,0.0,0.0,0.0,0.0,0.0,0.0,0.0,0.0,0.0,0.0,0.0,0.0,0.0,0.0,0.0,0.0,0.0,0.0,0.0,0.0,0.0,-3.3376,-3.4789,-3.6816,-3.7892,-3.7962,-3.791,-3.7534,-3.6843,-3.6784,-3.5932,0.0,0.0,0.0,0.0,0.0,0.0,0.0,0.0,0.0,0.0,0.0,0.0,0.0,0.0,0.0,0.0,0.0,0.0,0.0,0.0,0.0,0.0,0.0,0.0,0.0,0.0,0.0,0.0,0.0,0.0,0.0,0.0,0.0,0.0,0.0,0.0,0.0,0.0,0.0,0.0,0.0,-3.9687,-3.9699,-3.9703,-3.9938,0.0,-4.0122,-3.9787,-4.0092,-3.9182,-3.7822,-3.5952,0.0,0.0,0.0,0.0,0.0,0.0,0.0,0.0,0.0,0.0,0.0,0.0,0.0,0.0,0.0,0.0,0.0,0.0,0.0,0.0,0.0,0.0,0.0,0.0,0.0,0.0,0.0,0.0,0.0,0.0,0.0,0.0,0.0,0.0,0.0,0.0,0.0,0.0,0.0,0.0,0.0,0.0,0.0,0.0,0.0,0.0,0.0,0.0,0.0,0.0,0.0,0.0,0.0,-3.2861,-3.469,-3.6261,-3.7308,-3.7745,-3.6952,-3.6389,-3.6088,-3.5263,-3.4268,0.0,0.0,0.0,0.0,0.0,0.0,0.0,0.0,0.0,0.0,0.0,0.0,0.0,0.0,0.0,0.0,0.0,0.0,0.0,0.0,0.0,0.0,0.0,0.0,0.0,0.0,0.0,0.0,-2.8305,-2.7919,-2.8356,0.0,0.0,0.0,0.0,0.0,0.0,0.0,0.0,0.0,0.0,-3.7105,-3.7459,-3.7732,0.0,0.0,-3.8372,-3.7971,-3.8034,-3.7235,-3.6358,-3.5617,-3.5529,0.0,0.0,0.0,0.0,0.0,0.0,0.0,0.0,0.0,0.0,0.0,0.0,0.0,0.0,0.0,0.0,0.0,0.0,0.0,0.0,0.0,0.0,0.0,0.0,0.0,0.0,0.0,0.0,0.0,0.0,0.0,0.0,0.0,0.0,0.0,0.0,0.0,0.0,0.0,0.0,0.0,0.0,0.0,0.0,0.0,0.0,0.0,0.0,0.0,0.0,0.0,0.0,-3.2718,-3.4602,-3.5707,-3.6446,-3.6801,-3.5824,-3.5225,-3.5031,-3.4101,-3.3239,0.0,0.0,0.0,0.0,0.0,0.0,0.0,0.0,0.0,0.0,0.0,0.0,0.0,0.0,0.0,0.0,0.0,0.0,0.0,0.0,0.0,0.0,0.0,0.0,0.0,0.0,0.0,0.0,-2.86,-2.7984,-2.9184,0.0,0.0,0.0,0.0,0.0,0.0,0.0,0.0,0.0,0.0,-3.5678,-3.6142,-3.6702,-3.7132,-3.731,-3.7114,-3.6928,-3.6948,-3.6052,-3.5346,-3.5379,0.0,0.0,0.0,0.0,0.0,0.0,0.0,0.0,0.0,0.0,0.0,0.0,0.0,0.0,0.0,0.0,0.0,0.0,0.0,0.0,0.0,0.0,0.0,0.0,0.0,0.0,0.0,-3.2131,0.0,0.0,-2.8211,0.0,0.0,0.0,0.0,0.0,0.0,0.0,0.0,0.0,0.0,0.0,0.0,0.0,0.0,0.0,0.0,0.0,0.0,0.0,0.0,0.0,0.0,-3.3156,-3.449,-3.5209,-3.5239,-3.4628,-3.4543,-3.4231,-3.3609,-3.3556,-3.3237,-3.2492,0.0,0.0,0.0,0.0,0.0,0.0,0.0,0.0,0.0,0.0,0.0,0.0,0.0,0.0,0.0,0.0,0.0,0.0,0.0,0.0,0.0,0.0,0.0,0.0,0.0,0.0,-3.0118,-2.8389,-2.7731,0.0,0.0,0.0,0.0,0.0,0.0,0.0,0.0,0.0,0.0,-3.5735,-3.6107,-3.6172,-3.7084,-3.7315,-3.6369,-3.6826,-3.729,-3.7262,-3.5997,-3.5027,0.0,0.0,0.0,0.0,0.0,0.0,0.0,0.0,0.0,0.0,0.0,0.0,0.0,0.0,0.0,0.0,0.0,0.0,0.0,0.0,0.0,0.0,0.0,0.0,0.0,0.0,0.0,-3.2863,-3.1642,0.0,0.0,0.0,0.0,0.0,0.0,0.0,0.0,0.0,0.0,0.0,-3.1517,-3.1968,0.0,0.0,0.0,0.0,0.0,0.0,0.0,0.0,0.0,0.0,0.0,0.0,-3.317,-3.4474,-3.516,-3.516,-3.4518,-3.4045,-3.3531,-3.2865,-3.2427,-3.2083,-3.1795,0.0,0.0,0.0,0.0,0.0,0.0,0.0,0.0,0.0,0.0,0.0,0.0,0.0,0.0,0.0,0.0,0.0,0.0,0.0,0.0,0.0,0.0,0.0,0.0,0.0,-3.1117,0.0,0.0,0.0,0.0,0.0,0.0,0.0,0.0,0.0,0.0,0.0,-3.4861,-3.4794,-3.468,-3.4493,-3.4189,-3.5061,-3.5764,0.0,0.0,0.0,0.0,0.0,0.0,0.0,0.0,0.0,0.0,0.0,0.0,0.0,0.0,-3.7937,-3.6728,-3.5551,-3.4769,-3.4769,0.0,0.0,0.0,0.0,0.0,0.0,0.0,0.0,0.0,0.0,0.0,0.0,0.0,0.0,-3.3455,0.0,-3.1815,0.0,0.0,0.0,0.0,0.0,0.0,0.0,0.0,-3.1962,-3.1943,-3.1309,-3.1764,-3.1736,0.0,-3.1536,-3.1699,0.0,0.0,0.0,0.0,0.0,0.0,0.0,0.0,-3.3739,-3.4801,-3.528,-3.507,-3.4204,-3.3724,-3.3066,-3.2183,-3.172,-3.1449,-3.1411,-3.1669,-3.1693,0.0,0.0,0.0,0.0,0.0,0.0,0.0,0.0,0.0,0.0,0.0,0.0,0.0,0.0,0.0,0.0,0.0,0.0,0.0,0.0,0.0,0.0,0.0,-3.0797,0.0,0.0,0.0,0.0,0.0,0.0,0.0,0.0,0.0,-3.4149,-3.4791,-3.4946,-3.4619,-3.433,-3.3985,-3.3445,0.0,0.0,0.0,0.0,0.0,0.0,0.0,-3.5228,-3.569,-3.5033,-3.4382,-3.4018,-3.5259,-3.609,-3.5403,0.0,0.0,-3.6742,-3.5759,-3.4991,-3.4978,-3.474,-3.438,-3.3966,-3.4537,-3.4908,0.0,0.0,0.0,0.0,0.0,0.0,0.0,0.0,-3.5542,-3.4999,0.0,-3.3557,0.0,0.0,0.0,0.0,0.0,-3.2145,0.0,0.0,-3.2233,-3.2522,-3.2473,-3.2451,-3.2486,-3.2563,-3.3073,-3.3032,-3.2404,-3.1199,0.0,0.0,0.0,0.0,0.0,0.0,-3.4784,-3.5394,-3.5472,-3.4861,-3.3574,-3.3499,-3.2826,-3.1512,-3.1438,-3.1379,-3.1328,-3.2048,-3.2137,-3.1434,-3.1492,0.0,0.0,0.0,0.0,0.0,0.0,0.0,0.0,0.0,0.0,0.0,0.0,0.0,0.0,0.0,0.0,0.0,0.0,0.0,0.0,-3.1465,0.0,0.0,0.0,0.0,0.0,0.0,0.0,0.0,0.0,0.0,-3.3972,-3.5279,-3.5675,-3.4733,0.0,0.0,0.0,0.0,-3.4955,-3.4004,-3.5126,-3.5737,-3.4758,-3.4898,-3.521,-3.5331,0.0,0.0,-3.1901,-3.3079,-3.3793,-3.1923,-3.415,-3.6602,-3.756,-3.6039,-3.474,-3.4658,-3.3878,-3.3149,-3.3185,-3.3946,-3.4425,-3.5545,0.0,0.0,0.0,0.0,-3.5781,-3.5829,-3.6236,-3.4994,-3.3815,-3.2715,-3.1812,0.0,0.0,0.0,0.0,0.0,0.0,-3.1756,-3.1319,-3.1492,-3.123,-3.0595,-3.0608,-3.0608,-3.0608,-3.0801,-3.0801,-3.0595,-3.021,-3.0603,-3.1734,0.0,0.0,0.0,0.0,-3.3802,-3.4418,-3.5133,-3.4861,-3.3529,-3.3499,-3.2569,-3.0703,-3.0644,-3.0348,-2.9713,-3.0528,-3.1043,-3.1248,-3.0949,0.0,0.0,0.0,0.0,0.0,0.0,0.0,0.0,0.0,0.0,0.0,0.0,0.0,0.0,0.0,0.0,0.0,0.0,0.0,-3.1734,-3.1296,-3.1089,0.0,0.0,0.0,0.0,0.0,0.0,0.0,0.0,0.0,-3.2195,-3.3442,-3.3993,0.0,0.0,-3.4374,-3.3445,-3.2841,-3.2457,-3.2572,-3.2528,0.0,0.0,-3.2584,-3.2744,-3.3163,-3.3002,-3.2687,-3.2152,-3.2553,-3.2698,-3.214,-3.283,-3.3511,-3.355,-3.4264,-3.4532,-3.4357,-3.3683,-3.3149,-3.3124,-3.3356,-3.3505,-3.5519,-3.554,-3.5556,-3.5819,-3.6131,-3.5291,-3.5157,-3.5471,-3.4052,-3.3004,-3.2277,-3.1653,-3.0808,-2.9863,-3.0253,0.0,0.0,0.0,-3.1129,-3.0633,-3.0671,-3.0343,-2.983,-2.9779,-2.9779,-2.9779,-2.9779,-2.9779,-2.9779,-2.9779,-3.0151,-3.0861,0.0,0.0,-3.1985,-3.2603,-3.3061,-3.347,-3.4394,-3.4404,-3.3372,-3.2858,-3.1863,-3.0372,-2.9981,-2.9535,-2.9034,-2.9504,-3.0066,-3.0616,-3.0714,-3.069,0.0,0.0,0.0,0.0,0.0,0.0,0.0,0.0,0.0,0.0,0.0,-2.7351,-2.7846,0.0,0.0,0.0,-3.1468,-3.1954,-3.1357,-3.1159,0.0,0.0,0.0,0.0,0.0,0.0,0.0,-2.9845,-2.9846,-2.9823,-3.003,-3.1169,-3.2028,-3.2271,-3.2651,-3.268,-3.2054,0.0,-3.0948,-3.1274,-3.0721,-3.053,-3.1304,-3.1172,-3.107,-3.1433,-3.1531,-3.1276,-3.0773,-3.1133,-3.1276,-3.0946,-3.1429,-3.1728,-3.0574,-3.1754,-3.2851,-3.2663,-3.2467,-3.2363,-3.2339,-3.2754,-3.3061,-3.5326,-3.5392,-3.5377,-3.5392,-3.5279,-3.4394,-3.3945,-3.3808,-3.289,-3.2486,-3.2486,-3.2429,-3.2042,-3.1465,-3.1465,0.0,-3.0197,-3.0808,-3.0607,-2.9779,-2.9779,-2.9779,-2.9779,-2.9779,-2.9779,-2.9779,-2.9779,-2.9779,-2.9779,-2.9779,-2.9779,-2.983,-3.0658,-3.1499,-3.2357,-3.2464,-3.25,-3.25,-3.3429,-3.3589,-3.3001,-3.1743,-3.0795,-3.0172,-2.9331,-2.8876,-2.8812,-2.8876,-2.9151,-2.9695,-3.0552,-3.0409,-2.9081,0.0,0.0,0.0,0.0,0.0,0.0,0.0,0.0,0.0,0.0,0.0,0.0,0.0,0.0,0.0,-3.1967,0.0,-3.1281,-3.0999,0.0,0.0,0.0,-2.9201,-2.9869,-2.9136,-2.8668,-2.8749,0.0,0.0,-2.7826,-2.8737,-2.9926,-3.1163,-3.0681,-3.0171,-3.0137,-3.0045,-2.9985,-2.9963,-2.9456,-2.9423,-3.0196,-3.0052,-2.9814,-2.9951,-3.0057,-2.9548,-2.8645,-2.9213,-2.9433,-2.8539,-2.9907,-3.0668,-2.8512,-2.9176,-2.99,-2.9867,-3.0503,-3.1033,-3.1089,-3.1816,-3.2364,-3.3705,-3.4361,-3.4361,-3.4361,-3.4346,-3.4095,-3.3587,-3.2876,-3.1938,-3.1556,-3.1499,-3.0769,-3.0392,-3.0226,-3.0226,-3.0125,-2.991,-3.005,-2.9998,-2.9779,-2.9779,-2.9779,-2.9779,-2.9779,-2.9779,-2.9779,-2.9779,-2.9779,-2.9779,-2.9779,-2.9779,-2.9792,-3.0037,-3.0254,-3.0495,-3.1156,-3.1536,-3.1523,-3.2451,-3.2619,-3.195,-3.0754,-2.9738,-2.8931,-2.8344,-2.7703,-2.7129,-2.769,-2.8318,-2.8946,-2.9316,-2.978,-3.0267,-2.8506,0.0,0.0,0.0,0.0,0.0,0.0,0.0,0.0,0.0,-2.7675,-2.8061,0.0,-2.8264,0.0,-2.9875,-2.98,-2.96,-2.95,0.0,0.0,-2.9222,-2.8777,-3.0032,-2.8881,-2.8075,-2.8403,-2.8367,-2.8252,-2.8154,-2.788,-2.7752,-2.8087,-2.9327,-3.0047,-2.9653,-2.8762,-2.8209,-2.8157,-2.76,-2.72,-2.7548,-2.7653,-2.7793,-2.7769,-2.7819,-2.7665,-2.7376,-2.7562,-2.7655,-2.7366,-2.7688,-2.7753,-2.7062,-2.7132,-2.7156,-2.6988,-2.8384,-2.9818,-2.9806,-2.9848,-3.0036,-3.2912,-3.338,-3.3394,-3.3136,-3.282,-3.3636,-3.3449,-3.2536,-3.1596,-3.0968,-3.053,-3.0037,-2.9779,-2.9779,-2.9779,-2.9779,-2.9779,-2.9779,-2.9779,-2.9779,-2.9779,-2.9779,-2.9779,-2.9779,-2.9779,-2.9779,-2.9779,-2.9779,-2.9779,-2.9779,-2.9779,-2.9779,-2.9779,-2.9779,-2.9818,-3.0317,-3.0595,-3.0595,-3.1499,-3.1842,-3.1571,-3.0582,-2.9577,-2.8533,-2.8109,-2.7566,-2.6898,-2.7506,-2.8053,-2.842,-2.8932,-2.9309,-2.9547,-2.7947,-2.705,0.0,0.0,0.0,0.0,0.0,0.0,0.0,0.0,0.0,0.0,0.0,-2.8192,-2.9162,-2.9555,-2.9753,-2.9753,-2.9663,-2.9851,-3.0431,-2.909,-2.8492,-2.9326,-2.8532,-2.8027,-2.8271,-2.8301,-2.8223,-2.8027,-2.7432,-2.6943,-2.6758,-2.758,-2.81,-2.7783,-2.7125,-2.6754,-2.6716,-2.6367,-2.6182,-2.6348,-2.6582,-2.6807,-2.6973,-2.7012,-2.7012,-2.7012,-2.7012,-2.7012,-2.7002,-2.6865,-2.667,-2.6495,-2.627,-2.6016,-2.5966,-2.6791,-2.7766,-2.8212,-2.8565,-2.8911,-3.2321,-3.2429,-3.2429,-3.2033,-3.1486,-3.3136,-3.3206,-3.2177,-3.1365,-3.0558,-2.9779,-2.9779,-2.9779,-2.9779,-2.9779,-2.9779,-2.9779,-2.9779,-2.9779,-2.9779,-2.9663,-2.9585,-2.9573,-2.9417,-2.9378,-2.9378,-2.9378,-2.9378,-2.939,-2.9507,-2.9585,-2.9585,-2.9714,-2.9779,-2.9779,-2.9779,-2.9779,-2.9792,-3.0633,-3.1113,-3.1344,-3.0627,-2.9682,-2.8595,-2.8255,-2.7883,-2.7431,-2.7858,-2.8109,-2.8146,-2.8876,-2.8902,-2.8062,-2.7377,-2.66,0.0,-2.4205,0.0,0.0,0.0,0.0,0.0,0.0,0.0,0.0,-2.8474,-2.867,-2.8929,-2.9851,-3.0373,-3.0384,-3.0191,-3.0068,-3.0016,-2.8996,-2.8301,-2.8291,-2.8301,-2.8301,-2.8301,-2.8301,-2.8135,-2.7734,-2.7285,-2.6855,-2.6475,-2.6143,-2.6005,-2.5781,-2.583,-2.5781,-2.5684,-2.5684,-2.5859,-2.6191,-2.6289,-2.6426,-2.6748,-2.6787,-2.6855,-2.6797,-2.6816,-2.6826,-2.6797,-2.6533,-2.6368,-2.6437,-2.6055,-2.5713,-2.5684,-2.583,-2.6058,-2.6579,-2.7326,-2.7922,-3.0771,-3.1462,-3.1462,-3.1792,-3.2357,-3.2713,-3.1901,-3.0317,-3.0139,-2.9972,-2.9792,-2.9779,-2.9779,-2.9779,-2.9779,-2.9779,-2.9779,-2.9779,-2.9779,-2.9753,-2.8858,-2.8438,-2.8386,-2.7545,-2.7139,-2.7139,-2.7087,-2.7139,-2.7139,-2.7988,-2.8426,-2.8438,-2.9365,-2.9779,-2.9779,0.0,0.0,0.0,-2.9972,-3.0088,-3.0126,-2.9529,-2.9074,-2.8809,-2.8346,0.0,-2.7959,-2.8047,-2.8109,-2.8109,-2.8279,0.0,0.0,0.0,0.0,0.0,0.0,0.0,0.0,0.0,0.0,0.0,-2.5328,-2.6181,-2.8219,-2.894,-2.9133,-2.8782,-2.8778,-2.8755,-2.8765,-2.8694,-2.8698,-2.8644,-2.8441,-2.8301,-2.8301,-2.8301,-2.8301,-2.8301,-2.8301,-2.8135,-2.7767,-2.7285,-2.6855,-2.6445,-2.6006,-2.5703,-2.5684,-2.5684,-2.5684,-2.5684,-2.5684,-2.5713,-2.584,-2.5879,-2.5879,-2.5927,-2.5927,-2.5947,-2.5976,-2.5966,-2.5947,-2.5966,-2.5859,-2.5879,-2.5879,-2.5791,-2.5684,-2.5684,-2.5684,-2.5654,-2.5488,-2.5325,-2.5315,-3.0075,0.0,-3.0482,-3.0809,0.0,-3.1193,-3.0671,-2.9818,-3.0279,-3.0241,-2.9779,-2.9779,-2.9779,-2.9779,-2.9779,-2.9495,-2.8988,-2.8976,-2.8648,-2.8143,-2.7585,-2.7331,-2.729,-2.676,-2.6483,-2.6483,-2.6483,-2.6483,-2.6524,-2.7046,-2.7279,-2.7319,-2.7879,-2.8183,-2.8171,-2.8171,-2.8712,-2.9779,-2.9779,-2.9534,-2.9015,-2.9209,-2.8693,-2.7335,0.0,0.0,0.0,0.0,0.0,0.0,0.0,0.0,0.0,0.0,0.0,-2.5492,-2.4957,-2.4567,-2.4523,-2.4922,-2.5191,-2.5134,-2.5517,-2.6267,-2.7585,-2.8441,-2.8773,-2.852,-2.8397,-2.8301,-2.8301,-2.8301,-2.8301,-2.8301,-2.8301,-2.8301,-2.8301,-2.8301,-2.8301,-2.8301,-2.8301,-2.8135,-2.7767,-2.7285,-2.6855,-2.6445,-2.6016,-2.5693,-2.5684,-2.5684,-2.5684,-2.5684,-2.5684,-2.5684,-2.5684,-2.5684,-2.5684,-2.5684,-2.5684,-2.5684,-2.5684,-2.5684,-2.5684,-2.5684,-2.5684,-2.5684,-2.5684,-2.5684,-2.5684,-2.5684,-2.5684,-2.5586,-2.5156,-2.4727,-2.4415,-2.9779,-2.9779,-2.9779,-2.9779,-2.9779,-2.9779,-2.9663,-2.956,0.0,0.0,0.0,-2.9779,-2.9702,-2.9495,-2.9495,-2.891,-2.7844,-2.7815,-2.7331,-2.6524,-2.6307,-2.6224,-2.6182,-2.5975,-2.5902,-2.5891,-2.5891,-2.5902,-2.5933,-2.6099,-2.6171,-2.6224,-2.6389,-2.6483,-2.6483,-2.6483,-2.7395,-2.9131,-2.9209,-2.8779,-2.7896,-2.874,-2.8127,-2.5815,-2.71,-2.7151,-2.5827,-2.6259,-2.6281,-2.5786,-2.5764,-2.5643,-2.544,-2.4614,-2.4418,-2.5001,-2.4376,-2.4082,-2.4502,-2.4941,-2.5233,-2.5185,-2.5937,-2.6562,-2.6982,-2.7734,-2.8213,-2.8281,-2.8301,-2.8301,-2.8301,-2.8301,-2.8301,-2.8301,-2.8301,-2.8301,-2.8301,-2.8301,-2.8301,-2.8301,-2.8291,-2.8135,-2.7725,-2.7363,-2.6973,-2.6553,-2.6162,-2.5762,-2.5703,-2.5684,-2.5684,-2.5684,-2.5684,-2.5684,-2.5684,-2.5684,-2.5635,-2.5274,-2.5274,-2.5274,-2.5069,-2.502,-2.4971,-2.4756,-2.4962,-2.4913,-2.4962,-2.4815,-2.5069,-2.5284,-2.5382,-2.5324,-2.5196,-2.4775,-2.4297,-2.9779,-2.9779,-2.9779,-2.9779,-2.9779,-2.9779,-2.9236,-2.8426,-2.9496,-2.9946,-2.9779,-2.9779,-2.9287,-2.8347,-2.8335,-2.7747,-2.676,-2.673,-2.6637,0.0,-2.5504,-2.5041,-2.4999,-2.4049,-2.3551,-2.3594,-2.3594,-2.3594,-2.3681,-2.4585,-2.5052,-2.5126,-2.6016,-2.6483,-2.6483,-2.6483,-2.6648,-2.6964,-2.6976,-2.6894,-2.6719,-2.6894,-2.6778,-2.6423,-2.6603,-2.6614,-2.6371,-2.6397,-2.6449,-2.6371,-2.6371,-2.5948,-2.4977,-2.4724,-2.4483,-2.4098,-2.4212,-2.4512,-2.4951,-2.5391,-2.5644,-2.5615,-2.6103,-2.6562,-2.6982,-2.7461,-2.7953,-2.8242,-2.8301,-2.8301,-2.8301,-2.8237,-2.8184,-2.8184,-2.8237,-2.8291,-2.8237,-2.8291,-2.8301,-2.8301,-2.8291,-2.8144,-2.7773,-2.766,-2.7383,-2.6982,-2.6562,-2.6122,-2.5751,-2.5684,-2.5684,-2.5684,-2.5684,-2.5684,-2.5684,-2.5684,-2.5274,-2.4156,-2.4097,-2.3791,-2.2767,-2.2608,-2.2617,-2.2357,-2.2558,-2.2508,-2.2458,-2.2257,-2.2876,-2.3741,-2.3989,-2.4258,-2.5024,-2.4744,-2.4234,-2.9779,-2.9779,-2.9779,-2.9779,-2.974,-2.9157,-2.8597,-2.8096,-2.8028,-2.7999,-2.8011,-2.8011,-2.7706,-2.725,-2.7209,-2.6614,-2.5588,-2.5588,-2.521,-2.4648,-2.4145,-2.3887,-2.3833,-2.3343,-2.3101,-2.3101,-2.3101,-2.3101,-2.3135,-2.3627,-2.3877,-2.392,-2.4425,-2.4648,-2.4648,-2.4648,-2.4638,-2.4691,-2.5891,-2.6224,-2.5588,-2.6182,-2.5933,-2.4734,-2.5221,-2.5263,-2.4691,-2.4648,-2.4648,-2.4638,-2.4638,-2.4425,-2.393,-2.4109,-2.4231,-2.4157,-2.4541,-2.4971,-2.54,-2.5625,-2.5684,-2.5693,-2.5918,-2.6221,-2.6641,-2.7275,-2.7894,-2.8242,-2.8301,-2.796,-2.7222,-2.7105,-2.6771,-2.5945,-2.6554,-2.7114,-2.7222,-2.7897,-2.8291,-2.8301,-2.8301,-2.8213,-2.8027,-2.7865,-2.7669,-2.7353,-2.7002,-2.6379,-2.5393,-2.5896,-2.6191,-2.5801,-2.5684,-2.5684,-2.5684,-2.5684,-2.5128,-2.389,-2.3692,-2.3126,-2.2005,-2.1693,-2.1643,-2.1693,-2.1693,-2.1693,-2.1643,-2.1693,-2.2005,-2.2307,-2.2608,-2.2968,-2.3354,-2.3505,-2.3636,-2.9779,-2.9779,-2.9779,-2.9675,-2.9326,-2.8478,-2.7832,-2.7308,-2.6461,-2.5975,-2.5808,-2.6224,-2.6348,-2.6141,-2.6141,-2.5504,-2.4553,-2.4425,-2.392,-2.3178,-2.3101,-2.3101,-2.3101,-2.3101,-2.3101,-2.3101,-2.3101,-2.3101,-2.3101,-2.3101,-2.3101,-2.3101,-2.3101,-2.3101,-2.3101,-2.3101,-2.3101,-2.3222,-2.4861,-2.5305,-2.45,-2.5305,-2.4893,-2.3343,-2.3963,-2.4006,-2.3135,-2.3101,-2.3101,-2.3101,-2.3101,-2.3101,-2.311,-2.3555,-2.3975,-2.4404,-2.4824,-2.5273,-2.5684,-2.5684,-2.5684,-2.5684,-2.5684,-2.5918,-2.6377,-2.6753,-2.7371,-2.8023,-2.7892,-2.7276,-2.6327,-2.5763,-2.5105,-2.4044,-2.5206,-2.6164,-2.6218,-2.7384,-2.8301,-2.8301,-2.8301,-2.8291,-2.8232,-2.8008,-2.7659,-2.7127,-2.6868,-2.6069,-2.4796,-2.5298,-2.5595,-2.5355,-2.5368,-2.5674,-2.5713,-2.5684,-2.4971,-2.3592,-2.3176,-2.2316,-2.1194,-2.0684,-2.0735,-2.0582,-2.0633,-2.0531,-2.0684,-2.0684,-2.0786,-2.1041,-2.1194,-2.1322,-2.1687,-2.2139,-2.2593,-2.9779,-2.9779,-2.974,-2.9197,-2.8267,-2.8084,-2.6942,-2.5284,-2.4999,-2.4339,-2.3767,-2.5557,-2.5891,-2.5041,-2.4957,-2.4339,-2.3343,-2.3266,-2.3222,-2.3135,-2.3101,-2.3101,-2.3101,-2.3101,-2.3101,-2.3101,-2.3101,-2.3101,-2.3101,-2.3101,-2.3101,-2.3101,-2.3101,-2.3101,-2.3101,-2.3101,-2.3101,-2.3101,-2.3299,-2.3343,-2.3266,-2.3343,-2.3299,-2.3135,-2.3222,-2.3222,-2.3101,-2.3101,-2.3101,-2.3101,-2.3101,-2.3101,-2.314,-2.3555,-2.3984,-2.4394,-2.4834,-2.5264,-2.5635,-2.5684,-2.5684,-2.5684,-2.5635,-2.5751,-2.6179,-2.5526,-2.5841,-2.7008,-2.6782,-2.6209,-2.6045,-2.482,-2.3877,-2.3543,-2.4875,-2.6109,-2.6063,-2.7413,-2.8301,-2.8301,-2.795,-2.8291,-2.8057,-2.8053,-2.7443,-2.5879,-2.5628,-2.4925,-2.3297,-2.3238,-2.3356,-2.3346,-2.4329,-2.546,-2.5496,-2.5693,-2.4464,-2.2485,-2.1878,-2.0952,-1.9346,-1.8391,-1.8035,-1.876,-1.8349,-1.8401,-1.8304,-1.8048,-1.8551,-1.9524,-1.9855,-2.0,-2.0772,-2.1123,-2.1368,-2.9779,-2.9714,-2.9067,-2.8159,-2.7168,-2.6438,-2.565,-2.4787,-2.4082,-2.3507,-2.3222,-2.4092,-2.4221,-2.379,-2.38,-2.3517,-2.3101,-2.3101,-2.3101,-2.3101,-2.3101,-2.3101,-2.3101,-2.3101,-2.3101,-2.3101,-2.3101,-2.3101,-2.3101,-2.3101,-2.3101,-2.3101,-2.3101,-2.3101,-2.3101,-2.3101,-2.3101,-2.3101,-2.3101,-2.3101,-2.3101,-2.3101,-2.3101,-2.3101,-2.3101,-2.3101,-2.3101,-2.3101,-2.3101,-2.3101,-2.3101,-2.3101,-2.3101,-2.3744,-2.4238,-2.4443,-2.5078,-2.5537,-2.5674,-2.5684,-2.5372,-2.4559,-2.451,-2.4328,-2.3684,-2.3557,-2.3938,-2.4562,-2.4694,-2.4433,-2.359,-2.287,-2.2209,-2.1593,-2.254,-2.3479,-2.3495,-2.4782,-2.5663,-2.5663,-2.5663,-2.6054,-2.678,-2.6997,-2.6263,-2.4833,-2.4424,-2.3774,-2.2285,-2.2671,-2.2739,-2.2064,-2.3111,-2.3948,-2.3944,-2.3822,-2.2919,-2.1606,-2.0983,-2.0127,-1.8571,-1.7856,-1.7809,-1.7635,-1.7609,-1.7609,-1.774,-1.7589,-1.7845,-1.8454,-1.8454,-1.8554,-1.8935,-1.9623,-2.0108,-2.9079,-2.9145,-2.8159,-2.7035,-2.5975,-2.5179,-2.4628,-2.4253,-2.342,-2.3101,-2.3101,-2.3101,-2.3101,-2.3101,-2.3101,-2.3101,-2.3101,-2.3101,-2.3101,-2.3101,-2.3101,-2.3101,-2.3101,-2.3101,-2.3101,-2.3101,-2.3101,-2.3101,-2.3101,-2.3101,-2.3101,-2.3101,-2.3101,-2.3101,-2.3101,-2.3101,-2.3101,-2.3101,-2.3101,-2.3101,-2.3101,-2.3101,-2.3101,-2.3101,-2.3101,-2.3101,-2.3101,-2.3101,-2.3101,-2.3101,-2.3101,-2.3149,-2.3296,-2.4023,-2.4475,-2.4748,-2.4967,-2.5167,-2.5177,-2.4815,-2.4196,-2.3285,-2.3176,-2.2776,-2.197,-2.1953,-2.2076,-2.2164,-2.2411,-2.2153,-2.1805,-2.1252,-2.0529,-1.9649,-2.0694,-2.1586,-2.1749,-2.2927,-2.3933,-2.3822,-2.41,-2.4156,-2.5215,-2.5434,-2.4867,-2.3518,-2.3135,-2.2645,-2.1479,-2.1783,-2.1925,-2.0725,-2.1521,-2.2198,-2.2374,-2.2691,-2.1886,-2.104,-2.0562,-2.0047,-1.8523,-1.8238,-1.8156,-1.8016,-1.7822,-1.7709,-1.7742,-1.7716,-1.7589,-1.7589,-1.7635,-1.7687,-1.7903,-1.8544,-1.8815,-2.725,-2.7936,-2.7005,-2.588,-2.483,-2.4787,-2.4178,-2.3299,-2.3135,-2.3101,-2.3101,-2.3101,-2.3101,-2.3101,-2.3101,-2.3101,-2.3101,-2.3101,-2.3101,-2.3101,-2.3101,-2.3101,-2.3101,-2.3101,-2.3101,-2.3101,-2.3101,-2.3101,-2.3101,-2.3101,-2.3101,-2.3101,-2.3101,-2.3101,-2.3101,-2.3101,-2.3101,-2.3101,-2.3101,-2.3101,-2.3101,-2.3101,-2.3101,-2.3101,-2.3101,-2.3101,-2.3101,-2.3101,-2.3101,-2.3101,-2.312,-2.3286,-2.373,-2.418,-2.4795,-2.5315,-2.4473,-2.384,-2.3642,-2.2776,-2.2005,-2.1803,-2.1752,-2.171,-2.1334,-2.087,-2.0661,-2.0629,-2.0245,-2.0314,-2.1145,-2.0364,-1.97,-1.9533,-2.0637,-2.1415,-2.1529,-2.2484,-2.3654,-2.3599,-2.3543,-2.3543,-2.3766,-2.3877,-2.3207,-2.2145,-2.1699,-2.1259,-2.0148,-1.9758,-1.9795,-1.9723,-1.9835,-2.0253,-2.1968,-2.2007,-2.1534,-2.0803,-2.0123,-2.0019,-1.9188,-1.8464,-1.8444,-1.837,-1.8163,-1.7969,-1.7922,-1.7842,-1.7649,-1.7589,-1.7589,-1.7641,-1.7589,-1.7589,-1.7843,-2.6307,-2.5942,-2.5577,-2.4755,-2.3757,-2.3714,-2.3464,-2.3091,-2.3101,-2.3101,-2.3101,-2.3101,-2.3101,-2.3101,-2.3101,-2.3101,-2.3101,-2.3101,-2.3101,-2.3101,-2.3101,-2.3101,-2.3101,-2.3101,-2.3101,-2.3101,-2.3101,-2.3101,-2.3101,-2.3101,-2.3101,-2.3101,-2.3101,-2.3101,-2.3101,-2.3101,-2.3101,-2.3101,-2.3101,-2.3101,-2.3091,-2.3101,-2.3101,-2.3101,-2.3101,-2.3101,-2.3101,-2.3101,-2.3101,-2.3101,-2.3398,-2.3623,-2.3828,-2.4453,-2.4698,-2.4417,-2.3998,-2.3335,-2.2517,-2.2005,-2.1296,-2.0444,-2.0333,-1.9969,-1.9317,-1.9189,-1.9251,-1.9375,-1.9492,-1.9744,-1.9924,-1.9707,-1.9424,-1.9482,-1.9873,-2.0256,-2.0263,-2.0651,-2.0988,-2.1159,-2.1707,-2.204,-2.1536,-2.1813,-2.1756,-2.0537,-2.0199,-1.9982,-1.9649,-1.9424,-1.9424,-1.9424,-1.9417,-1.9639,-2.0238,-2.0492,-2.0267,-2.0047,-1.9707,-1.9533,-1.8921,-1.8784,-1.8751,-1.8584,-1.841,-1.8175,-1.8069,-1.7856,-1.7675,-1.7589,-1.7589,-1.7589,-1.7589,-1.7589,-1.7589,-2.5305,-2.4339,-2.4243,-2.38,-2.3135,-2.3101,-2.3101,-2.3101,-2.3101,-2.3101,-2.3101,-2.3101,-2.3101,-2.3101,-2.3101,-2.3101,-2.3101,-2.3101,-2.3101,-2.3101,-2.3101,-2.3101,-2.3101,-2.3101,-2.3101,-2.3101,-2.3101,-2.3101,-2.3101,-2.3101,-2.3101,-2.3101,-2.3101,-2.3101,-2.3101,-2.3101,-2.3101,-2.3101,-2.3101,-2.3101,-2.3047,-2.2721,-2.2536,-2.2448,-2.2129,-2.2129,-2.2457,-2.2129,-2.1972,-2.2121,-2.2371,-2.2823,-2.351,-2.3795,-2.395,-2.3647,-2.2818,-2.2013,-2.1143,-2.0633,-1.9981,-1.9072,-1.8923,-1.8527,-1.7834,-1.8194,-1.8548,-1.8835,-1.9185,-1.9424,-1.9424,-1.9424,-1.9424,-1.9424,-1.9424,-1.9424,-1.9424,-1.9424,-1.9482,-1.97,-2.0314,-2.0314,-1.9751,-2.0364,-2.0307,-1.9482,-1.9424,-1.9424,-1.9424,-1.9424,-1.9424,-1.9424,-1.9424,-1.9424,-1.9726,-1.98,-1.98,-1.9591,-1.9527,-1.93,-1.9145,-1.9072,-1.8985,-1.8804,-1.8617,-1.8417,-1.8122,-1.7903,-1.7736,-1.7635,-1.7589,-1.7589,-1.7589,-1.7589,-1.7589,-2.4125,-2.3266,-2.3091,-2.3178,-2.3101,-2.3101,-2.3101,-2.3101,-2.3101,-2.3101,-2.3101,-2.3101,-2.3101,-2.3101,-2.3101,-2.3101,-2.3101,-2.3101,-2.3101,-2.3101,-2.3101,-2.3101,-2.3101,-2.3101,-2.3101,-2.3101,-2.3101,-2.3101,-2.3101,-2.3101,-2.3101,-2.3101,-2.3101,-2.3101,-2.3101,-2.3101,-2.3101,-2.3047,-2.3003,-2.296,-2.296,-2.1898,-2.1302,-2.1168,-2.024,-2.0175,-2.1141,-2.0249,-1.9954,-2.009,-2.016,-2.0967,-2.2584,-2.2367,-2.234,-2.2818,-2.1151,-1.9834,-1.948,-1.8558,-1.8042,-1.7852,-1.7701,-1.7922,-1.8022,-1.8308,-1.8651,-1.8951,-1.9199,-1.9424,-1.9424,-1.9424,-1.9424,-1.9424,-1.9424,-1.9424,-1.9424,-1.9424,-1.9424,-1.9424,-1.9591,-1.9482,-1.9424,-1.9591,-1.9591,-1.9482,-1.9424,-1.9424,-1.9424,-1.9424,-1.9424,-1.9424,-1.9424,-1.9424,-1.9424,-1.9424,-1.9417,-1.9417,-1.9455,-1.937,-1.935,-1.9245,-1.9232,-1.9142,-1.8871,-1.8615,-1.8348,-1.813,-1.7883,-1.7769,-1.7695,-1.7602,-1.7589,-1.7589,-1.7589,-2.342,-2.3135,-2.3101,-2.3101,-2.3101,-2.3101,-2.3101,-2.3101,-2.3101,-2.3101,-2.3101,-2.3101,-2.3101,-2.3101,-2.3101,-2.3101,-2.3101,-2.3101,-2.3101,-2.3101,-2.3101,-2.3101,-2.3101,-2.3101,-2.3101,-2.3101,-2.3101,-2.3101,-2.3091,-2.3091,-2.3101,-2.3101,-2.3047,-2.3101,-2.3003,-2.3101,-2.3101,-2.3003,-2.2262,-2.1845,-2.1756,-2.0666,-2.0079,-1.9968,-1.9087,-1.8761,-1.9074,-1.9534,-1.9824,-1.9862,-2.0408,-2.1129,-2.1853,-2.1845,-2.1448,-2.0837,-2.0187,-1.9117,-1.8297,-1.7898,-1.7589,-1.7622,-1.7769,-1.7921,-1.8145,-1.8542,-1.8898,-1.9165,-1.9377,-1.9424,-1.9424,-1.9424,-1.9424,-1.9424,-1.9424,-1.9424,-1.9424,-1.9424,-1.9424,-1.9424,-1.9424,-1.9424,-1.9424,-1.9424,-1.9424,-1.9424,-1.9424,-1.9424,-1.9424,-1.9424,-1.9424,-1.9424,-1.9424,-1.9068,-1.8648,-1.8409,-1.8467,-1.8765,-1.9004,-1.9366,-1.9424,-1.9424,-1.9424,-1.9363,-1.9098,-1.8885,-1.8562,-1.8288,-1.8083,-1.7869,-1.7756,-1.7675,-1.7609,-1.7589,-1.7589,-2.3101,-2.3101,-2.3101,-2.3101,-2.3101,-2.3101,-2.3101,-2.3101,-2.3101,-2.3101,-2.3101,-2.3101,-2.3101,-2.3101,-2.3101,-2.3101,-2.3101,-2.3101,-2.3101,-2.3101,-2.3101,-2.3101,-2.3101,-2.3101,-2.3101,-2.3101,-2.3101,-2.2862,-2.2438,-2.2394,-2.2227,-2.1819,-2.1765,-2.1721,-2.1863,-2.2217,-2.2271,-2.181,-2.148,-2.1114,-2.0486,-1.9451,-1.8881,-1.8839,-1.7963,-1.7507,-1.7615,-1.8446,-1.8903,-1.8979,-1.9422,-2.0109,-2.077,-2.0436,-1.9973,-1.9679,-1.9065,-1.8447,-1.7687,-1.7641,-1.7589,-1.7635,-1.7862,-1.8102,-1.8333,-1.8695,-1.9045,-1.9363,-1.9424,-1.9424,-1.9424,-1.9424,-1.9424,-1.9424,-1.9424,-1.9424,-1.9424,-1.9424,-1.9424,-1.9424,-1.9424,-1.9424,-1.9424,-1.9424,-1.9424,-1.9424,-1.9424,-1.9424,-1.9424,-1.9424,-1.9185,-1.8823,-1.8344,-1.7929,-1.7519,-1.7396,-1.7455,-1.7929,-1.8409,-1.9004,-1.9424,-1.9424,-1.9424,-1.941,-1.9212,-1.9058,-1.8811,-1.849,-1.8217,-1.8029,-1.7842,-1.7675,-1.7589,-1.7589,-1.7589,-2.3101,-2.3101,-2.3101,-2.3101,-2.3101,-2.3101,-2.3101,-2.3101,-2.3101,-2.3003,-2.296,-2.2818,-2.2775,-2.2818,-2.2501,-2.2492,-2.2872,-2.2862,-2.2818,-2.2906,-2.3003,-2.3003,-2.2809,-2.2775,-2.2677,-2.2589,-2.2633,-2.2173,-2.1257,-2.1203,-2.0666,-1.9898,-1.9906,-1.9588,-1.9997,-2.0711,-2.0755,-2.0079,-2.0531,-2.0305,-1.9397,-1.8234,-1.7732,-1.7927,-1.7064,-1.665,-1.6964,-1.733,-1.7442,-1.7298,-1.7759,-1.8411,-1.9005,-1.8304,-1.8401,-1.922,-1.8251,-1.7845,-1.7641,-1.7589,-1.7615,-1.7669,-1.7929,-1.8176,-1.8531,-1.8838,-1.9098,-1.939,-1.9424,-1.9424,-1.9424,-1.9424,-1.9424,-1.9424,-1.9424,-1.9424,-1.9424,-1.9424,-1.9424,-1.9424,-1.9424,-1.9424,-1.9424,-1.9424,-1.9424,-1.9424,-1.9424,-1.9424,-1.9307,-1.9068,-1.8467,-1.7929,-1.7455,-1.6744,-1.6338,-1.5515,-1.5639,-1.6444,-1.7097,-1.7812,-1.8887,-1.9127,-1.9424,-1.941,-1.9383,-1.9178,-1.9011,-1.8711,-1.8424,-1.8203,-1.7976,-1.7709,-1.7589,-1.7589,-1.7589,-2.3101,-2.3101,-2.3101,-2.3101,-2.3101,-2.3101,-2.3091,-2.3091,-2.3091,-2.2545,-2.1933,-2.1756,-2.1311,-2.0494,-2.0548,-2.044,-2.0764,-2.1445,-2.1756,-2.1943,-2.2765,-2.2501,-2.1933,-2.1756,-2.1302,-2.0674,-2.0683,-2.0314,-1.9988,-1.9943,-1.9761,-1.9542,-1.9314,-1.9405,-1.9633,-1.9761,-1.9807,-1.9405,-1.881,-1.8596,-1.811,-1.6998,-1.6491,-1.6732,-1.6677,-1.6734,-1.7072,-1.7367,-1.7514,-1.7468,-1.7528,-1.774,-1.8094,-1.7786,-1.7786,-1.8048,-1.7898,-1.7589,-1.7589,-1.7589,-1.7682,-1.7869,-1.817,-1.8484,-1.8784,-1.9078,-1.9265,-1.9424,-1.9424,-1.9424,-1.9424,-1.9424,-1.9424,-1.9424,-1.9424,-1.9424,-1.9424,-1.9424,-1.9424,-1.9424,-1.9424,-1.9366,-1.9243,-1.9243,-1.9185,-1.9185,-1.9068,-1.9068,-1.8648,-1.8046,-1.7155,-1.7114,-1.6649,-1.5817,-1.5025,-1.4079,-1.395,-1.4767,-1.5429,-1.6079,-1.739,-1.8525,-1.9004,-1.9424,-1.9417,-1.9252,-1.9178,-1.9005,-1.8718,-1.8397,-1.8116,-1.7862,-1.7662,-1.7595,-1.7589,-2.3101,-2.3101,-2.3101,-2.3101,-2.3101,-2.3101,-2.2809,-2.2403,-2.2306,-2.1667,-2.0755,-2.0531,-2.0169,-1.9534,-1.9542,-1.9497,-1.9625,-2.0215,-2.0531,-2.0621,-2.1221,-2.14,-2.1177,-2.0898,-2.0147,-1.9588,-1.9463,-1.9234,-1.8834,-1.8726,-1.8495,-1.794,-1.794,-1.7933,-1.7894,-1.8495,-1.8449,-1.8033,-1.763,-1.7557,-1.7089,-1.6436,-1.6363,-1.661,-1.6827,-1.7085,-1.7367,-1.7554,-1.7582,-1.7582,-1.7589,-1.7589,-1.7589,-1.7589,-1.7589,-1.7589,-1.7589,-1.7589,-1.7589,-1.7589,-1.7729,-1.7969,-1.8323,-1.8611,-1.8891,-1.9192,-1.9424,-1.9424,-1.9424,-1.9424,-1.9424,-1.9424,-1.9424,-1.9424,-1.9424,-1.9424,-1.9366,-1.9424,-1.9424,-1.9424,-1.9366,-1.9062,-1.8525,-1.8402,-1.8046,-1.7513,-1.7038,-1.7097,-1.7038,-1.638,-1.5784,-1.5505,-1.5041,-1.4028,-1.3066,-1.2132,-1.1939,-1.2744,-1.3646,-1.4237,-1.6079,-1.7624,-1.8525,-1.9004,-1.9243,-1.9403,-1.9272,-1.9158,-1.8905,-1.8591,-1.8242,-1.8002,-1.7862,-1.7722,-1.7702,-2.3003,-2.2906,-2.2906,-2.2862,-2.2633,-2.2677,-2.1943,-2.1257,-2.1123,-2.044,-1.9497,-1.9314,-1.9085,-1.9131,-1.8626,-1.8985,-1.8993,-1.9131,-1.9451,-1.9542,-1.9679,-1.9815,-2.0359,-1.9687,-1.9082,-1.8788,-1.9038,-1.8412,-1.7699,-1.7498,-1.6951,-1.6426,-1.6103,-1.592,-1.6386,-1.7037,-1.6803,-1.6433,-1.6936,-1.7006,-1.6546,-1.6337,-1.6536,-1.7018,-1.7192,-1.7347,-1.7534,-1.7589,-1.7589,-1.7589,-1.7589,-1.7589,-1.7589,-1.7589,-1.7589,-1.7589,-1.7589,-1.7589,-1.7589,-1.7595,-1.7749,-1.809,-1.8364,-1.8644,-1.8958,-1.9245,-1.9424,-1.9424,-1.9424,-1.9424,-1.9424,-1.9424,-1.9185,-1.9004,-1.9004,-1.9062,-1.8952,-1.9068,-1.9127,-1.8946,-1.8829,-1.8104,-1.7325,-1.6674,-1.6321,-1.609,-1.5671,-1.573,-1.5494,-1.4896,-1.4059,-1.3228,-1.2642,-1.1997,-1.1031,-1.0119,-1.0233,-1.06,-1.1559,-1.2629,-1.4886,-1.6492,-1.7624,-1.8402,-1.8823,-1.9185,-1.9345,-1.9192,-1.9011,-1.8818,-1.8488,-1.8255,-1.8049,-1.7996,-1.7943,-2.2536,-2.1702,-2.1702,-2.1123,-2.0359,-2.0268,-2.0178,-1.9898,-1.9898,-1.9222,-1.8272,-1.8095,-1.7537,-1.6702,-1.6835,-1.6608,-1.6936,-1.7677,-1.8549,-1.936,-1.8457,-1.8234,-1.8503,-1.8133,-1.7567,-1.7037,-1.6636,-1.6501,-1.6292,-1.6339,-1.6109,-1.5872,-1.5825,-1.5825,-1.592,-1.6109,-1.615,-1.5879,-1.615,-1.632,-1.6392,-1.6319,-1.663,-1.7179,-1.7414,-1.7554,-1.7615,-1.7589,-1.7589,-1.7589,-1.7589,-1.7589,-1.7589,-1.7589,-1.7602,-1.7622,-1.7609,-1.7602,-1.7602,-1.7669,-1.7836,-1.8337,-1.8484,-1.8718,-1.9212,-1.937,-1.9424,-1.9424,-1.9424,-1.9424,-1.9424,-1.9424,-1.8765,-1.804,-1.7566,-1.7032,-1.6203,-1.6797,-1.6973,-1.6203,-1.5849,-1.5494,-1.5192,-1.5133,-1.4837,-1.4545,-1.4426,-1.4485,-1.3944,-1.3228,-1.2573,-1.1675,-1.1261,-1.0853,-1.0547,-0.9819,-0.9819,-0.9819,-1.0361,-1.0959,-1.3223,-1.5241,-1.6374,-1.7566,-1.859,-1.8887,-1.9185,-1.9339,-1.9185,-1.8991,-1.8692,-1.8374,-1.8134,-1.8125,-1.7891,-2.1898,-2.1248,-2.0711,-2.0079,-1.9542,-1.9497,-1.9177,-1.8726,-1.8642,-1.7948,-1.699,-1.6803,-1.6386,-1.5832,-1.5825,-1.5825,-1.592,-1.6433,-1.7124,-1.7529,-1.703,-1.685,-1.681,-1.6803,-1.6386,-1.5825,-1.5825,-1.5825,-1.5825,-1.5825,-1.5872,-1.5825,-1.5825,-1.5825,-1.5825,-1.5825,-1.5872,-1.5825,-1.5838,-1.6032,-1.6406,-1.6486,-1.6754,-1.7293,-1.7502,-1.7589,-1.7589,-1.7589,-1.7589,-1.7589,-1.7589,-1.7589,-1.7589,-1.7595,-1.7649,-1.7782,-1.7802,-1.7889,-1.7956,-1.8036,-1.8223,-1.8588,-1.8684,-1.8938,-1.9296,-1.9424,-1.9424,-1.9424,-1.9424,-1.9424,-1.9359,-1.8525,-1.7806,-1.7149,-1.6315,-1.5246,-1.4123,-1.4896,-1.5666,-1.4782,-1.4782,-1.4242,-1.3885,-1.3526,-1.2808,-1.2333,-1.1976,-1.2037,-1.1856,-1.1257,-1.1197,-1.066,-1.024,-1.0004,-0.994,-0.9819,-0.9819,-0.9819,-0.994,-1.024,-1.1257,-1.3218,-1.5063,-1.6256,-1.7507,-1.859,-1.8946,-1.9107,-1.8797,-1.8243,-1.7906,-1.8052,-1.8017,-1.7794,-1.7401,-2.1069,-2.0657,-1.9625,-1.9131,-1.894,-1.8848,-1.8265,-1.7498,-1.7412,-1.685,-1.5967,-1.5825,-1.592,-1.5825,-1.5825,-1.5825,-1.5832,-1.5832,-1.6197,-1.615,-1.6103,-1.6008,-1.6015,-1.5967,-1.5967,-1.5825,-1.5825,-1.5825,-1.5825,-1.5825,-1.5825,-1.5825,-1.5825,-1.5825,-1.5825,-1.5825,-1.5825,-1.5825,-1.5832,-1.6106,-1.6567,-1.6687,-1.6967,-1.7435,-1.7562,-1.7589,-1.7589,-1.7589,-1.7589,-1.7589,-1.7589,-1.7589,-1.7589,-1.7602,-1.7722,-1.7949,-1.7672,-1.7505,-1.7637,-1.7919,-1.8049,-1.8481,-1.8798,-1.9052,-1.9336,-1.9424,-1.9424,-1.9249,-1.9127,-1.8642,-1.8583,-1.7455,-1.6556,-1.5956,-1.4891,-1.3586,-1.2513,-1.3112,-1.3467,-1.3586,-1.3053,-1.2513,-1.2157,-1.1796,-1.0899,-1.0179,-0.994,-0.9819,-0.9819,-0.9819,-1.0061,-1.0183,-0.994,-0.9822,-0.9819,-0.9819,-0.9819,-0.9819,-0.9819,-0.9879,-1.0001,-1.1253,-1.3159,-1.5004,-1.6256,-1.7214,-1.7753,-1.7513,-1.7255,-1.6991,-1.6868,-1.6733,-1.6942,-1.727,-1.675,-2.0124,-1.8272,-1.8095,-1.7397,-1.652,-1.6426,-1.6426,-1.6157,-1.6204,-1.6015,-1.5825,-1.5825,-1.5825,-1.5825,-1.5825,-1.5825,-1.5825,-1.5825,-1.5825,-1.5825,-1.5825,-1.5825,-1.5825,-1.5825,-1.5825,-1.5825,-1.5825,-1.5825,-1.5825,-1.5825,-1.5825,-1.5825,-1.5825,-1.5825,-1.5825,-1.5825,-1.5825,-1.5838,-1.5872,-1.6172,-1.6573,-1.6807,-1.7021,-1.7535,-1.7589,-1.7589,-1.7589,-1.7589,-1.7589,-1.7589,-1.7589,-1.7589,-1.7589,-1.7589,-1.7696,-1.7557,-1.6867,-1.6551,-1.6582,-1.6532,-1.6639,-1.7092,-1.7843,-1.8779,-1.9099,-1.9185,-1.8829,-1.8706,-1.787,-1.6909,-1.5553,-1.5252,-1.4361,-1.3462,-1.2808,-1.2037,-1.0838,-1.0717,-1.1076,-1.1318,-1.102,-1.0899,-1.0838,-1.0721,-1.0361,-0.9997,-0.9879,-0.9819,-0.9819,-0.9819,-0.9879,-0.9879,-0.9819,-0.9819,-0.9819,-0.9819,-0.9819,-0.9819,-0.9819,-0.9819,-0.9879,-0.9879,-1.1193,-1.2984,-1.4356,-1.5252,-1.5553,-1.5849,-1.5607,-1.5231,-1.5268,-1.536,-1.5445,-1.5527,-1.5412,-1.936,-1.7638,-1.699,-1.6393,-1.5872,-1.5825,-1.5825,-1.5825,-1.5825,-1.5825,-1.5825,-1.5825,-1.5825,-1.5825,-1.5825,-1.5825,-1.5825,-1.5825,-1.5825,-1.5825,-1.5825,-1.5825,-1.5825,-1.5825,-1.5825,-1.5825,-1.5825,-1.5825,-1.5825,-1.5825,-1.5825,-1.5825,-1.5825,-1.5825,-1.5825,-1.5825,-1.5778,-1.5804,-1.5937,-1.6211,-1.672,-1.6947,-1.7341,-1.7488,-1.7589,-1.7589,-1.7589,-1.7589,-1.7589,-1.7589,-1.7589,-1.7589,-1.7529,-1.747,-1.7349,-1.6917,-1.6226,-1.5625,-1.541,-1.5324,-1.54,-1.5529,-1.6378,-1.6669,-1.688,-1.6797,-1.7038,-1.6738,-1.6503,-1.5488,-1.4782,-1.3825,-1.2993,-1.2333,-1.1555,-1.0657,-1.0058,-0.9819,-0.9819,-0.9819,-1.0058,-1.024,-1.0058,-1.0001,-0.9879,-0.9819,-0.9819,-0.9819,-0.9819,-0.9842,-0.9852,-0.9839,-0.9839,-0.9819,-0.9832,-0.9849,-0.9829,-0.9822,-0.9869,-0.9869,-0.9852,-0.9866,-1.0021,-1.0955,-1.2093,-1.3481,-1.4426,-1.5084,-1.4307,-1.3655,-1.4108,-1.4336,-1.393,-1.376,-1.3706,-1.8449,-1.7225,-1.6251,-1.5825,-1.5825,-1.5825,-1.5825,-1.5825,-1.5825,-1.5825,-1.5825,-1.5825,-1.5825,-1.5825,-1.5825,-1.5825,-1.5825,-1.5825,-1.5825,-1.5825,-1.5825,-1.5825,-1.5825,-1.5825,-1.5825,-1.5825,-1.5825,-1.5825,-1.5825,-1.5825,-1.5825,-1.5825,-1.5825,-1.5825,-1.5825,-1.5439,-1.554,-1.5823,-1.5774,-1.6068,-1.679,-1.7288,-1.7589,-1.7589,-1.7589,-1.7589,-1.7589,-1.7153,-1.6988,-1.6876,-1.677,-1.6605,-1.6664,-1.6717,-1.624,-1.54,-1.5378,-1.5031,-1.4377,-1.4015,-1.3991,-1.4074,-1.447,-1.4663,-1.4782,-1.5079,-1.4718,-1.4247,-1.4123,-1.3825,-1.3112,-1.2457,-1.1796,-1.1438,-1.0539,-0.9819,-0.9819,-0.9819,-0.9819,-0.9819,-0.9819,-0.9819,-0.9819,-0.9819,-0.9819,-0.9819,-0.9819,-0.9819,-0.9829,-0.9897,-0.9907,-0.988,-0.9859,-0.9829,-0.9842,-0.989,-0.9859,-0.9822,-0.993,-1.0002,-0.9964,-0.9934,-1.0108,-1.0316,-1.0823,-1.2204,-1.3244,-1.3684,-1.2621,-1.2203,-1.3015,-1.3057,-1.2277,-1.2097,-1.2153,-1.7171,-1.6015,-1.5872,-1.5825,-1.5825,-1.5825,-1.5825,-1.5825,-1.5825,-1.5825,-1.5825,-1.5825,-1.5825,-1.5825,-1.5825,-1.5825,-1.5825,-1.5825,-1.5825,-1.5825,-1.5825,-1.5825,-1.5825,-1.5825,-1.5825,-1.573,-1.573,-1.5825,-1.5629,-1.5629,-1.5683,-1.5635,-1.5439,-1.5683,-1.5146,-1.4513,-1.4752,-1.5389,-1.4966,-1.5351,-1.6657,-1.7173,-1.7364,-1.7364,-1.7424,-1.7259,-1.7041,-1.634,-1.5849,-1.5524,-1.4502,-1.3965,-1.3804,-1.3798,-1.3059,-1.2668,-1.2842,-1.3385,-1.2543,-1.2355,-1.2374,-1.2718,-1.3467,-1.4307,-1.4068,-1.3949,-1.3531,-1.2513,-1.2453,-1.2032,-1.1201,-1.0418,-1.0119,-1.024,-1.0061,-0.9819,-0.9819,-0.9819,-0.9819,-0.9819,-0.9819,-0.9819,-0.9819,-0.9819,-0.9819,-0.9819,-0.9822,-0.9829,-0.9869,-0.9958,-1.0019,-1.0012,-0.9947,-0.9907,-0.993,-0.9968,-0.9958,-0.9886,-0.9998,-1.0127,-1.0093,-1.0073,-1.0154,-1.0426,-1.0737,-1.0771,-1.139,-1.1371,-1.0559,-1.0786,-1.1551,-1.1115,-1.0243,-1.0368,-1.0966,-1.6292,-1.5825,-1.5825,-1.5825,-1.5825,-1.5825,-1.5825,-1.5825,-1.5825,-1.5825,-1.5825,-1.5825,-1.5825,-1.5825,-1.5825,-1.5825,-1.5825,-1.5825,-1.5825,-1.5825,-1.5825,-1.5778,-1.5825,-1.5825,-1.5825,-1.5439,-1.5099,-1.4657,-1.4704,-1.4704,-1.4711,-1.4609,-1.4034,-1.3451,-1.3836,-1.3102,-1.3108,-1.3562,-1.3952,-1.4418,-1.4969,-1.5565,-1.5804,-1.5299,-1.5956,-1.5902,-1.5417,-1.5583,-1.4877,-1.4395,-1.3485,-1.3318,-1.3318,-1.3215,-1.2727,-1.1469,-1.1775,-1.1625,-1.0813,-1.0701,-1.0804,-1.091,-1.1555,-1.1675,-1.1916,-1.1976,-1.1856,-1.0959,-1.0838,-1.0479,-1.0001,-0.9819,-0.9819,-0.9819,-0.9819,-0.9819,-0.9819,-0.9819,-0.9819,-0.9819,-0.9819,-0.9819,-0.9819,-0.9819,-0.9822,-0.9825,-0.9859,-0.99,-0.9981,-1.01,-1.0151,-1.0181,-1.0097,-1.0008,-1.0049,-1.009,-1.011,-1.008,-1.0134,-1.0229,-1.0215,-1.0236,-1.0314,-1.031,-1.0443,-1.0366,-1.0062,-1.0139,-1.0301,-1.0176,-1.0065,-1.0,-1.0012,-1.0128,-1.0603,-1.5825,-1.5825,-1.5825,-1.5825,-1.5825,-1.5825,-1.5825,-1.5825,-1.5825,-1.5825,-1.5825,-1.5825,-1.5825,-1.5825,-1.5825,-1.5825,-1.5825,-1.5825,-1.5825,-1.5825,-1.5778,-1.5588,-1.5289,-1.5242,-1.5051,-1.4854,-1.3788,-1.3445,-1.3295,-1.3102,-1.2958,-1.3343,-1.2721,-1.2188,-1.1901,-1.1663,-1.158,-1.1776,-1.3034,-1.3478,-1.3444,-1.4058,-1.3979,-1.3885,-1.4083,-1.4395,-1.3642,-1.3642,-1.348,-1.2994,-1.2132,-1.181,-1.186,-1.1705,-1.1426,-1.0599,-1.0631,-1.0439,-0.9982,-0.9762,-0.9659,-0.9754,-0.9819,-1.024,-1.0119,-0.9819,-0.9819,-1.0001,-1.0001,-0.994,-0.9819,-0.9819,-0.9819,-0.9819,-0.9819,-0.9819,-0.9819,-0.9819,-0.9819,-0.9819,-0.9819,-0.9819,-0.9819,-0.9819,-0.9822,-0.9768,-0.988,-0.9964,-1.0093,-1.0243,-1.028,-1.031,-1.0222,-1.0141,-1.0168,-1.0209,-1.0226,-1.027,-1.0324,-1.0348,-1.0348,-1.0388,-1.046,-1.0422,-1.0365,-1.0419,-1.0354,-1.0321,-1.029,-1.0283,-1.0276,-1.0256,-1.0246,-1.0354,-1.0287,-1.5825,-1.5825,-1.5825,-1.5825,-1.5825,-1.5825,-1.5825,-1.5825,-1.5825,-1.5825,-1.5825,-1.5825,-1.5825,-1.5778,-1.5629,-1.5629,-1.573,-1.5778,-1.5486,-1.5486,-1.5683,-1.4854,-1.4316,-1.3878,-1.3494,-1.2624,-1.2188,-1.2086,-1.175,-1.0965,-1.1258,-1.1799,-1.1312,-1.1702,-1.1361,-1.0489,-1.0263,-1.0586,-1.176,-1.245,-1.2458,-1.2831,-1.2921,-1.2891,-1.3143,-1.3372,-1.3215,-1.2349,-1.1647,-1.1269,-1.0402,-0.986,-1.0025,-1.0,-0.9783,-0.9741,-0.9691,-0.9645,-0.9569,-0.9544,-0.9581,-0.9727,-0.9819,-0.9819,-0.9819,-0.9819,-0.9819,-0.9819,-0.9819,-0.9819,-0.9819,-0.9819,-0.9819,-0.9819,-0.9819,-0.9819,-0.9819,-0.9819,-0.9819,-0.9819,-0.9819,-0.9819,-0.9852,-0.9859,-0.9886,-0.9835,-1.007,-1.0161,-1.0266,-1.0388,-1.0412,-1.0415,-1.0337,-1.029,-1.0297,-1.0327,-1.0368,-1.0429,-1.049,-1.0497,-1.0493,-1.0551,-1.0585,-1.0602,-1.0571,-1.0643,-1.0666,-1.0531,-1.0436,-1.0561,-1.0555,-1.048,-1.0395,-1.0402,-1.0378,-1.5825,-1.5825,-1.5825,-1.5825,-1.5825,-1.5825,-1.5825,-1.5825,-1.5825,-1.5825,-1.5825,-1.5825,-1.5825,-1.5581,-1.4902,-1.4657,-1.4507,-1.3692,-1.3596,-1.3403,-1.3258,-1.3108,-1.2673,-1.2624,-1.2382,-1.1707,-1.1165,-1.073,-1.0583,-0.9509,-0.9114,-0.9406,-0.9747,-0.9456,-0.9164,-0.9213,-0.9015,-0.9287,-1.0075,-1.0747,-1.0229,-1.0966,-1.1068,-1.0408,-1.1594,-1.1311,-1.0785,-1.1055,-1.0511,-0.986,-0.921,-0.8995,-0.8967,-0.9018,-0.9096,-0.9234,-0.9245,-0.9405,-0.9561,-0.9564,-0.9622,-0.9751,-0.9819,-0.9819,-0.9819,-0.9819,-0.9819,-0.9819,-0.9819,-0.9819,-0.9819,-0.9819,-0.9819,-0.9819,-0.9819,-0.9819,-0.9819,-0.9819,-0.9819,-0.9819,-0.9819,-0.9819,-0.9863,-0.991,-0.9944,-0.9926,-1.0181,-1.0354,-1.0446,-1.0521,-1.0541,-1.0538,-1.047,-1.0473,-1.0483,-1.05,-1.0514,-1.0571,-1.0636,-1.0619,-1.0605,-1.0643,-1.0677,-1.0714,-1.0721,-1.0707,-1.0677,-1.0616,-1.0578,-1.0633,-1.0644,-1.0588,-1.0561,-1.0521,-1.05,-1.5825,-1.5825,-1.5825,-1.5825,-1.5825,-1.5825,-1.5825,-1.5825,-1.5825,-1.5825,-1.5778,-1.5486,-1.5242,-1.4854,-1.3932,-1.3301,-1.3108,-1.2528,-1.2139,-1.2091,-1.2139,-1.1702,-1.1458,-1.1219,-1.1023,-1.0681,-1.0047,-0.941,-0.9365,-0.8432,-0.8283,-0.8233,-0.7988,-0.8134,-0.8134,-0.7988,-0.7988,-0.8283,-0.8691,-0.9111,-0.8516,-0.9209,-0.9653,-0.8976,-0.9946,-1.0069,-0.9644,-0.9805,-0.9864,-0.9316,-0.8944,-0.8964,-0.9022,-0.9152,-0.9248,-0.9347,-0.9388,-0.9517,-0.9622,-0.9683,-0.9717,-0.9805,-0.9819,-0.9819,-0.9819,-0.9819,-0.9819,-0.9819,-0.9819,-0.9819,-0.9819,-0.9819,-0.9819,-0.9819,-0.9819,-0.9819,-0.9819,-0.9819,-0.9819,-0.9819,-0.9825,-0.9842,-0.9995,-1.007,-1.0175,-1.0205,-1.0297,-1.0456,-1.0561,-1.0626,-1.066,-1.0649,-1.0612,-1.0643,-1.0683,-1.0643,-1.0605,-1.0629,-1.0683,-1.0694,-1.0697,-1.0721,-1.0721,-1.0721,-1.0721,-1.0721,-1.0697,-1.066,-1.0673,-1.07,-1.069,-1.0666,-1.0666,-1.0626,-1.0653,-1.5825,-1.5825,-1.5825,-1.5825,-1.5825,-1.5825,-1.5825,-1.5825,-1.5825,-1.5825,-1.5629,-1.4704,-1.4118,-1.3782,-1.2721,-1.1989,-1.1848,-1.1658,-1.1409,-1.1263,-1.1116,-1.0877,-1.0386,-0.9899,-0.9608,-0.8432,-0.8283,-0.8382,-0.8237,-0.8137,-0.7988,-0.7988,-0.7988,-0.7988,-0.7988,-0.7988,-0.7988,-0.8045,-0.8155,-0.8182,-0.8278,-0.8595,-0.8678,-0.8771,-0.9019,-0.9154,-0.9154,-0.9154,-0.921,-0.8992,-0.8937,-0.8991,-0.9166,-0.921,-0.935,-0.9527,-0.9574,-0.9669,-0.9788,-0.9808,-0.9812,-0.9815,-0.9819,-0.9819,-0.9819,-0.9819,-0.9819,-0.9819,-0.9819,-0.9819,-0.9819,-0.9819,-0.9819,-0.9819,-0.9819,-0.9819,-0.9819,-0.9819,-0.9819,-0.9819,-0.9836,-0.9886,-1.0086,-1.0256,-1.0399,-1.0463,-1.0477,-1.0555,-1.0653,-1.0694,-1.0717,-1.0707,-1.068,-1.069,-1.0707,-1.0714,-1.0704,-1.0721,-1.0721,-1.0721,-1.0721,-1.0721,-1.0721,-1.0721,-1.0721,-1.0721,-1.0721,-1.0714,-1.0721,-1.0721,-1.0721,-1.0707,-1.0717,-1.0721,-1.0721,-1.5825,-1.5825,-1.5825,-1.5825,-1.5825,-1.5825,-1.5825,-1.5825,-1.5825,-1.5778,-1.5534,-1.4465,-1.3878,-1.3295,-1.1697,-1.0632,-1.0534,-0.9509,-0.9312,-0.941,-0.9509,-0.9118,-0.8775,-0.8775,-0.8482,-0.8137,-0.7988,-0.7988,-0.8038,-0.7988,-0.7988,-0.7988,-0.7988,-0.7988,-0.7988,-0.7998,-0.8025,-0.8174,-0.8255,-0.8241,-0.834,-0.8516,-0.8628,-0.8632,-0.878,-0.8878,-0.8937,-0.8937,-0.8937,-0.8885,-0.8888,-0.9025,-0.9221,-0.9286,-0.9401,-0.9598,-0.9673,-0.9764,-0.9812,-0.9819,-0.9819,-0.9819,-0.9819,-0.9819,-0.9819,-0.9819,-0.9819,-0.9819,-0.9819,-0.9819,-0.9819,-0.9819,-0.9819,-0.9819,-0.9819,-0.9819,-0.9819,-0.9819,-0.9819,-0.9819,-0.9829,-0.9981,-1.0164,-1.0324,-1.0477,-1.0588,-1.0599,-1.0616,-1.0694,-1.0707,-1.0721,-1.0721,-1.0707,-1.0714,-1.0721,-1.0721,-1.0721,-1.0721,-1.0721,-1.0721,-1.0721,-1.0721,-1.0721,-1.0721,-1.0721,-1.0721,-1.0721,-1.0721,-1.0721,-1.0721,-1.0721,-1.0721,-1.0721,-1.0721,-1.0721,-1.5391,-1.5784,-1.5825,-1.5825,-1.5825,-1.5825,-1.5581,-1.5242,-1.5092,-1.4902,-1.422,-1.3102,-1.2469,-1.1838,-1.048,-0.9316,-0.9217,-0.8531,-0.8038,-0.7988,-0.8038,-0.8137,-0.8088,-0.7988,-0.8088,-0.7988,-0.7988,-0.7988,-0.7988,-0.7988,-0.7988,-0.7988,-0.7992,-0.7988,-0.7988,-0.8002,-0.8113,-0.8211,-0.8262,-0.8323,-0.8455,-0.8601,-0.8703,-0.8743,-0.8842,-0.8937,-0.8937,-0.8937,-0.8937,-0.8892,-0.8998,-0.9076,-0.9282,-0.9378,-0.9527,-0.9673,-0.9751,-0.9815,-0.9819,-0.9819,-0.9819,-0.9819,-0.9819,-0.9819,-0.9819,-0.9819,-0.9819,-0.9819,-0.9819,-0.9819,-0.9819,-0.9819,-0.9819,-0.9819,-0.9819,-0.9819,-0.9822,-0.9822,-0.9829,-0.9825,-0.9856,-1.0032,-1.0222,-1.0378,-1.0531,-1.0626,-1.0711,-1.0721,-1.0721,-1.0721,-1.0721,-1.0721,-1.0721,-1.0721,-1.0721,-1.0721,-1.0721,-1.0721,-1.0721,-1.0721,-1.0721,-1.0721,-1.0721,-1.0721,-1.0721,-1.0721,-1.0721,-1.0721,-1.0721,-1.0721,-1.0721,-1.0721,-1.0721,-1.0721,-1.0721,-1.4657,-1.5683,-1.5778,-1.5778,-1.573,-1.5439,-1.4854,-1.3974,-1.3872,-1.3151,-1.1994,-1.0925,-1.0534,-0.9998,-0.8676,-0.8184,-0.8237,-0.8038,-0.8038,-0.7988,-0.7988,-0.7988,-0.7988,-0.7988,-0.7988,-0.7988,-0.7988,-0.7988,-0.7988,-0.7988,-0.7988,-0.7998,-0.8025,-0.8032,-0.8035,-0.8126,-0.8194,-0.8289,-0.8326,-0.8425,-0.8584,-0.8676,-0.8747,-0.8798,-0.8869,-0.8927,-0.8937,-0.8937,-0.8937,-0.8977,-0.9062,-0.9268,-0.9367,-0.9523,-0.9669,-0.9774,-0.9812,-0.9819,-0.9819,-0.9819,-0.9819,-0.9819,-0.9819,-0.9819,-0.9819,-0.9819,-0.9819,-0.9819,-0.9819,-0.9819,-0.9819,-0.9819,-0.9819,-0.9819,-0.9819,-0.9822,-0.9825,-0.9829,-0.9836,-0.9846,-0.9856,-0.9995,-1.0226,-1.0405,-1.0544,-1.0649,-1.0721,-1.0721,-1.0721,-1.0721,-1.0721,-1.0721,-1.0721,-1.0721,-1.0721,-1.0721,-1.0721,-1.0721,-1.0721,-1.0721,-1.0721,-1.0721,-1.0721,-1.0721,-1.0721,-1.0721,-1.0721,-1.0721,-1.0721,-1.0721,-1.0721,-1.0721,-1.0721,-1.0721,-1.0721,-1.4118,-1.4555,-1.5391,-1.5296,-1.4364,-1.3445,-1.3301,-1.3728,-1.2958,-1.2188,-1.1799,-1.0534,-0.9899,-0.9854,-0.8627,-0.8137,-0.7988,-0.7988,-0.7988,-0.7988,-0.7988,-0.7988,-0.7988,-0.7988,-0.7988,-0.7988,-0.7988,-0.7988,-0.7988,-0.7988,-0.7988,-0.7995,-0.8136,-0.8174,-0.8221,-0.8296,-0.836,-0.8408,-0.8421,-0.856,-0.8713,-0.8821,-0.8852,-0.8882,-0.8899,-0.8937,-0.8937,-0.8937,-0.8937,-0.8964,-0.9079,-0.9279,-0.9374,-0.9523,-0.9669,-0.9795,-0.9819,-0.9819,-0.9819,-0.9819,-0.9819,-0.9819,-0.9819,-0.9819,-0.9819,-0.9819,-0.9819,-0.9819,-0.9819,-0.9819,-0.9819,-0.9819,-0.9819,-0.9819,-0.9836,-0.9863,-0.988,-0.9941,-0.9944,-0.9927,-0.9937,-1.0066,-1.0287,-1.0405,-1.0541,-1.0656,-1.0721,-1.0721,-1.0721,-1.0721,-1.0721,-1.0721,-1.0721,-1.0721,-1.0721,-1.0721,-1.0721,-1.0721,-1.0721,-1.0721,-1.0721,-1.0721,-1.0721,-1.0721,-1.0721,-1.0721,-1.0721,-1.0721,-1.0721,-1.0721,-1.0721,-1.0721,-1.0721,-1.0721,-1.0721,-1.3108,-1.3295,-1.4513,-1.4322,-1.3006,-1.1702,-1.1653,-1.2129,-1.1502,-1.0925,-1.0284,-0.9505,-0.9213,-0.9069,-0.8333,-0.7988,-0.7988,-0.7988,-0.7988,-0.7988,-0.7988,-0.7988,-0.7988,-0.7988,-0.7988,-0.7988,-0.7988,-0.7988,-0.7988,-0.7988,-0.7988,-0.8002,-0.8197,-0.8255,-0.8299,-0.8381,-0.8499,-0.8543,-0.8604,-0.873,-0.8842,-0.8937,-0.8937,-0.8937,-0.8937,-0.8937,-0.8937,-0.8937,-0.8937,-0.8957,-0.9076,-0.9279,-0.9391,-0.9568,-0.9707,-0.9819,-0.9819,-0.9819,-0.9819,-0.9819,-0.9819,-0.9819,-0.9819,-0.9819,-0.9819,-0.9819,-0.9819,-0.9819,-0.9819,-0.9819,-0.9819,-0.9819,-0.9819,-0.9819,-0.9866,-0.9852,-0.9988,-1.0066,-1.0063,-1.0042,-1.0103,-1.0212,-1.0334,-1.0436,-1.0538,-1.066,-1.0721,-1.0721,-1.0721,-1.0721,-1.0721,-1.0721,-1.0721,-1.0721,-1.0721,-1.0721,-1.0721,-1.0721,-1.0721,-1.0721,-1.0721,-1.0721,-1.0721,-1.0721,-1.0721,-1.0721,-1.0721,-1.0721,-1.0721,-1.0721,-1.0721,-1.0721,-1.0721,-1.0721,-1.0721,-1.1848,-1.1848,-1.306,-1.2813,-1.1653,-1.0386,-0.985,-0.985,-0.985,-0.9213,-0.8287,-0.8088,-0.8134,-0.8283,-0.8038,-0.7988,-0.7988,-0.7988,-0.7988,-0.7988,-0.7988,-0.7988,-0.7988,-0.7988,-0.7988,-0.7988,-0.7988,-0.7988,-0.7988,-0.7995,-0.8002,-0.8062,-0.8225,-0.833,-0.8397,-0.852,-0.8642,-0.8713,-0.874,-0.8808,-0.8889,-0.8937,-0.8937,-0.8937,-0.8937,-0.8937,-0.8937,-0.8937,-0.8937,-0.8988,-0.9079,-0.9222,-0.9449,-0.9649,-0.9778,-0.9815,-0.9819,-0.9819,-0.9819,-0.9819,-0.9819,-0.9819,-0.9819,-0.9819,-0.9819,-0.9819,-0.9819,-0.9819,-0.9819,-0.9819,-0.9819,-0.9829,-0.9832,-0.9883,-0.9886,-1.0015,-1.01,-1.0171,-1.0205,-1.0188,-1.0205,-1.031,-1.0399,-1.0497,-1.0551,-1.0666,-1.0721,-1.0721,-1.0721,-1.0721,-1.0721,-1.0721,-1.0721,-1.0721,-1.0721,-1.0721,-1.0721,-1.0721,-1.0721,-1.0721,-1.0721,-1.0721,-1.0721,-1.0721,-1.0721,-1.0721,-1.0721,-1.0721,-1.0721,-1.0721,-1.0721,-1.0721,-1.0721,-1.0721,-1.0721,-1.1317,-1.0489,-1.0823,-1.073,-1.0288,-0.9019,-0.8528,-0.8482,-0.8482,-0.8333,-0.8038,-0.7988,-0.7988,-0.7988,-0.7988,-0.7988,-0.7988,-0.7988,-0.7988,-0.7988,-0.7988,-0.7988,-0.7988,-0.7988,-0.7988,-0.7988,-0.7988,-0.7988,-0.7988,-0.8002,-0.8109,-0.8214,-0.835,-0.8445,-0.8567,-0.8706,-0.8811,-0.8801,-0.8807,-0.8817,-0.8923,-0.8937,-0.8937,-0.8937,-0.8937,-0.8937,-0.8937,-0.8937,-0.8937,-0.8964,-0.9079,-0.9283,-0.9544,-0.9724,-0.9808,-0.9819,-0.9819,-0.9819,-0.9819,-0.9819,-0.9819,-0.9819,-0.9819,-0.9819,-0.9819,-0.9819,-0.9819,-0.9819,-0.9819,-0.9819,-0.9822,-0.9832,-0.9852,-0.9937,-0.998,-1.0127,-1.0215,-1.0287,-1.0348,-1.0348,-1.0337,-1.0395,-1.048,-1.0534,-1.0585,-1.0643,-1.0697,-1.0721,-1.0721,-1.0721,-1.0721,-1.0721,-1.0721,-1.0721,-1.0721,-1.0721,-1.0721,-1.0721,-1.0721,-1.0721,-1.0721,-1.0721,-1.0721,-1.0721,-1.0721,-1.0721,-1.0721,-1.0721,-1.0721,-1.0721,-1.0721,-1.0721,-1.0721,-1.0721,-1.0721,-1.0288,-0.9167,-0.9118,-0.9114,-0.8973,-0.8287,-0.7988,-0.7988,-0.7988,-0.7988,-0.7988,-0.7988,-0.7988,-0.7988,-0.7988,-0.7988,-0.7988,-0.7988,-0.7988,-0.7988,-0.7988,-0.7988,-0.7988,-0.7988,-0.7988,-0.7988,-0.7988,-0.7988,-0.7988,-0.8002,-0.8116,-0.8327,-0.8418,-0.8567,-0.8716,-0.8852,-0.8937,-0.8933,-0.8937,-0.8937,-0.8937,-0.8937,-0.8937,-0.8937,-0.8937,-0.8937,-0.8937,-0.8937,-0.8937,-0.9008,-0.9144,-0.9286,-0.951,-0.9696,-0.9802,-0.9819,-0.9819,-0.9819,-0.9819,-0.9819,-0.9819,-0.9819,-0.9819,-0.9819,-0.9819,-0.9819,-0.9819,-0.9819,-0.9819,-0.9819,-0.9819,-0.9829,-0.9832,-0.9825,-1.0093,-1.0259,-1.0395,-1.0521,-1.0555,-1.0558,-1.0548,-1.0558,-1.0619,-1.0626,-1.0666,-1.067,-1.0714,-1.0721,-1.0721,-1.0721,-1.0721,-1.0721,-1.0721,-1.0721,-1.0721,-1.0721,-1.0721,-1.0721,-1.0721,-1.0721,-1.0721,-1.0721,-1.0721,-1.0721,-1.0721,-1.0721,-1.0721,-1.0721,-1.0721,-1.0721,-1.0721,-1.0721,-1.0721,-1.0721,-1.0721,-0.9361,-0.8336,-0.8088,-0.8038,-0.7988,-0.7988,-0.7988,-0.7988,-0.7988,-0.7988,-0.7988,-0.7988,-0.7988,-0.7988,-0.7988,-0.7988,-0.7988,-0.7988,-0.7988,-0.7988,-0.7988,-0.7988,-0.7988,-0.7988,-0.7988,-0.7988,-0.7988,-0.7988,-0.7988,-0.8032,-0.8174,-0.835,-0.8494,-0.8591,-0.8737,-0.8852,-0.8937,-0.8937,-0.8937,-0.8937,-0.8937,-0.8937,-0.8937,-0.8937,-0.8937,-0.8937,-0.8937,-0.8937,-0.8937,-0.9045,-0.9198,-0.9361,-0.9507,-0.969,-0.9774,-0.9819,-0.9819,-0.9819,-0.9819,-0.9819,-0.9819,-0.9819,-0.9819,-0.9819,-0.9819,-0.9819,-0.9819,-0.9697,-0.9697,-0.9819,-0.9819,-0.9822,-0.9825,-0.991,-1.0151,-1.0361,-1.0524,-1.068,-1.0704,-1.0711,-1.0707,-1.07,-1.0704,-1.0714,-1.0714,-1.0717,-1.0721,-1.0721,-1.0721,-1.0721,-1.0721,-1.0721,-1.0721,-1.0721,-1.0721,-1.0721,-1.0721,-1.0721,-1.0721,-1.0721,-1.0721,-1.0721,-1.0721,-1.0721,-1.0721,-1.0721,-1.0721,-1.0721,-1.0721,-1.0721,-1.0721,-1.0721,-1.0721,-1.0721,-1.0721,-0.9854,-0.9505,-0.8482,-0.7988,-0.7988,-0.7988,-0.7988,-0.7988,-0.7988,-0.7988,-0.7988,-0.7988,-0.7988,-0.7988,-0.7988,-0.7988,-0.7988,-0.7988,-0.7988,-0.7988,-0.7988,-0.7988,-0.7988,-0.7988,-0.7988,-0.7988,-0.7988,-0.7988,-0.8012,-0.816,-0.8296,-0.8428,-0.8581,-0.8726,-0.8866,-0.8937,-0.8937,-0.8937,-0.8937,-0.8937,-0.8937,-0.8937,-0.8937,-0.8937,-0.8937,-0.8937,-0.8937,-0.8937,-0.8937,-0.9025,-0.9205,-0.9398,-0.9551,-0.969,-0.9791,-0.9819,-0.9819,-0.9819,-0.9819,-0.9819,-0.9819,-0.9819,-0.9819,-0.9819,-0.9819,-0.9819,-0.9697,-0.9451,-0.9511,-0.9758,-0.9819,-0.9819,-0.9836,-1.0019,-1.0236,-1.0371,-1.0517,-1.0639,-1.0714,-1.0717,-1.0714,-1.0714,-1.0714,-1.0717,-1.0717,-1.0721,-1.0721,-1.0721,-1.0721,-1.0721,-1.0721,-1.0721,-1.0721,-1.0721,-1.0721,-1.0721,-1.0721,-1.0721,-1.0721,-1.0721,-1.0721,-1.0721,-1.0721,-1.0721,-1.0721,-1.0721,-1.0721,-1.0721,-1.0721,-1.0721,-1.0721,-1.0721,-1.0721,-1.0721,-1.0721]},{"header":{"parameterUnit":"m.s-1","parameterCategory":1,"la1":31.0,"la2":29.5877,"lo1":-88.7671,"lo2":-86.6584,"dy":0.0162,"dx":0.0185,"nx":115,"ny":88,"refTime":"2024-08-16T12:00:00:Z","depth":0,"parameterNumber":3,"parameterNumberName":"V-component_of_WINDS"},"data":[0.0,0.0,0.0,0.0,0.0,0.0,0.0,0.0,0.0,0.0,0.0,0.0,0.0,0.0,0.0,0.0,0.0,0.0,0.0,0.0,0.0,0.0,0.0,0.0,0.0,0.0,0.0,0.0,0.0,0.0,0.0,0.0,0.0,0.0,0.0,0.0,0.0,0.0,0.0,0.0,0.0,0.0,0.0,0.0,0.0,0.0,0.0,0.0,0.0,0.0,0.0,0.0,0.0,0.0,0.0,0.0,0.0,0.0,0.0,0.0,0.0,0.0,0.0,0.0,0.0,0.0,0.0,0.0,0.0,0.0,0.0,0.0,0.0,0.0,0.0,0.0,0.0,0.0,0.0,0.0,0.0,0.0,0.0,0.0,0.0,0.0,0.0,0.0,0.0,0.0,0.0,0.0,0.0,0.0,0.0,0.0,0.0,0.0,0.0,0.0,0.0,0.0,0.0,0.0,0.0,0.0,0.0,0.0,0.0,0.0,0.0,0.0,0.0,0.0,0.0,0.0,0.0,0.0,0.0,0.0,0.0,0.0,0.0,0.0,0.0,0.0,0.0,0.0,0.0,0.0,0.0,0.0,0.0,0.0,0.0,0.0,0.0,0.0,0.0,0.0,0.0,0.0,0.0,0.0,0.0,0.0,0.0,0.0,0.0,0.0,0.0,0.0,0.0,0.0,0.0,0.0,0.0,0.0,0.0,0.0,0.0,0.0,0.0,0.0,0.0,0.0,0.0,0.0,0.0,0.0,0.0,0.0,0.0,0.0,0.0,0.0,0.0,0.0,0.0,0.0,0.0,0.0,0.0,0.0,0.0,0.0,0.0,0.0,0.0,0.0,0.0,0.0,0.0,0.0,0.0,0.0,0.0,0.0,0.0,0.0,0.0,0.0,0.0,0.0,0.0,0.0,0.0,0.0,0.0,0.0,0.0,0.0,0.0,0.0,0.0,0.0,0.0,0.0,0.0,0.0,0.0,0.0,0.0,0.0,0.0,0.0,0.0,0.0,0.0,0.0,0.0,0.0,0.0,0.0,0.0,0.0,0.0,0.0,0.0,0.0,0.0,0.0,0.0,0.0,0.0,0.0,0.0,0.0,0.0,0.0,0.0,0.0,0.0,0.0,0.0,0.0,0.0,0.0,0.0,0.0,0.0,0.0,0.0,0.0,0.0,0.0,0.0,0.0,0.0,0.0,0.0,0.0,0.0,0.0,0.0,0.0,0.0,0.0,0.0,0.0,0.0,0.0,0.0,0.0,0.0,0.0,0.0,0.0,0.0,0.0,0.0,0.0,0.0,0.0,0.0,0.0,0.0,0.0,0.0,0.0,0.0,0.0,0.0,0.0,0.0,0.0,0.0,0.0,0.0,0.0,0.0,0.0,0.0,0.0,0.0,0.0,0.0,0.0,0.0,0.0,0.0,0.0,0.0,0.0,0.0,0.0,0.0,0.0,0.0,0.0,0.0,0.0,0.0,0.0,0.0,0.0,0.0,0.0,0.0,0.0,0.0,0.0,0.0,0.0,0.0,0.0,0.0,0.0,0.0,0.0,0.0,0.0,0.0,0.0,0.0,0.0,0.0,0.0,0.0,0.0,0.0,0.0,0.0,0.0,0.0,0.0,0.0,0.0,0.0,0.0,0.0,0.0,0.0,0.0,0.0,0.0,0.0,0.0,0.0,0.0,0.0,0.0,0.0,0.0,0.0,0.0,0.0,0.0,0.0,0.0,0.0,0.0,0.0,0.0,0.0,0.0,0.0,0.0,0.0,0.0,0.0,0.0,0.0,0.0,0.0,0.0,0.0,0.0,0.0,0.0,0.0,0.0,0.0,0.0,0.0,0.0,0.0,0.0,0.0,0.0,0.0,0.0,0.0,0.0,0.0,0.0,0.0,0.0,0.0,0.0,0.0,0.0,0.0,0.0,0.0,0.0,0.0,0.0,0.0,0.0,0.0,0.0,0.0,0.0,0.0,0.0,0.0,0.0,0.0,0.0,0.0,0.0,0.0,0.0,0.0,0.0,0.0,0.0,0.0,0.0,0.0,0.0,0.0,0.0,0.0,0.0,0.0,0.0,0.0,0.0,0.0,0.0,0.0,0.0,0.0,0.0,0.0,0.0,0.0,0.0,0.0,0.0,0.0,0.0,0.0,0.0,0.0,0.0,0.0,0.0,0.0,0.0,0.0,0.0,0.0,0.0,0.0,0.0,0.0,0.0,0.0,0.0,0.0,0.0,0.0,0.0,0.0,0.0,0.0,0.0,0.0,0.0,0.0,0.0,0.0,0.0,0.0,0.0,0.0,0.0,0.0,0.0,0.0,0.0,0.0,0.0,0.0,0.0,0.0,0.0,0.0,0.0,0.0,0.0,0.0,0.0,0.0,0.0,0.0,0.0,0.0,0.0,0.0,0.0,0.0,0.0,0.0,0.0,0.0,0.0,0.0,0.0,0.0,0.0,0.0,0.0,0.0,0.0,0.0,0.0,0.0,0.0,0.0,0.0,0.0,0.0,0.0,0.0,0.0,0.0,0.0,0.0,0.0,0.0,0.0,0.0,0.0,0.0,0.0,0.0,0.0,0.0,0.0,0.0,0.0,0.0,0.0,0.0,0.0,0.0,0.0,0.0,0.0,0.0,0.0,0.0,0.0,0.0,0.0,0.0,0.0,0.0,0.0,0.0,0.0,0.0,0.0,0.0,0.0,0.0,0.0,0.0,0.0,0.0,0.0,0.0,0.0,0.0,0.0,0.0,0.0,0.0,0.0,0.0,0.0,0.0,0.0,0.0,0.0,0.0,0.0,0.0,0.0,0.0,0.0,0.0,0.0,0.0,0.0,0.0,0.0,0.0,0.0,0.0,0.0,0.0,0.0,0.0,0.0,0.0,0.0,0.0,0.0,0.0,0.0,0.0,0.0,0.0,0.0,0.0,0.0,0.0,0.0,0.0,0.0,0.0,0.0,0.0,0.0,0.0,0.0,0.0,0.0,0.0,0.0,0.0,0.0,0.0,0.0,0.0,0.0,0.0,0.0,0.0,0.0,0.0,0.0,0.0,0.0,0.0,0.0,0.0,0.0,0.0,0.0,0.0,0.0,0.0,0.0,0.0,0.0,0.0,0.0,0.0,0.0,0.0,0.0,0.0,0.0,0.0,0.0,0.0,0.0,0.0,0.0,0.0,0.0,0.0,0.0,0.0,0.0,0.0,0.0,0.0,0.0,0.0,0.0,0.0,0.0,0.0,0.0,0.0,0.0,0.0,0.0,0.0,0.0,0.0,0.0,0.0,0.0,0.0,0.0,0.0,0.0,0.0,0.0,0.0,0.0,0.0,0.0,0.0,0.0,0.0,0.0,0.0,0.0,0.0,0.0,0.0,0.0,0.0,0.0,0.0,0.0,0.0,0.0,0.0,0.0,0.0,0.0,0.0,0.0,0.0,0.0,0.0,0.0,0.0,0.0,0.0,0.0,0.0,0.0,0.0,0.0,0.0,0.0,0.0,0.0,0.0,0.0,0.0,0.0,0.0,0.0,0.0,0.0,0.0,0.0,0.0,0.0,0.0,0.0,0.0,0.0,0.0,0.0,0.0,0.0,0.0,0.0,0.0,0.0,0.0,0.0,0.0,0.0,0.0,0.0,0.0,0.0,0.0,0.0,0.0,0.0,0.0,0.0,0.0,0.0,0.0,0.0,0.0,0.0,0.0,0.0,0.0,0.0,0.0,0.0,0.0,0.0,0.0,0.0,0.0,0.0,0.0,0.0,0.0,0.0,0.0,0.0,0.0,0.0,0.0,0.0,0.0,0.0,0.0,0.0,0.0,0.0,0.0,0.0,0.0,0.0,0.0,0.0,0.0,0.0,0.0,0.0,0.0,0.0,0.0,0.0,0.0,0.0,0.0,0.0,0.0,0.0,0.0,0.0,0.0,0.0,0.0,0.0,0.0,0.0,0.0,0.0,0.0,0.0,0.0,0.0,0.0,0.0,0.0,0.0,0.0,0.0,0.0,0.0,0.0,0.0,0.0,0.0,0.0,0.0,0.0,0.0,0.0,0.0,0.0,0.0,0.0,0.0,0.0,0.0,0.0,0.0,0.0,0.0,0.0,0.0,0.0,0.0,0.0,0.0,0.0,0.0,0.0,0.0,0.0,0.0,0.0,0.0,0.0,0.0,0.0,0.0,0.0,0.0,0.0,0.0,0.0,0.0,0.0,0.0,0.0,0.0,0.0,0.0,0.0,0.0,0.0,0.0,0.0,0.0,0.0,0.0,0.0,0.0,0.0,0.0,0.0,1.213,0.0,0.0,0.0,0.0,0.0,0.0,0.0,0.0,0.0,0.0,0.0,0.0,0.0,0.0,0.0,0.0,0.0,0.0,0.0,0.0,0.0,0.0,0.0,0.0,0.0,0.0,0.0,0.0,0.0,0.0,0.0,0.0,0.0,0.0,0.0,0.0,0.0,0.0,0.0,0.0,0.0,0.0,0.0,0.0,0.0,0.0,0.0,0.0,0.0,0.0,0.0,0.0,0.0,0.0,0.0,0.0,0.0,0.0,0.0,0.0,0.0,0.0,0.0,0.0,0.0,0.0,0.0,0.0,0.0,0.0,0.0,0.0,0.0,0.0,0.0,0.0,0.0,0.0,0.0,0.0,0.0,0.0,0.0,0.0,0.0,0.0,0.0,0.0,0.0,0.0,0.0,0.0,0.0,0.0,0.0,0.0,0.0,0.0,0.0,0.0,0.0,0.0,0.0,0.0,0.0,0.0,0.0,0.0,0.0,0.0,1.1833,1.2382,1.2627,1.2592,1.2335,0.0,0.0,0.0,0.0,0.0,0.0,0.0,0.0,0.0,0.0,0.0,0.0,0.0,0.0,0.0,0.0,0.0,0.0,0.0,0.0,0.0,0.0,0.0,0.0,0.0,0.0,0.0,0.0,0.0,0.0,0.0,0.0,0.0,0.0,0.0,0.0,0.0,0.0,0.0,0.0,0.0,0.0,0.0,0.0,0.0,0.0,0.0,0.0,0.0,0.0,0.0,0.0,0.0,0.0,0.0,0.0,0.0,0.0,0.0,0.0,0.0,0.0,0.0,0.0,0.0,0.0,0.0,0.0,0.0,0.0,0.0,0.0,0.0,0.0,0.0,0.0,0.0,0.0,0.0,0.0,0.0,0.0,0.0,0.0,0.0,0.0,0.0,0.0,0.0,0.0,0.0,0.0,0.0,0.0,0.0,0.0,0.0,0.0,0.0,0.0,0.0,0.0,0.0,0.0,0.0,0.0,0.0,0.0,0.0,0.0,0.0,0.0,1.2787,1.263,1.2739,0.0,0.0,0.0,0.0,0.0,0.0,0.0,0.0,0.0,0.0,0.0,0.0,0.0,0.0,0.0,0.0,0.0,0.0,0.0,0.0,0.0,0.0,0.0,0.0,0.0,0.0,0.0,0.0,0.0,0.0,0.0,0.0,0.0,0.0,0.0,0.0,0.0,0.0,0.0,0.0,0.0,0.0,0.0,0.0,0.0,0.0,0.0,0.0,0.0,0.0,0.0,0.0,0.0,0.0,0.0,0.0,0.0,0.0,0.0,0.0,0.0,0.0,0.0,0.0,0.0,0.0,0.0,0.0,0.0,0.0,0.0,0.0,0.0,0.0,0.0,0.0,0.0,0.0,0.0,0.0,0.0,0.0,0.0,0.0,0.0,0.0,0.0,0.0,0.0,0.0,0.0,0.0,0.0,0.0,0.0,0.0,0.0,0.0,0.0,0.0,0.0,0.0,0.0,0.0,0.0,0.0,0.0,0.0,0.0,0.0,1.2164,1.3734,1.3751,0.0,1.3141,0.0,0.0,0.0,0.0,0.0,0.0,0.0,0.0,0.0,0.0,0.0,0.0,0.0,0.0,0.0,0.0,0.0,0.0,0.0,0.0,0.0,0.0,0.0,0.0,0.0,0.0,0.0,0.0,0.0,0.0,0.0,0.0,0.0,0.0,0.0,0.0,0.0,0.0,0.0,0.0,0.0,0.0,0.0,0.0,0.0,0.0,0.0,0.0,0.0,0.0,0.0,0.0,0.0,0.0,0.0,0.0,0.0,0.0,0.0,0.0,0.0,0.0,0.0,0.0,0.0,0.0,0.0,0.0,0.0,0.0,0.0,0.0,0.0,0.0,0.0,0.0,0.0,0.0,0.0,0.0,0.0,0.0,0.0,0.0,0.0,0.0,0.0,0.0,0.0,0.0,0.0,0.0,0.0,0.0,0.0,0.0,0.0,0.0,0.0,0.0,0.0,0.0,0.0,0.0,0.0,0.0,0.0,0.0,0.0,0.0,1.2628,1.4055,1.3382,1.279,0.0,0.0,0.0,0.0,0.0,0.0,0.0,0.0,0.0,0.0,0.0,0.0,0.0,0.0,0.0,0.0,0.0,0.0,0.0,0.0,0.0,0.0,0.0,0.0,0.0,0.0,0.0,0.0,0.0,0.0,0.0,0.0,0.0,0.0,0.0,0.0,0.0,0.0,0.0,0.0,0.0,0.0,0.0,0.0,0.0,0.0,0.0,0.0,0.0,0.0,0.0,0.0,0.0,0.0,0.0,0.0,0.0,0.0,0.0,0.0,0.0,0.0,0.0,0.0,0.0,0.0,0.0,0.0,0.0,0.0,0.0,0.0,0.0,0.0,0.0,0.0,0.0,0.0,0.0,0.0,0.0,0.0,0.0,0.0,0.0,0.0,0.0,0.0,0.0,0.0,0.0,0.0,0.0,0.0,0.0,0.0,0.0,0.0,0.0,0.0,0.0,0.0,0.0,0.0,0.0,0.0,0.0,0.0,0.0,0.0,1.2401,1.2462,1.367,1.3083,1.2465,1.1934,0.0,0.0,0.0,0.0,0.0,0.0,0.0,0.0,0.0,0.0,0.0,0.0,0.0,0.0,0.0,0.0,0.0,0.0,0.0,0.0,0.0,0.0,0.0,0.0,0.0,0.0,0.0,0.0,0.0,0.0,0.0,0.0,0.0,0.0,0.0,0.0,0.0,0.0,0.0,0.0,0.0,0.0,0.0,0.0,0.0,0.0,0.0,0.0,0.0,0.0,0.0,0.0,0.0,0.0,0.0,0.0,0.0,0.0,0.0,0.0,0.0,0.0,0.0,0.0,0.0,0.0,0.0,0.0,0.0,0.0,0.0,0.0,0.0,0.0,0.0,0.0,0.0,0.0,0.0,0.0,0.0,0.0,0.0,0.0,0.0,0.0,0.0,0.0,0.0,0.0,0.0,0.0,0.0,0.0,0.0,0.0,0.0,0.0,0.0,0.0,0.0,0.0,0.0,0.0,0.0,0.0,0.0,0.0,1.5126,1.2273,1.1315,1.2621,1.3154,1.3046,0.0,0.0,0.0,0.0,0.0,0.0,0.0,0.0,0.0,0.0,0.0,0.0,0.0,0.0,0.0,0.0,0.0,0.0,0.0,0.0,0.0,0.0,0.0,0.0,0.0,0.0,0.0,0.0,0.0,0.0,0.0,0.0,0.0,0.0,0.0,0.0,0.0,0.0,0.0,0.0,0.0,0.0,0.0,0.0,0.0,0.0,0.0,0.0,0.0,0.0,0.0,0.0,0.0,0.0,0.0,0.0,0.0,0.0,0.0,0.0,0.0,0.0,0.0,0.0,0.0,0.0,0.0,0.0,0.0,0.0,0.0,0.0,0.0,0.0,0.0,0.0,0.0,0.0,0.0,0.0,0.0,0.0,0.0,0.0,0.0,0.0,0.0,0.0,0.0,0.0,0.0,0.0,0.0,0.0,0.0,0.0,0.0,0.0,0.0,0.0,0.0,0.0,0.0,0.0,0.0,0.0,0.0,0.0,0.0,1.4736,1.2287,1.1047,1.1186,1.057,1.0349,0.0,0.0,0.0,0.0,0.0,0.0,0.0,0.0,0.0,0.0,0.0,0.0,0.0,0.0,0.0,0.0,0.0,0.0,0.0,0.0,0.0,0.0,0.0,0.0,0.0,0.0,0.0,0.0,0.0,0.0,0.0,0.0,0.0,0.0,0.0,0.0,0.0,0.0,0.0,0.0,0.0,0.0,0.0,0.0,0.0,0.0,0.0,0.0,0.0,0.0,0.0,0.0,0.0,0.0,0.0,0.0,0.0,0.0,0.0,0.0,0.0,0.0,0.0,0.0,0.0,0.0,0.0,0.0,0.0,0.0,0.0,0.0,0.0,0.0,0.0,0.0,0.0,0.0,0.0,0.0,0.0,0.0,0.0,0.0,0.0,0.0,0.0,0.0,0.0,0.0,0.0,0.0,0.0,0.0,0.0,0.0,0.0,0.0,0.0,0.0,0.0,0.0,0.0,0.0,0.0,0.0,0.0,0.0,0.0,1.3089,0.0,1.029,0.0,0.8198,0.8034,0.0,0.0,0.0,0.0,0.0,0.0,0.0,0.0,0.0,0.0,0.0,0.0,0.0,0.0,0.0,0.0,0.0,0.0,0.0,0.0,0.0,0.0,0.0,0.0,0.0,0.0,0.0,0.0,0.0,0.0,0.0,0.0,0.0,0.0,0.0,0.0,0.0,0.0,0.0,0.0,0.0,0.0,0.0,0.0,0.0,0.0,0.0,0.0,0.0,0.0,0.0,0.0,0.0,0.0,0.0,0.0,0.0,0.0,0.0,0.0,0.0,0.0,0.0,0.0,0.0,0.0,0.0,0.0,0.0,0.0,0.0,0.0,0.0,0.0,0.0,0.0,0.0,0.0,0.0,0.0,0.0,0.0,0.0,0.0,0.0,0.0,0.0,0.0,0.0,0.0,0.0,0.0,0.0,0.0,0.0,0.0,0.0,0.0,0.0,0.0,0.0,0.0,0.0,0.0,0.0,0.0,0.0,0.0,1.4688,1.0294,1.0081,0.895,0.6541,0.6247,0.6416,0.0,0.0,0.0,0.0,0.0,0.0,0.0,0.0,0.0,0.0,0.0,0.0,0.0,0.0,0.0,0.0,0.0,0.0,0.0,0.0,0.0,0.0,0.0,0.0,0.0,0.0,0.0,0.0,0.0,0.0,0.0,0.0,0.0,0.0,0.0,0.0,0.0,0.0,0.0,0.0,0.0,0.0,0.0,0.0,0.0,0.0,0.0,0.0,0.0,0.0,0.0,0.0,0.0,0.0,0.0,0.0,0.0,0.0,0.0,0.0,0.0,0.0,0.0,0.0,0.0,0.0,0.0,0.0,0.0,0.0,0.0,0.0,0.0,0.0,0.0,0.0,0.0,0.0,0.0,0.0,0.0,0.0,0.0,0.0,0.0,0.0,0.0,0.0,0.0,0.0,0.0,0.0,0.0,0.0,0.0,0.0,0.0,0.0,0.0,0.0,0.0,0.0,0.0,0.0,0.0,0.0,0.0,0.0,0.0,0.9968,0.9326,0.7978,0.5813,0.4462,0.4437,0.0,0.0,0.0,0.0,0.0,0.0,0.0,0.0,0.0,0.0,0.0,0.0,0.0,0.0,0.0,0.0,0.0,0.0,0.0,0.0,0.0,0.0,0.0,0.0,0.0,0.0,0.0,0.0,0.0,0.0,0.0,0.0,0.0,0.0,0.0,0.0,0.0,0.0,0.0,0.0,0.0,0.0,0.0,0.0,0.0,0.0,0.0,0.0,0.0,0.0,0.0,0.0,0.0,0.0,0.0,0.0,0.0,0.0,0.0,0.0,0.0,0.0,0.0,0.0,0.0,0.0,0.0,0.0,0.0,0.0,0.0,0.0,0.0,0.0,0.0,0.0,0.0,0.0,0.0,0.0,0.0,0.0,0.0,0.0,0.0,0.0,0.0,0.0,0.0,0.0,0.0,0.0,0.0,0.0,0.0,0.0,0.0,0.0,0.0,0.0,0.0,0.0,0.0,0.0,0.0,0.0,0.0,0.0,0.0,1.0211,0.9399,0.7727,0.496,0.3311,0.3116,0.457,0.0,0.0,0.0,0.0,0.0,0.0,0.0,0.0,0.0,0.0,0.0,0.0,0.0,0.0,0.0,0.0,0.0,0.0,0.0,0.0,0.0,0.0,0.0,0.0,0.0,0.0,0.0,0.0,0.0,0.0,0.0,0.0,0.0,0.0,0.0,0.0,0.0,0.0,0.0,0.0,0.0,0.0,0.0,0.0,0.0,0.0,0.0,0.0,0.0,0.0,0.0,0.0,0.0,0.0,0.0,0.0,0.0,0.0,0.0,0.0,0.0,0.0,0.0,0.0,0.0,0.0,0.0,0.0,0.0,0.0,0.0,0.0,0.0,0.0,0.0,0.0,0.0,0.0,0.0,0.0,0.0,0.0,0.0,0.0,0.0,0.0,0.0,0.0,0.0,0.0,0.0,0.0,0.0,0.0,0.0,0.0,0.0,0.0,0.0,0.0,0.0,0.0,0.0,0.0,0.0,0.0,0.0,0.0,1.0682,1.0227,0.8152,0.4281,0.2835,0.2544,0.0,0.0,0.0,0.0,0.0,0.0,0.0,0.0,0.0,0.0,0.0,0.0,0.0,0.0,0.0,0.0,0.0,0.0,0.0,0.0,0.0,0.0,0.0,0.0,0.0,0.0,0.0,0.0,0.0,0.0,0.0,0.0,0.0,0.0,0.0,0.0,0.0,0.0,0.0,0.0,0.0,0.0,0.0,0.0,0.0,0.0,0.0,0.0,0.0,0.0,0.0,0.0,0.0,0.0,0.0,0.0,0.0,0.0,0.0,0.0,0.0,0.0,0.0,0.0,0.0,0.0,0.0,0.0,0.0,0.0,0.0,0.0,0.0,0.0,0.0,0.0,0.0,0.0,0.0,0.0,0.0,0.0,0.0,0.0,0.0,0.0,0.0,0.0,0.0,0.0,0.0,0.0,0.0,0.0,0.0,0.0,0.0,0.0,0.0,0.0,0.0,0.0,0.0,0.0,0.0,0.0,0.0,0.0,0.0,1.1182,1.1233,0.9477,0.5647,0.3988,0.362,0.0,0.0,0.0,0.0,0.0,0.0,0.0,0.0,0.0,0.0,0.0,0.0,0.0,0.0,0.0,0.0,0.0,0.0,0.0,0.0,0.0,0.0,0.0,0.0,0.0,0.0,0.0,0.0,0.0,0.0,0.0,0.0,0.0,0.0,0.0,0.0,0.0,0.0,0.0,0.0,0.0,0.0,0.0,0.0,0.0,0.0,0.0,0.0,0.0,0.0,0.0,0.0,0.0,0.0,0.0,0.0,0.0,0.0,0.0,0.0,0.0,0.0,0.0,0.0,0.0,0.0,0.0,0.0,0.0,0.0,0.0,0.0,0.0,0.0,0.0,0.0,0.0,0.0,0.0,0.0,0.0,0.0,0.0,0.0,0.0,0.0,0.0,0.0,0.0,0.0,0.0,0.0,0.0,0.0,0.0,0.0,0.0,0.0,0.0,0.0,0.0,0.0,0.0,0.0,0.0,0.0,0.0,0.0,1.5441,1.214,1.1428,1.0034,0.7763,0.5693,0.4676,0.0,0.0,0.0,0.0,0.0,0.0,0.0,0.0,0.0,0.0,0.0,0.0,0.0,0.0,0.0,0.0,0.0,0.0,0.0,0.0,0.0,0.0,0.0,0.0,0.0,0.0,0.0,0.0,0.0,0.0,0.0,0.0,0.0,0.0,0.0,0.0,0.0,0.0,0.0,0.0,0.0,0.0,0.0,0.0,0.0,0.0,0.0,0.0,0.0,0.0,0.0,0.0,0.0,0.0,0.0,0.0,0.0,0.0,0.0,0.0,0.0,0.0,0.0,0.0,0.0,0.0,0.0,0.0,0.0,0.0,0.0,0.0,0.0,0.0,0.0,0.0,0.0,0.0,0.0,0.0,0.0,0.0,0.0,0.0,0.0,0.0,0.0,0.0,0.0,0.0,0.0,0.0,0.0,0.0,0.0,0.0,0.0,0.0,0.0,0.0,0.0,0.0,0.0,0.0,0.0,0.0,0.0,0.0,1.5542,1.3432,1.1438,1.0293,0.994,0.7474,0.5847,0.0,0.0,0.0,0.0,0.0,0.0,0.0,0.0,0.0,0.0,0.0,0.0,0.0,0.0,0.0,0.0,0.0,0.0,0.0,0.0,0.0,0.0,0.0,0.0,0.0,0.0,0.0,0.0,0.0,0.0,0.0,0.0,0.0,0.0,0.0,0.0,0.0,0.0,0.0,0.0,0.0,0.0,0.0,0.0,0.0,0.0,0.0,0.0,0.0,0.0,0.0,0.0,0.0,0.0,0.0,0.0,0.0,0.0,0.0,0.0,0.0,0.0,0.0,0.0,0.0,0.0,0.0,0.0,0.0,0.0,0.0,0.0,0.0,0.0,0.0,0.0,0.0,0.0,0.0,0.0,0.0,0.0,0.0,0.0,0.0,0.0,0.0,0.0,0.0,0.0,0.0,0.0,0.0,0.0,0.0,0.0,0.0,0.0,0.0,0.0,0.0,0.0,0.0,0.0,0.0,0.0,0.0,0.0,1.6682,1.3485,1.3214,1.2081,1.0043,0.8142,0.6979,0.0,0.0,0.0,0.0,0.0,0.0,0.0,0.0,0.0,0.0,0.0,0.0,0.0,0.0,0.0,0.0,0.0,0.0,0.0,0.0,0.0,0.0,0.0,0.0,0.0,0.0,0.0,0.0,0.0,0.0,0.0,0.0,0.0,0.0,0.0,0.0,0.0,0.0,0.0,0.0,0.0,0.0,0.0,0.0,0.0,0.0,0.0,0.0,1.3743,0.0,0.0,0.0,0.0,0.0,0.0,0.0,0.0,0.0,0.0,0.0,0.0,0.0,0.0,0.0,0.0,0.0,0.0,0.0,0.0,0.0,0.0,0.0,0.0,0.0,0.0,0.0,0.0,0.0,0.0,0.0,0.0,0.0,0.0,0.0,0.0,0.0,0.0,0.0,0.0,0.0,0.0,0.0,0.0,0.0,0.0,0.0,0.0,0.0,0.0,0.0,0.0,0.0,0.0,0.0,0.0,0.0,0.0,0.0,1.7711,1.5498,1.4421,1.2903,1.086,0.9214,0.8219,0.0,0.0,0.0,0.0,0.0,0.0,0.0,0.0,0.0,0.0,0.0,0.0,0.0,0.0,0.0,0.0,0.0,0.0,0.0,0.0,0.0,0.0,0.0,0.0,0.0,0.0,0.0,0.0,0.0,0.0,0.0,0.0,0.0,0.0,0.0,0.0,0.0,0.0,0.0,0.0,0.0,0.0,0.0,0.0,0.0,0.0,0.0,0.0,0.0,0.0,0.0,0.0,0.0,0.0,0.0,0.0,0.0,0.0,0.0,0.0,0.0,0.0,0.0,0.0,0.0,0.0,0.0,0.0,0.0,0.0,0.0,0.0,0.0,0.0,0.0,0.0,0.0,0.0,0.0,0.0,0.0,0.0,0.0,0.0,0.0,0.0,0.0,0.0,0.0,0.0,0.0,0.0,0.0,0.0,0.0,0.0,0.0,0.0,0.0,0.0,0.0,0.0,0.0,0.0,0.0,0.0,0.0,1.9609,1.873,1.794,1.5677,1.3785,1.2261,1.0856,0.9813,0.92,0.0,0.0,0.0,0.0,0.0,0.0,0.0,0.0,0.0,0.0,0.0,0.0,0.0,0.0,0.0,0.0,0.0,0.0,0.0,0.0,0.0,0.0,0.0,0.0,0.0,0.0,0.0,0.0,0.0,0.0,0.0,0.0,0.0,0.0,0.0,0.0,0.0,0.0,2.1323,1.9802,0.0,0.0,0.0,0.0,0.0,0.0,0.0,0.0,1.5803,0.0,0.0,0.0,0.0,0.0,0.0,0.0,0.0,0.0,0.0,0.0,0.0,0.0,0.0,0.0,0.0,0.0,0.0,0.0,0.0,0.0,0.0,0.0,0.0,0.0,0.0,0.0,0.0,0.0,0.0,0.0,0.0,0.0,0.0,0.0,0.0,0.0,0.0,0.0,0.0,0.0,0.0,0.0,0.0,0.0,0.0,0.0,0.0,0.0,0.0,0.0,0.0,0.0,0.0,0.0,0.0,2.3135,2.1347,2.0015,1.9206,1.7801,1.6332,1.4752,1.3467,1.2304,1.1262,0.0,0.0,0.0,0.0,0.0,0.0,0.0,0.0,0.0,0.0,0.0,0.0,0.0,0.0,0.0,0.0,0.0,0.0,0.0,0.0,0.0,0.0,0.0,0.0,0.0,0.0,0.0,0.0,0.0,0.0,0.0,0.0,0.0,0.0,0.0,0.0,0.0,0.0,0.0,2.1074,2.0427,0.0,0.0,0.0,0.0,0.0,0.0,0.0,0.0,1.8106,0.0,0.0,0.0,0.0,0.0,0.0,0.0,0.0,0.0,0.0,0.0,0.0,0.0,0.0,0.0,0.0,0.0,0.0,0.0,0.0,0.0,0.0,0.0,0.0,0.0,0.0,0.0,0.0,0.0,0.0,0.0,0.0,0.0,0.0,0.0,0.0,0.0,0.0,0.0,0.0,0.0,0.0,0.0,0.0,0.0,0.0,0.0,0.0,0.0,0.0,0.0,0.0,0.0,0.0,0.0,2.3429,2.1883,2.0838,2.0432,1.9268,1.753,1.5303,1.443,1.3256,0.0,0.0,0.0,0.0,0.0,0.0,0.0,0.0,0.0,0.0,0.0,0.0,0.0,0.0,0.0,0.0,0.0,0.0,0.0,0.0,0.0,0.0,0.0,0.0,0.0,0.0,0.0,0.0,0.0,0.0,0.0,0.0,0.0,0.0,0.0,0.0,0.0,0.0,0.0,0.0,2.2537,2.1883,2.0909,0.0,0.0,0.0,0.0,0.0,0.0,1.9131,1.9825,0.0,0.0,0.0,0.0,0.0,0.0,0.0,0.0,0.0,0.0,0.0,0.0,0.0,0.0,0.0,0.0,0.0,0.0,0.0,0.0,0.0,0.0,0.0,0.0,0.0,0.0,0.0,0.0,0.0,0.0,0.0,0.0,0.0,0.0,0.0,0.0,0.0,0.0,0.0,0.0,0.0,0.0,0.0,0.0,0.0,0.0,0.0,0.0,0.0,0.0,0.0,0.0,0.0,0.0,0.0,2.3551,2.2231,2.1585,2.1614,2.0486,1.866,1.6228,1.5619,1.4363,0.0,0.0,0.0,0.0,0.0,0.0,0.0,0.0,0.0,0.0,0.0,0.0,0.0,0.0,0.0,0.0,0.0,0.0,0.0,0.0,0.0,0.0,0.0,0.0,0.0,0.0,0.0,0.0,0.0,0.0,0.0,0.0,0.0,0.0,0.0,0.0,0.0,0.0,0.0,0.0,0.0,2.3564,2.2845,2.2767,0.0,0.0,0.0,0.0,1.9687,2.0629,0.0,0.0,0.0,0.0,0.0,0.0,0.0,0.0,0.0,0.0,0.0,0.0,0.0,0.0,0.0,0.0,0.0,0.0,0.0,0.0,0.0,0.0,0.0,0.0,0.0,0.0,0.0,0.0,0.0,0.0,0.0,0.0,0.0,0.0,0.0,0.0,0.0,0.0,0.0,0.0,0.0,0.0,0.0,0.0,0.0,0.0,0.0,0.0,0.0,0.0,0.0,0.0,0.0,0.0,0.0,0.0,2.4508,2.3163,2.2539,2.2843,2.1712,2.0607,1.9613,1.8564,1.6849,0.0,0.0,0.0,0.0,0.0,0.0,0.0,0.0,0.0,0.0,0.0,0.0,0.0,0.0,0.0,0.0,0.0,0.0,0.0,0.0,0.0,0.0,0.0,0.0,0.0,0.0,0.0,0.0,0.0,0.0,0.0,0.0,0.0,0.0,0.0,0.0,0.0,0.0,0.0,0.0,0.0,2.6135,2.5311,2.5437,2.5234,0.0,0.0,2.2381,2.0367,2.1078,0.0,0.0,0.0,0.0,0.0,0.0,0.0,0.0,0.0,0.0,0.0,0.0,0.0,0.0,0.0,0.0,0.0,0.0,0.0,0.0,0.0,0.0,0.0,0.0,0.0,0.0,0.0,0.0,0.0,0.0,0.0,0.0,0.0,0.0,0.0,0.0,0.0,0.0,0.0,0.0,0.0,0.0,0.0,0.0,0.0,0.0,0.0,0.0,0.0,0.0,0.0,0.0,0.0,0.0,0.0,2.4116,2.4754,2.4136,2.3566,2.3115,2.236,2.1416,2.0223,1.9315,1.7834,0.0,0.0,0.0,0.0,0.0,0.0,0.0,0.0,0.0,0.0,0.0,0.0,0.0,0.0,0.0,0.0,0.0,0.0,0.0,0.0,0.0,0.0,0.0,0.0,0.0,0.0,0.0,0.0,0.0,0.0,0.0,0.0,0.0,0.0,0.0,0.0,0.0,0.0,0.0,0.0,0.0,0.0,2.7381,2.7238,0.0,0.0,0.0,2.5016,2.4289,0.0,0.0,0.0,0.0,0.0,0.0,0.0,0.0,0.0,0.0,0.0,0.0,0.0,0.0,0.0,0.0,0.0,0.0,0.0,0.0,0.0,0.0,0.0,0.0,0.0,0.0,0.0,0.0,0.0,0.0,0.0,0.0,0.0,0.0,0.0,0.0,0.0,0.0,0.0,0.0,0.0,0.0,0.0,0.0,0.0,0.0,0.0,0.0,0.0,0.0,0.0,0.0,0.0,0.0,0.0,0.0,0.0,2.5215,2.5224,2.4798,2.3963,2.3313,2.234,2.1074,2.0192,0.0,0.0,0.0,0.0,0.0,0.0,0.0,0.0,0.0,0.0,0.0,0.0,0.0,0.0,0.0,0.0,0.0,0.0,0.0,0.0,0.0,0.0,0.0,0.0,0.0,0.0,0.0,2.1933,0.0,0.0,0.0,0.0,0.0,0.0,0.0,0.0,0.0,0.0,0.0,0.0,0.0,0.0,2.868,2.9167,2.8838,2.8737,0.0,0.0,2.7314,2.7437,2.6975,2.6715,0.0,0.0,0.0,0.0,0.0,0.0,0.0,0.0,0.0,0.0,0.0,0.0,0.0,0.0,0.0,0.0,0.0,0.0,0.0,0.0,0.0,0.0,0.0,0.0,0.0,0.0,0.0,0.0,0.0,0.0,0.0,0.0,0.0,0.0,0.0,0.0,0.0,0.0,0.0,0.0,0.0,0.0,0.0,0.0,0.0,0.0,0.0,0.0,0.0,0.0,0.0,0.0,0.0,0.0,2.5322,2.6335,2.6382,2.6348,2.6213,2.4855,2.3854,2.3302,2.183,2.002,0.0,0.0,0.0,0.0,0.0,0.0,0.0,0.0,0.0,0.0,0.0,0.0,0.0,0.0,0.0,0.0,0.0,0.0,0.0,0.0,0.0,0.0,0.0,0.0,0.0,0.0,0.0,0.0,0.0,0.0,0.0,0.0,0.0,0.0,0.0,0.0,0.0,0.0,0.0,0.0,0.0,3.0316,3.0462,3.0328,3.0438,0.0,3.0097,2.904,2.8008,2.7435,2.7291,2.79,0.0,0.0,0.0,0.0,0.0,0.0,0.0,0.0,0.0,0.0,0.0,0.0,0.0,0.0,0.0,0.0,0.0,0.0,0.0,0.0,0.0,0.0,0.0,0.0,0.0,0.0,0.0,0.0,0.0,0.0,0.0,0.0,0.0,0.0,0.0,0.0,0.0,0.0,0.0,0.0,0.0,0.0,0.0,0.0,0.0,0.0,0.0,0.0,0.0,0.0,0.0,0.0,0.0,2.6081,2.6498,2.7139,2.7168,2.6491,2.5337,2.4603,2.4456,2.3229,2.1674,0.0,0.0,0.0,0.0,0.0,0.0,0.0,0.0,0.0,0.0,0.0,0.0,0.0,0.0,0.0,0.0,0.0,0.0,0.0,0.0,0.0,0.0,0.0,0.0,0.0,0.0,0.0,0.0,2.8429,2.994,3.0945,0.0,0.0,0.0,0.0,0.0,0.0,0.0,0.0,0.0,0.0,3.363,3.4025,3.3163,0.0,0.0,3.1843,3.0543,3.0119,2.9618,2.9245,2.9165,2.9945,0.0,0.0,0.0,0.0,0.0,0.0,0.0,0.0,0.0,0.0,0.0,0.0,0.0,0.0,0.0,0.0,0.0,0.0,0.0,0.0,0.0,0.0,0.0,0.0,0.0,0.0,0.0,0.0,0.0,0.0,0.0,0.0,0.0,0.0,0.0,0.0,0.0,0.0,0.0,0.0,0.0,0.0,0.0,0.0,0.0,0.0,0.0,0.0,0.0,0.0,0.0,0.0,2.6911,2.7217,2.8149,2.8156,2.7232,2.6088,2.5417,2.5219,2.41,2.2844,0.0,0.0,0.0,0.0,0.0,0.0,0.0,0.0,0.0,0.0,0.0,0.0,0.0,0.0,0.0,0.0,0.0,0.0,0.0,0.0,0.0,0.0,0.0,0.0,0.0,0.0,0.0,0.0,2.9942,3.1492,3.2698,0.0,0.0,0.0,0.0,0.0,0.0,0.0,0.0,0.0,0.0,3.5834,3.6142,3.4982,3.4324,3.5021,3.3417,3.2243,3.2546,3.2319,3.1965,3.1577,0.0,0.0,0.0,0.0,0.0,0.0,0.0,0.0,0.0,0.0,0.0,0.0,0.0,0.0,0.0,0.0,0.0,0.0,0.0,0.0,0.0,0.0,0.0,0.0,0.0,0.0,0.0,1.8644,0.0,0.0,1.9845,0.0,0.0,0.0,0.0,0.0,0.0,0.0,0.0,0.0,0.0,0.0,0.0,0.0,0.0,0.0,0.0,0.0,0.0,0.0,0.0,0.0,0.0,2.7759,2.8813,2.9414,2.9439,2.88,2.7354,2.6326,2.5789,2.4324,2.3327,2.2857,0.0,0.0,0.0,0.0,0.0,0.0,0.0,0.0,0.0,0.0,0.0,0.0,0.0,0.0,0.0,0.0,0.0,0.0,0.0,0.0,0.0,0.0,0.0,0.0,0.0,0.0,2.9791,3.1391,3.2975,0.0,0.0,0.0,0.0,0.0,0.0,0.0,0.0,0.0,0.0,3.597,3.6344,3.6251,3.5346,3.5102,3.6053,3.4794,3.4095,3.5129,3.5374,3.5489,0.0,0.0,0.0,0.0,0.0,0.0,0.0,0.0,0.0,0.0,0.0,0.0,0.0,0.0,0.0,0.0,0.0,0.0,0.0,0.0,0.0,0.0,0.0,0.0,0.0,0.0,0.0,2.1546,2.1092,0.0,0.0,0.0,0.0,0.0,0.0,0.0,0.0,0.0,0.0,0.0,2.8628,2.8974,0.0,0.0,0.0,0.0,0.0,0.0,0.0,0.0,0.0,0.0,0.0,0.0,2.7833,2.8863,2.9503,2.9503,2.89,2.8064,2.7335,2.6792,2.5967,2.4953,2.385,0.0,0.0,0.0,0.0,0.0,0.0,0.0,0.0,0.0,0.0,0.0,0.0,0.0,0.0,0.0,0.0,0.0,0.0,0.0,0.0,0.0,0.0,0.0,0.0,0.0,3.1527,0.0,0.0,0.0,0.0,0.0,0.0,0.0,0.0,0.0,0.0,0.0,3.6575,3.7068,3.8263,3.8902,3.8389,3.7434,3.7035,0.0,0.0,0.0,0.0,0.0,0.0,0.0,0.0,0.0,0.0,0.0,0.0,0.0,0.0,3.8186,3.6329,3.5629,3.5304,3.5304,0.0,0.0,0.0,0.0,0.0,0.0,0.0,0.0,0.0,0.0,0.0,0.0,0.0,0.0,2.3863,0.0,2.392,0.0,0.0,0.0,0.0,0.0,0.0,0.0,0.0,3.0331,3.0915,3.1584,3.1903,3.1875,0.0,3.1744,3.0745,0.0,0.0,0.0,0.0,0.0,0.0,0.0,0.0,2.831,2.9202,2.9603,2.9428,2.8637,2.8298,2.7745,2.7065,2.6675,2.5809,2.4321,2.3595,2.2868,0.0,0.0,0.0,0.0,0.0,0.0,0.0,0.0,0.0,0.0,0.0,0.0,0.0,0.0,0.0,0.0,0.0,0.0,0.0,0.0,0.0,0.0,0.0,3.281,0.0,0.0,0.0,0.0,0.0,0.0,0.0,0.0,0.0,3.5985,3.7472,3.8812,3.913,4.0107,4.0502,3.9858,0.0,0.0,0.0,0.0,0.0,0.0,0.0,3.8529,3.8609,3.9598,4.0524,4.1084,4.165,4.207,4.2192,0.0,0.0,3.8802,3.793,3.7606,3.7591,3.7173,3.6707,3.6345,3.6236,3.6069,0.0,0.0,0.0,0.0,0.0,0.0,0.0,0.0,2.541,2.5196,0.0,2.5633,0.0,0.0,0.0,0.0,0.0,2.9649,0.0,0.0,3.2374,3.2664,3.2686,3.2735,3.27,3.2706,3.3218,3.3176,3.2616,3.161,0.0,0.0,0.0,0.0,0.0,0.0,2.9252,2.9831,2.983,2.9252,2.8172,2.8109,2.7605,2.6618,2.6555,2.5925,2.4587,2.487,2.4272,2.2525,2.357,0.0,0.0,0.0,0.0,0.0,0.0,0.0,0.0,0.0,0.0,0.0,0.0,0.0,0.0,0.0,0.0,0.0,0.0,0.0,0.0,3.2089,0.0,0.0,0.0,0.0,0.0,0.0,0.0,0.0,0.0,0.0,3.8737,3.9353,4.0412,4.1302,0.0,0.0,0.0,0.0,3.925,4.0256,4.0141,4.0305,4.1331,4.2054,4.243,4.2481,0.0,0.0,4.5138,4.5011,4.4845,4.517,4.4205,4.3046,4.1898,4.1366,4.1219,4.1212,4.0107,3.9418,3.9286,3.8369,3.765,2.7213,0.0,0.0,0.0,0.0,2.6477,2.6999,2.7368,2.8847,2.8945,2.8127,2.9087,0.0,0.0,0.0,0.0,0.0,0.0,3.2104,3.3366,3.3551,3.4007,3.4658,3.4673,3.4673,3.4673,3.4815,3.4815,3.4658,3.4372,3.3178,3.1185,0.0,0.0,0.0,0.0,3.0236,3.0719,3.0139,2.9252,2.8134,2.8109,2.7878,2.7343,2.7351,2.7446,2.7647,2.7187,2.6867,2.6688,2.574,0.0,0.0,0.0,0.0,0.0,0.0,0.0,0.0,0.0,0.0,0.0,0.0,0.0,0.0,0.0,0.0,0.0,0.0,0.0,3.2862,3.3414,3.4453,0.0,0.0,0.0,0.0,0.0,0.0,0.0,0.0,0.0,4.3212,4.29,4.2639,0.0,0.0,4.0965,3.9858,3.9928,4.0441,4.1224,4.22,0.0,0.0,4.4236,4.4555,4.5022,4.5527,4.5826,4.5917,4.5849,4.5842,4.5901,4.5603,4.5081,4.4221,4.2597,4.152,4.131,4.0321,3.9418,3.9388,3.9141,3.8884,2.8699,2.7025,2.7037,2.7175,2.7475,2.8514,2.911,2.9435,3.1066,3.1388,3.0764,3.1378,3.1146,3.0322,3.0651,0.0,0.0,0.0,3.3382,3.4624,3.4591,3.4905,3.5472,3.5489,3.5489,3.5489,3.5489,3.5489,3.5489,3.5489,3.4761,3.3312,0.0,0.0,3.2124,3.1553,3.1442,3.1692,3.0833,2.9907,2.901,2.85,2.8066,2.7709,2.8019,2.846,2.8971,2.8492,2.8469,2.9053,2.7594,2.6974,0.0,0.0,0.0,0.0,0.0,0.0,0.0,0.0,0.0,0.0,0.0,3.2095,3.1613,0.0,0.0,0.0,3.2657,3.3894,3.521,3.6162,0.0,0.0,0.0,0.0,0.0,0.0,0.0,4.4561,4.5522,4.6143,4.6241,4.5457,4.4592,4.3812,4.2745,4.1735,4.0935,0.0,4.1729,4.2168,4.3269,4.4214,4.4603,4.4934,4.5525,4.6601,4.6747,4.6918,4.7273,4.7036,4.6918,4.7089,4.6486,4.5736,4.5649,4.3706,4.2048,4.1996,4.0908,3.9965,3.9935,3.9646,3.9313,2.9972,2.9895,2.9882,2.9895,2.9998,3.0833,3.1241,3.1389,3.2321,3.27,3.27,3.2784,3.2535,3.2089,3.2089,0.0,3.339,3.3917,3.4595,3.5489,3.5489,3.5489,3.5489,3.5489,3.5489,3.5489,3.5489,3.5489,3.5489,3.5489,3.5489,3.5472,3.4576,3.3705,3.2855,3.2749,3.2713,3.2713,3.1792,3.105,3.0506,2.9278,2.8404,2.8013,2.8698,2.9129,2.9192,2.9129,2.9406,3.0021,2.912,2.8732,2.9145,0.0,0.0,0.0,0.0,0.0,0.0,0.0,0.0,0.0,0.0,0.0,0.0,0.0,0.0,0.0,3.5659,0.0,3.7695,3.9677,0.0,0.0,0.0,4.2686,4.346,4.4865,4.5767,4.5785,0.0,0.0,4.8075,4.7124,4.6192,4.5343,4.3919,4.2988,4.2941,4.2909,4.3023,4.2991,4.367,4.4139,4.4348,4.487,4.5799,4.7127,4.7523,4.7749,4.8387,4.8023,4.7912,4.845,4.6832,4.5467,4.63,4.4606,4.3201,4.3153,4.1887,4.0811,4.0792,4.0178,3.9436,3.1499,3.0871,3.0871,3.0871,3.0857,3.1106,3.1596,3.2307,3.329,3.3545,3.3411,3.4399,3.4732,3.4618,3.4618,3.4732,3.4943,3.5106,3.5279,3.5489,3.5489,3.5489,3.5489,3.5489,3.5489,3.5489,3.5489,3.5489,3.5489,3.5489,3.5489,3.5504,3.5246,3.5034,3.4773,3.4075,3.3671,3.3656,3.2735,3.1984,3.1466,3.0288,2.9868,3.0354,3.0131,3.0299,3.0866,3.0284,3.0235,3.0771,2.9572,2.9328,3.0334,2.9327,0.0,0.0,0.0,0.0,0.0,0.0,0.0,0.0,0.0,3.4637,3.3591,0.0,3.6014,0.0,3.9556,4.0828,4.1022,4.1549,0.0,0.0,4.3733,4.4632,4.6356,4.7014,4.7544,4.8099,4.8641,4.8934,4.8765,4.7568,4.6646,4.64,4.4414,4.2813,4.2349,4.2842,4.3232,4.3359,4.4384,4.5269,4.5287,4.5909,4.6485,4.6908,4.6992,4.7083,4.7297,4.7143,4.7066,4.728,4.6888,4.6304,4.5942,4.5379,4.4862,4.4256,4.2883,4.1707,4.1691,4.1083,4.0314,3.2272,3.1815,3.1829,3.2069,3.2393,3.1573,3.1742,3.2678,3.3587,3.4168,3.4507,3.5169,3.5489,3.5489,3.5489,3.5489,3.5489,3.5489,3.5489,3.5489,3.5489,3.5489,3.5489,3.5489,3.5489,3.5489,3.5489,3.5489,3.5489,3.5489,3.5489,3.5489,3.5489,3.5489,3.5457,3.4953,3.4658,3.4658,3.3705,3.2758,3.1847,3.1531,3.1304,3.1207,3.1563,3.1781,3.1915,3.1781,3.1848,3.2123,3.1025,3.0885,3.1894,3.1106,3.1117,0.0,0.0,0.0,0.0,0.0,0.0,0.0,0.0,0.0,0.0,0.0,3.8714,4.023,4.2013,4.3089,4.3089,4.3978,4.4887,4.565,4.6216,4.6953,4.8092,4.8318,4.8545,4.8968,4.9018,4.8883,4.8545,4.7513,4.6667,4.6346,4.4787,4.3582,4.3298,4.3621,4.3873,4.3919,4.4651,4.5348,4.5635,4.6041,4.643,4.6718,4.6786,4.6786,4.6786,4.6786,4.6786,4.6769,4.6532,4.6194,4.5776,4.5387,4.506,4.4637,4.3827,4.2961,4.2223,4.1465,4.0626,3.289,3.2784,3.2784,3.3171,3.3691,3.2069,3.1997,3.3031,3.3856,3.4691,3.5489,3.5489,3.5489,3.5489,3.5489,3.5489,3.5489,3.5489,3.5489,3.5489,3.5587,3.5651,3.5636,3.5765,3.5797,3.5797,3.5797,3.5797,3.5812,3.5716,3.5651,3.5651,3.5569,3.5489,3.5489,3.5489,3.5489,3.5504,3.4624,3.3584,3.2316,3.2916,3.2749,3.1758,3.2864,3.323,3.2691,3.32,3.3499,3.3469,3.271,3.274,3.3666,3.2991,3.2996,0.0,3.417,0.0,0.0,0.0,0.0,0.0,0.0,0.0,0.0,4.1527,4.2008,4.2588,4.3945,4.4818,4.4835,4.6602,4.777,4.7803,4.8497,4.9018,4.9001,4.9018,4.9018,4.9018,4.9018,4.8731,4.8037,4.7259,4.6515,4.5855,4.5054,4.4479,4.4542,4.4514,4.4542,4.4598,4.4598,4.4902,4.5365,4.5534,4.5771,4.6329,4.6397,4.6515,4.6413,4.6447,4.6464,4.6413,4.5957,4.5556,4.5561,4.5015,4.4649,4.4598,4.4514,4.4018,4.2742,4.1779,4.0627,3.4476,3.3739,3.3739,3.3429,3.2855,3.25,3.3325,3.4953,3.5133,3.5326,3.5504,3.5489,3.5489,3.5489,3.5489,3.5489,3.5489,3.5489,3.5489,3.5537,3.6117,3.6399,3.6415,3.7055,3.7354,3.7354,3.7368,3.7354,3.7354,3.6722,3.6384,3.6399,3.5782,3.5489,3.5489,0.0,0.0,0.0,3.5326,3.5073,3.4809,3.4421,3.4116,3.388,3.3632,0.0,3.332,3.3425,3.3499,3.3499,3.3331,0.0,0.0,0.0,0.0,0.0,0.0,0.0,0.0,0.0,0.0,0.0,4.2361,4.2,4.1252,4.3827,4.5402,4.507,4.6847,4.8094,4.8111,4.8471,4.8719,4.875,4.8892,4.9018,4.9018,4.9018,4.9018,4.9018,4.9018,4.8731,4.7973,4.7259,4.6515,4.5805,4.5043,4.4632,4.4598,4.4598,4.4598,4.4598,4.4598,4.4649,4.4756,4.4823,4.4936,4.5021,4.5021,4.5055,4.5106,4.5089,4.5055,4.5089,4.4902,4.4823,4.4823,4.4671,4.4598,4.4598,4.4598,4.4322,4.3378,4.2567,4.1616,3.5213,0.0,3.4758,3.4442,0.0,3.4041,3.4591,3.5457,3.4986,3.5019,3.5489,3.5489,3.5489,3.5489,3.5489,3.5701,3.6038,3.6023,3.6259,3.6677,3.7025,3.7189,3.7219,3.7602,3.7822,3.7822,3.7822,3.7822,3.7793,3.7397,3.7203,3.7174,3.6829,3.6646,3.6631,3.6631,3.6258,3.5489,3.5489,3.5668,3.5991,3.5354,3.5197,3.5623,0.0,0.0,0.0,0.0,0.0,0.0,0.0,0.0,0.0,0.0,0.0,3.8332,3.8799,3.9508,4.0612,4.1375,4.2238,4.3314,4.4085,4.437,4.3932,4.6298,4.7651,4.7347,4.8329,4.9018,4.9018,4.9018,4.9018,4.9018,4.9018,4.9018,4.9018,4.9018,4.9018,4.9018,4.9018,4.8731,4.7973,4.7259,4.6515,4.5805,4.506,4.4615,4.4598,4.4598,4.4598,4.4598,4.4598,4.4598,4.4598,4.4598,4.4598,4.4598,4.4598,4.4598,4.4598,4.4598,4.4598,4.4598,4.4598,4.4598,4.4598,4.4598,4.4598,4.4598,4.4598,4.4316,4.3572,4.2828,4.197,3.5489,3.5489,3.5489,3.5489,3.5489,3.5489,3.5587,3.5621,0.0,0.0,0.0,3.5489,3.5554,3.5701,3.5701,3.6101,3.6783,3.6828,3.7189,3.7793,3.7921,3.7978,3.8007,3.8149,3.8222,3.8206,3.8206,3.8222,3.8177,3.8064,3.7991,3.7978,3.7863,3.7822,3.7822,3.7822,3.7191,3.5973,3.591,3.618,3.6768,3.6212,3.6245,3.6954,3.6875,3.6861,3.697,3.7502,3.7534,3.6998,3.6966,3.705,3.7189,3.7812,3.8795,4.0204,4.0973,4.1711,4.2439,4.32,4.3595,4.3623,4.4925,4.6007,4.6735,4.8037,4.8866,4.8984,4.9018,4.9018,4.9018,4.9018,4.9018,4.9018,4.9018,4.9018,4.9018,4.9018,4.9018,4.9018,4.9001,4.8731,4.802,4.7394,4.6718,4.5991,4.5314,4.4733,4.4632,4.4598,4.4598,4.4598,4.4598,4.4598,4.4598,4.4598,4.4626,4.4786,4.4786,4.4786,4.4879,4.4906,4.4934,4.5008,4.4917,4.4944,4.4917,4.4998,4.4879,4.4803,4.4748,4.4533,4.3752,4.2912,4.2083,3.5489,3.5489,3.5489,3.5489,3.5489,3.5489,3.5863,3.6384,3.5623,3.5374,3.5489,3.5489,3.5846,3.6446,3.643,3.6905,3.7602,3.7648,3.769,0.0,3.8442,3.8745,3.8772,3.9437,3.9782,3.9756,3.9756,3.9756,3.9705,3.9059,3.8761,3.869,3.8121,3.7822,3.7822,3.7822,3.7706,3.7456,3.7472,3.7531,3.7632,3.7531,3.7541,3.7649,3.7642,3.7658,3.7662,3.7787,3.7774,3.7662,3.7662,3.7931,3.8554,3.8716,3.9468,4.091,4.1726,4.2455,4.3217,4.3978,4.4418,4.4479,4.5213,4.6007,4.6735,4.7564,4.8294,4.8917,4.9018,4.9018,4.9018,4.9032,4.9063,4.9063,4.9032,4.9001,4.9032,4.9001,4.9018,4.9018,4.9001,4.8748,4.8105,4.7787,4.7428,4.6735,4.6007,4.5359,4.4942,4.4598,4.4598,4.4598,4.4598,4.4598,4.4598,4.4598,4.4786,4.5311,4.532,4.5459,4.5915,4.5972,4.5989,4.6094,4.5996,4.6021,4.6046,4.6143,4.5883,4.5485,4.5355,4.5146,4.4569,4.3403,4.2187,3.5489,3.5489,3.5489,3.5489,3.5522,3.5926,3.6275,3.6615,3.6692,3.6738,3.6753,3.6753,3.6935,3.7249,3.7279,3.7658,3.8386,3.8386,3.8635,3.9065,3.9401,3.9558,3.9568,3.9927,4.0113,4.0113,4.0113,4.0113,4.007,3.9714,3.9542,3.9516,3.9183,3.9065,3.9065,3.9065,3.9049,3.9038,3.8206,3.7978,3.8386,3.8007,3.8177,3.9011,3.8652,3.8624,3.9038,3.9065,3.9065,3.9049,3.9049,3.9183,3.9532,3.9926,4.0627,4.1736,4.2506,4.325,4.3995,4.4384,4.4598,4.4615,4.4891,4.5415,4.6143,4.7242,4.8193,4.8917,4.9018,4.9168,4.9492,4.9534,4.9693,5.0107,4.9809,4.9551,4.9492,4.9182,4.9001,4.9018,4.9018,4.8866,4.8545,4.8142,4.7804,4.7378,4.6769,4.627,4.6285,4.6005,4.5478,4.4801,4.4598,4.4598,4.4598,4.4598,4.4869,4.5407,4.5511,4.5757,4.6264,4.6389,4.6413,4.6389,4.6389,4.6389,4.6413,4.6389,4.6264,4.6119,4.5972,4.5815,4.5466,4.444,4.286,3.5489,3.5489,3.5489,3.5602,3.5814,3.6368,3.6767,3.7158,3.779,3.8149,3.8262,3.7978,3.7892,3.8035,3.8035,3.8442,3.9102,3.9183,3.9516,4.0045,4.0113,4.0113,4.0113,4.0113,4.0113,4.0113,4.0113,4.0113,4.0113,4.0113,4.0113,4.0113,4.0113,4.0113,4.0113,4.0113,4.0113,4.002,3.893,3.8596,3.9113,3.8596,3.8887,3.9927,3.9489,3.9463,4.007,4.0113,4.0113,4.0113,4.0113,4.0113,4.013,4.0798,4.1525,4.2269,4.2997,4.3775,4.4485,4.4598,4.4598,4.4598,4.4598,4.4891,4.5686,4.7046,4.8133,4.866,4.905,4.9462,4.9907,5.0157,5.049,5.0981,5.0417,4.9993,4.9965,4.9402,4.9018,4.9018,4.9018,4.9001,4.89,4.8511,4.8148,4.8069,4.761,4.7518,4.7887,4.7579,4.6775,4.586,4.5182,4.4806,4.4649,4.4598,4.4934,4.5563,4.5732,4.6136,4.6641,4.6869,4.6847,4.6914,4.6892,4.6937,4.6869,4.6869,4.6824,4.671,4.6641,4.6518,4.5982,4.5267,4.3749,3.5489,3.5489,3.5522,3.5894,3.6508,3.66,3.7424,3.8564,3.8772,3.9236,3.9653,3.843,3.8206,3.8745,3.8799,3.9236,3.9927,3.9995,4.002,4.007,4.0113,4.0113,4.0113,4.0113,4.0113,4.0113,4.0113,4.0113,4.0113,4.0113,4.0113,4.0113,4.0113,4.0113,4.0113,4.0113,4.0113,4.0113,3.9952,3.9927,3.9995,3.9927,3.9952,4.007,4.002,4.002,4.0113,4.0113,4.0113,4.0113,4.0113,4.0113,4.018,4.0798,4.1542,4.2252,4.3014,4.3758,4.4513,4.4598,4.4598,4.4598,4.4626,4.4942,4.5687,4.7013,4.7842,4.8226,4.9198,4.9947,5.0033,5.0608,5.106,5.1215,5.0581,5.0022,5.0067,4.9453,4.9018,4.9018,4.9152,4.9001,4.909,4.8958,4.8877,4.8929,4.884,4.8787,4.898,4.8857,4.8692,4.8133,4.6985,4.5578,4.5065,4.4615,4.5411,4.6228,4.6389,4.6921,4.7732,4.8067,4.8076,4.7777,4.7957,4.7937,4.7995,4.8113,4.7858,4.7428,4.7205,4.6974,4.5846,4.5427,4.4425,3.5489,3.5569,3.5975,3.6615,3.7308,3.7758,3.8298,3.8908,3.9394,3.9808,4.002,3.9411,3.9332,3.9594,3.961,3.9825,4.0113,4.0113,4.0113,4.0113,4.0113,4.0113,4.0113,4.0113,4.0113,4.0113,4.0113,4.0113,4.0113,4.0113,4.0113,4.0113,4.0113,4.0113,4.0113,4.0113,4.0113,4.0113,4.0113,4.0113,4.0113,4.0113,4.0113,4.0113,4.0113,4.0113,4.0113,4.0113,4.0113,4.0113,4.0113,4.0113,4.0113,4.123,4.1982,4.2337,4.3436,4.4231,4.4581,4.4598,4.4731,4.5115,4.5142,4.5396,4.6109,4.7507,4.8408,4.8599,4.98,5.0796,5.1172,5.1519,5.185,5.2131,5.1685,5.1223,5.1258,5.067,5.023,5.023,5.023,5.005,4.971,4.9593,4.9786,5.008,5.0215,5.0267,5.0646,5.0474,5.0186,4.9996,4.9003,4.8033,4.7248,4.7134,4.7515,4.8105,4.8401,4.8742,4.8855,4.9058,4.893,4.8453,4.8379,4.8379,4.8248,4.8324,4.8209,4.7917,4.7917,4.7711,4.7161,4.6794,4.597,3.599,3.5911,3.6615,3.7381,3.8149,3.8679,3.9032,3.9289,3.9859,4.0113,4.0113,4.0113,4.0113,4.0113,4.0113,4.0113,4.0113,4.0113,4.0113,4.0113,4.0113,4.0113,4.0113,4.0113,4.0113,4.0113,4.0113,4.0113,4.0113,4.0113,4.0113,4.0113,4.0113,4.0113,4.0113,4.0113,4.0113,4.0113,4.0113,4.0113,4.0113,4.0113,4.0113,4.0113,4.0113,4.0113,4.0113,4.0113,4.0113,4.0113,4.0113,4.0197,4.0451,4.161,4.2499,4.2973,4.413,4.4824,4.4841,4.4998,4.5267,4.5699,4.5732,4.5933,4.6583,4.8033,4.9007,4.9203,5.0633,5.1874,5.2,5.2271,5.2621,5.3082,5.2536,5.2112,5.2024,5.1494,5.1034,5.1086,5.0955,5.0929,5.0435,5.0324,5.0564,5.1162,5.1358,5.1618,5.2177,5.1946,5.1652,5.162,5.1166,5.03,4.9237,4.8661,4.9156,4.9567,4.964,4.9619,4.9874,4.9938,4.9884,4.9499,4.8967,4.8655,4.8746,4.8673,4.8324,4.8324,4.8287,4.8267,4.8042,4.784,4.7461,3.7249,3.6737,3.7427,3.8189,3.8881,3.8908,3.9358,3.9952,4.007,4.0113,4.0113,4.0113,4.0113,4.0113,4.0113,4.0113,4.0113,4.0113,4.0113,4.0113,4.0113,4.0113,4.0113,4.0113,4.0113,4.0113,4.0113,4.0113,4.0113,4.0113,4.0113,4.0113,4.0113,4.0113,4.0113,4.0113,4.0113,4.0113,4.0113,4.0113,4.0113,4.0113,4.0113,4.0113,4.0113,4.0113,4.0113,4.0113,4.0113,4.0113,4.0146,4.0434,4.1102,4.188,4.2946,4.4292,4.5074,4.5433,4.5537,4.5933,4.6264,4.6359,4.6383,4.6425,4.6813,4.8577,4.9726,4.9803,5.1726,5.2747,5.2335,5.2707,5.3042,5.3124,5.2558,5.2183,5.2136,5.171,5.1164,5.1189,5.1215,5.1215,5.1112,5.106,5.1368,5.1856,5.2065,5.2289,5.2831,5.302,5.2944,5.2929,5.2699,5.2079,4.9633,4.9573,4.9674,5.0069,5.0598,5.0177,5.048,5.0729,5.0674,5.0472,4.9903,4.9537,4.9408,4.9022,4.8489,4.8324,4.8324,4.8305,4.8324,4.8324,4.8043,3.7921,3.8101,3.837,3.8951,3.9636,3.9662,3.9833,4.0096,4.0113,4.0113,4.0113,4.0113,4.0113,4.0113,4.0113,4.0113,4.0113,4.0113,4.0113,4.0113,4.0113,4.0113,4.0113,4.0113,4.0113,4.0113,4.0113,4.0113,4.0113,4.0113,4.0113,4.0113,4.0113,4.0113,4.0113,4.0113,4.0113,4.0113,4.0113,4.0113,4.0096,4.0113,4.0113,4.0113,4.0113,4.0113,4.0113,4.0113,4.0113,4.0113,4.0527,4.0916,4.1271,4.2354,4.3654,4.4971,4.5372,4.5673,4.6039,4.6264,4.6594,4.7017,4.7044,4.7475,4.8418,4.9664,5.0644,5.1307,5.2307,5.2984,5.2937,5.306,5.3185,5.3164,5.2977,5.2769,5.2787,5.2595,5.244,5.2371,5.2083,5.1922,5.2154,5.2018,5.2042,5.264,5.2791,5.2915,5.3082,5.3185,5.3185,5.3185,5.3167,5.2877,5.2043,5.1692,5.1781,5.1887,5.2017,5.1728,5.1809,5.161,5.1518,5.1059,5.0582,5.0106,4.9812,4.9058,4.8563,4.8324,4.8324,4.8324,4.8324,4.8324,4.8324,3.8596,3.9236,3.9272,3.961,4.007,4.0113,4.0113,4.0113,4.0113,4.0113,4.0113,4.0113,4.0113,4.0113,4.0113,4.0113,4.0113,4.0113,4.0113,4.0113,4.0113,4.0113,4.0113,4.0113,4.0113,4.0113,4.0113,4.0113,4.0113,4.0113,4.0113,4.0113,4.0113,4.0113,4.0113,4.0113,4.0113,4.0113,4.0113,4.0113,4.0121,4.0262,4.0343,4.0392,4.0546,4.0546,4.041,4.0546,4.0786,4.1061,4.1525,4.1925,4.2305,4.3597,4.469,4.5425,4.589,4.6281,4.6664,4.6892,4.7216,4.7653,4.7733,4.8265,4.9502,5.0328,5.1134,5.1924,5.2711,5.3185,5.3185,5.3185,5.3185,5.3185,5.3185,5.3185,5.3185,5.3185,5.3164,5.3042,5.2747,5.2747,5.3002,5.2707,5.2729,5.3164,5.3185,5.3185,5.3185,5.3185,5.3185,5.3185,5.3185,5.3185,5.2761,5.2608,5.2608,5.2749,5.2752,5.2669,5.2601,5.2399,5.216,5.1665,5.1151,5.06,4.9959,4.9187,4.8728,4.8453,4.8324,4.8324,4.8324,4.8324,4.8324,3.9368,3.9995,4.0096,4.0045,4.0113,4.0113,4.0113,4.0113,4.0113,4.0113,4.0113,4.0113,4.0113,4.0113,4.0113,4.0113,4.0113,4.0113,4.0113,4.0113,4.0113,4.0113,4.0113,4.0113,4.0113,4.0113,4.0113,4.0113,4.0113,4.0113,4.0113,4.0113,4.0113,4.0113,4.0113,4.0113,4.0113,4.0121,4.0146,4.0171,4.0171,4.0648,4.092,4.099,4.1499,4.1596,4.1047,4.1516,4.207,4.2718,4.2988,4.3469,4.4324,4.5481,4.6059,4.589,4.6682,4.7299,4.7467,4.7877,4.8094,4.8228,4.8304,4.8743,4.9684,5.0473,5.1242,5.2068,5.2747,5.3185,5.3185,5.3185,5.3185,5.3185,5.3185,5.3185,5.3185,5.3185,5.3185,5.3185,5.3103,5.3164,5.3185,5.3103,5.3103,5.3164,5.3185,5.3185,5.3185,5.3185,5.3185,5.3185,5.3185,5.3185,5.3185,5.3185,5.3167,5.3167,5.3091,5.3038,5.2983,5.2876,5.2839,5.2415,5.1848,5.1318,5.0583,4.9811,4.9132,4.882,4.8618,4.8361,4.8324,4.8324,4.8324,3.9859,4.007,4.0113,4.0113,4.0113,4.0113,4.0113,4.0113,4.0113,4.0113,4.0113,4.0113,4.0113,4.0113,4.0113,4.0113,4.0113,4.0113,4.0113,4.0113,4.0113,4.0113,4.0113,4.0113,4.0113,4.0113,4.0113,4.0113,4.0096,4.0096,4.0113,4.0113,4.0121,4.0113,4.0146,4.0113,4.0113,4.0146,4.0473,4.0655,4.0703,4.1223,4.1512,4.163,4.262,4.3148,4.2968,4.274,4.2757,4.3083,4.4015,4.4928,4.5687,4.6188,4.6524,4.6801,4.7128,4.7614,4.7977,4.819,4.8324,4.8416,4.882,4.9575,5.0366,5.1116,5.1922,5.2656,5.3057,5.3185,5.3185,5.3185,5.3185,5.3185,5.3185,5.3185,5.3185,5.3185,5.3185,5.3185,5.3185,5.3185,5.3185,5.3185,5.3185,5.3185,5.3185,5.3185,5.3185,5.3185,5.3185,5.3185,5.3185,5.3293,5.34,5.3462,5.3442,5.3359,5.3295,5.3206,5.3185,5.3185,5.3185,5.302,5.2472,5.1885,5.1171,5.0418,4.9682,4.9095,4.8783,4.8563,4.8379,4.8324,4.8324,4.0113,4.0113,4.0113,4.0113,4.0113,4.0113,4.0113,4.0113,4.0113,4.0113,4.0113,4.0113,4.0113,4.0113,4.0113,4.0113,4.0113,4.0113,4.0113,4.0113,4.0113,4.0113,4.0113,4.0113,4.0113,4.0113,4.0113,4.0204,4.0375,4.04,4.0514,4.0713,4.072,4.0744,4.0689,4.0497,4.049,4.0696,4.0827,4.0995,4.1313,4.1832,4.2284,4.2688,4.3635,4.4303,4.4575,4.4534,4.4533,4.4713,4.5755,4.6524,4.6788,4.6999,4.7198,4.7363,4.7635,4.7899,4.8267,4.8305,4.8324,4.8453,4.9077,4.9904,5.0714,5.1538,5.2325,5.302,5.3185,5.3185,5.3185,5.3185,5.3185,5.3185,5.3185,5.3185,5.3185,5.3185,5.3185,5.3185,5.3185,5.3185,5.3185,5.3185,5.3185,5.3185,5.3185,5.3185,5.3185,5.3185,5.3251,5.3339,5.3464,5.3584,5.3719,5.3739,5.372,5.3584,5.3462,5.3295,5.3185,5.3185,5.3185,5.3148,5.2784,5.2362,5.1683,5.0802,5.005,4.9536,4.9022,4.8563,4.8324,4.8324,4.8324,4.0113,4.0113,4.0113,4.0113,4.0113,4.0113,4.0113,4.0113,4.0113,4.0146,4.0171,4.0229,4.0254,4.0229,4.0385,4.0368,4.0221,4.0204,4.0229,4.0179,4.0146,4.0146,4.0212,4.0254,4.0286,4.0336,4.0311,4.0521,4.0943,4.0949,4.1223,4.1599,4.1617,4.1768,4.1573,4.1201,4.1178,4.1512,4.1291,4.1402,4.1835,4.244,4.3075,4.3818,4.4454,4.5132,4.5828,4.6505,4.6963,4.7204,4.7658,4.7808,4.7638,4.7995,4.7937,4.7572,4.8015,4.8209,4.8305,4.8324,4.8398,4.8545,4.926,4.9939,5.0912,5.1756,5.2472,5.3093,5.3185,5.3185,5.3185,5.3185,5.3185,5.3185,5.3185,5.3185,5.3185,5.3185,5.3185,5.3185,5.3185,5.3185,5.3185,5.3185,5.3185,5.3185,5.3185,5.3185,5.3227,5.3293,5.3442,5.3584,5.372,5.3925,5.407,5.4108,5.4093,5.3997,5.3814,5.3623,5.3336,5.3272,5.3185,5.3148,5.3075,5.2692,5.2234,5.1408,5.0618,5.0013,4.9389,4.8655,4.8324,4.8324,4.8324,4.0113,4.0113,4.0113,4.0113,4.0113,4.0113,4.0096,4.0096,4.0096,4.036,4.0607,4.0703,4.0938,4.1331,4.1326,4.1335,4.1196,4.0868,4.0703,4.0625,4.0237,4.0385,4.0607,4.0703,4.092,4.1241,4.1258,4.142,4.1556,4.1578,4.1664,4.1789,4.1895,4.1853,4.1746,4.1664,4.1643,4.1853,4.2124,4.2262,4.2536,4.3013,4.367,4.4455,4.5205,4.5975,4.6746,4.7553,4.7957,4.7994,4.8159,4.8248,4.8075,4.821,4.821,4.8113,4.819,4.8324,4.8324,4.8324,4.8581,4.9262,4.9921,5.0784,5.161,5.2417,5.2931,5.3185,5.3185,5.3185,5.3185,5.3185,5.3185,5.3185,5.3185,5.3185,5.3185,5.3185,5.3185,5.3185,5.3185,5.3206,5.323,5.323,5.3251,5.3251,5.3293,5.3293,5.34,5.3545,5.3796,5.387,5.4036,5.4265,5.4409,5.4439,5.4432,5.4398,5.4255,5.4066,5.372,5.3422,5.3295,5.3185,5.3167,5.2894,5.2692,5.2215,5.1426,5.0545,4.9774,4.9077,4.8526,4.8343,4.8324,4.0113,4.0113,4.0113,4.0113,4.0113,4.0113,4.0212,4.0417,4.0449,4.075,4.1178,4.1291,4.1468,4.1771,4.1789,4.181,4.1729,4.1446,4.1291,4.1246,4.0984,4.0891,4.1007,4.1237,4.1653,4.1768,4.1977,4.2082,4.2177,4.2183,4.2284,4.2523,4.2523,4.2505,4.2542,4.2284,4.2304,4.2483,4.2694,4.2915,4.3523,4.3815,4.4655,4.548,4.6232,4.6782,4.7553,4.8067,4.8306,4.8306,4.8324,4.8324,4.8324,4.8324,4.8324,4.8324,4.8324,4.8324,4.8324,4.8324,4.871,4.9537,5.0343,5.1132,5.1903,5.2729,5.3185,5.3185,5.3185,5.3185,5.3185,5.3185,5.3185,5.3185,5.3185,5.3185,5.3206,5.3185,5.3185,5.3185,5.3206,5.3274,5.3422,5.3444,5.3545,5.3701,5.3833,5.3814,5.3833,5.3996,5.4153,5.4294,5.4465,5.4735,5.4952,5.5006,5.4988,5.4928,5.4731,5.456,5.4066,5.3644,5.3422,5.3295,5.323,5.313,5.2949,5.2637,5.194,5.1077,5.029,4.9629,4.9077,4.8691,4.8636,4.0146,4.0179,4.0179,4.0204,4.0311,4.0286,4.0625,4.0943,4.1013,4.1335,4.181,4.1895,4.2,4.1979,4.2206,4.2024,4.2041,4.1979,4.1832,4.1789,4.1725,4.166,4.1397,4.198,4.2237,4.2198,4.2386,4.2597,4.2729,4.277,4.3032,4.3214,4.3356,4.3444,4.325,4.2976,4.3069,4.3232,4.2995,4.3451,4.4254,4.4581,4.5278,4.6599,4.7076,4.7498,4.8012,4.8324,4.8324,4.8324,4.8324,4.8324,4.8324,4.8324,4.8324,4.8324,4.8324,4.8324,4.8324,4.8343,4.8765,4.9701,5.0453,5.1224,5.2087,5.2876,5.3185,5.3185,5.3185,5.3185,5.3185,5.3185,5.3251,5.3295,5.3295,5.3274,5.3334,5.3293,5.3272,5.3316,5.3357,5.3525,5.372,5.3906,5.4014,5.4103,5.4206,5.4189,5.4257,5.4404,5.4606,5.4833,5.5031,5.5255,5.5456,5.561,5.555,5.5501,5.5269,5.4974,5.4366,5.3941,5.3644,5.3444,5.3339,5.3251,5.3151,5.2729,5.2234,5.1701,5.0969,5.0326,4.9757,4.9444,4.9297,4.0343,4.0709,4.0709,4.1013,4.1397,4.1442,4.1486,4.1599,4.1599,4.1937,4.2402,4.25,4.2733,4.3087,4.3014,4.3123,4.2995,4.2675,4.2282,4.1874,4.2322,4.244,4.2302,4.2589,4.2805,4.2976,4.3196,4.3269,4.3286,4.3268,4.3375,4.3462,4.3479,4.3479,4.3444,4.3375,4.3339,4.348,4.3339,4.3796,4.4582,4.4837,4.5535,4.7039,4.7681,4.8067,4.8232,4.8324,4.8324,4.8324,4.8324,4.8324,4.8324,4.8324,4.8361,4.8416,4.8379,4.8361,4.8361,4.8545,4.9003,5.038,5.0784,5.1426,5.2784,5.3038,5.3185,5.3185,5.3185,5.3185,5.3185,5.3185,5.3359,5.3526,5.3663,5.3814,5.4049,5.3888,5.3833,5.4049,5.4154,5.4257,5.4322,5.4338,5.442,5.4519,5.455,5.4535,5.4655,5.4833,5.5007,5.5224,5.535,5.5511,5.5551,5.5684,5.5684,5.5684,5.5566,5.5411,5.4814,5.4267,5.3977,5.3663,5.342,5.3336,5.3251,5.3133,5.2711,5.2179,5.1706,5.1176,5.0681,5.0311,5.0001,4.0648,4.0926,4.1201,4.1512,4.1789,4.181,4.1958,4.2183,4.2241,4.2541,4.2995,4.3069,4.325,4.3497,4.3479,4.3479,4.3444,4.3232,4.2921,4.2715,4.2958,4.305,4.3087,4.3069,4.325,4.3479,4.3479,4.3479,4.3479,4.3479,4.3462,4.3479,4.3479,4.3479,4.3479,4.3479,4.3462,4.3479,4.3516,4.4048,4.5076,4.5296,4.603,4.7351,4.8086,4.8324,4.8324,4.8324,4.8324,4.8324,4.8324,4.8324,4.8324,4.8343,4.8489,4.8857,4.8912,4.915,4.9334,4.9554,5.0068,5.1244,5.1334,5.2032,5.2837,5.3185,5.3185,5.3185,5.3185,5.3185,5.3188,5.3422,5.3604,5.3777,5.3995,5.4286,5.4609,5.4404,5.4187,5.4455,5.4455,5.4579,5.4671,5.476,5.4933,5.5061,5.516,5.5147,5.5186,5.5331,5.5343,5.5489,5.5588,5.5671,5.5662,5.5684,5.5684,5.5684,5.5662,5.5588,5.5331,5.4795,5.4317,5.4013,5.3682,5.342,5.3316,5.3217,5.3265,5.2982,5.2561,5.2056,5.1593,5.1133,5.0897,4.1018,4.1206,4.1729,4.1979,4.2044,4.2085,4.2384,4.277,4.2826,4.305,4.3427,4.3479,4.3444,4.3479,4.3479,4.3479,4.3497,4.3497,4.3321,4.3339,4.3356,4.3391,4.341,4.3427,4.3427,4.3479,4.3479,4.3479,4.3479,4.3479,4.3479,4.3479,4.3479,4.3479,4.3479,4.3479,4.3479,4.3479,4.3497,4.425,4.5516,4.5847,4.6617,4.7902,4.8251,4.8324,4.8324,4.8324,4.8324,4.8324,4.8324,4.8324,4.8324,4.8361,4.8691,4.9482,4.9561,4.9951,5.0505,5.0778,5.1147,5.2009,5.1999,5.2344,5.2947,5.3185,5.3185,5.3248,5.3272,5.3381,5.3402,5.372,5.3942,5.4082,5.4385,5.4745,5.5021,5.4881,5.4775,5.4745,5.4895,5.5021,5.5121,5.5199,5.5423,5.5599,5.5662,5.5684,5.5684,5.5684,5.564,5.5618,5.5662,5.5703,5.5684,5.5684,5.5684,5.5684,5.5684,5.5673,5.5651,5.5312,5.481,5.4333,5.4013,5.3777,5.3642,5.3701,5.3702,5.3684,5.3497,5.3069,5.2531,5.1992,5.1936,4.149,4.2402,4.25,4.279,4.3178,4.3214,4.3214,4.3357,4.3339,4.341,4.3479,4.3479,4.3479,4.3479,4.3479,4.3479,4.3479,4.3479,4.3479,4.3479,4.3479,4.3479,4.3479,4.3479,4.3479,4.3479,4.3479,4.3479,4.3479,4.3479,4.3479,4.3479,4.3479,4.3479,4.3479,4.3479,4.3479,4.3516,4.3608,4.4433,4.5535,4.6177,4.6764,4.8177,4.8324,4.8324,4.8324,4.8324,4.8324,4.8324,4.8324,4.8324,4.8324,4.8324,4.8784,4.9581,5.0047,5.0563,5.1416,5.1452,5.1787,5.2215,5.2376,5.2484,5.3012,5.3251,5.3357,5.338,5.3603,5.3833,5.424,5.4305,5.4547,5.4756,5.4933,5.5147,5.5435,5.5458,5.5368,5.5319,5.5399,5.5423,5.5435,5.5477,5.5566,5.5632,5.5673,5.5684,5.5684,5.5684,5.5673,5.5673,5.5684,5.5684,5.5684,5.5684,5.5684,5.5684,5.5684,5.5684,5.5673,5.5673,5.5324,5.4871,5.4528,5.4305,5.424,5.4154,5.4204,5.423,5.4138,5.4011,5.3641,5.3271,5.3528,4.1874,4.2713,4.2995,4.3268,4.3462,4.3479,4.3479,4.3479,4.3479,4.3479,4.3479,4.3479,4.3479,4.3479,4.3479,4.3479,4.3479,4.3479,4.3479,4.3479,4.3479,4.3479,4.3479,4.3479,4.3479,4.3479,4.3479,4.3479,4.3479,4.3479,4.3479,4.3479,4.3479,4.3479,4.3479,4.3479,4.3496,4.357,4.3937,4.469,4.5938,4.6562,4.7645,4.8049,4.8324,4.8324,4.8324,4.8324,4.8324,4.8324,4.8324,4.8324,4.8325,4.8492,4.8991,5.0195,5.0689,5.151,5.2655,5.3005,5.3268,5.3495,5.3363,5.3478,5.3739,5.3888,5.3833,5.3906,5.3979,5.4238,5.4455,5.4686,5.4909,5.5061,5.525,5.547,5.5621,5.5684,5.5684,5.5684,5.5621,5.5588,5.5621,5.5651,5.5673,5.5684,5.5684,5.5684,5.5684,5.5818,5.5876,5.5799,5.5799,5.5684,5.5761,5.5857,5.5742,5.5703,5.5972,5.5972,5.5876,5.5953,5.5767,5.5392,5.5115,5.5093,5.455,5.4392,5.4582,5.4769,5.4553,5.4453,5.4599,5.4682,5.4716,4.2304,4.2902,4.3322,4.3479,4.3479,4.3479,4.3479,4.3479,4.3479,4.3479,4.3479,4.3479,4.3479,4.3479,4.3479,4.3479,4.3479,4.3479,4.3479,4.3479,4.3479,4.3479,4.3479,4.3479,4.3479,4.3479,4.3479,4.3479,4.3479,4.3479,4.3479,4.3479,4.3479,4.3479,4.3479,4.3597,4.3582,4.3771,4.439,4.5218,4.6287,4.7498,4.8324,4.8324,4.8324,4.8324,4.8324,4.8439,4.8477,4.8495,4.8532,4.8568,4.8568,4.855,4.9432,5.0966,5.1299,5.2419,5.3654,5.4193,5.4099,5.442,5.4478,5.4487,5.4455,5.4373,5.4452,5.4597,5.4609,5.4686,5.4881,5.5053,5.5199,5.5294,5.5512,5.5684,5.5684,5.5684,5.5684,5.5684,5.5684,5.5684,5.5684,5.5684,5.5684,5.5684,5.5684,5.5684,5.5742,5.6126,5.6184,5.603,5.5915,5.5742,5.5818,5.6088,5.5915,5.5703,5.6319,5.6722,5.6511,5.6338,5.6247,5.6348,5.6333,5.621,5.5432,5.4882,5.5216,5.533,5.5004,5.4914,5.5094,5.5134,5.5101,4.2902,4.341,4.3462,4.3479,4.3479,4.3479,4.3479,4.3479,4.3479,4.3479,4.3479,4.3479,4.3479,4.3479,4.3479,4.3479,4.3479,4.3479,4.3479,4.3479,4.3479,4.3479,4.3479,4.3479,4.3479,4.3513,4.3513,4.3479,4.3529,4.3529,4.3531,4.3548,4.3597,4.3531,4.3679,4.3852,4.3772,4.376,4.4566,4.5714,4.6874,4.7831,4.8198,4.8364,4.8363,4.8402,4.8458,4.8658,4.8779,4.8863,4.9155,4.9311,4.9356,4.9337,5.0043,5.0808,5.1268,5.1754,5.353,5.4055,5.4411,5.4813,5.4775,5.4582,5.4644,5.4674,5.4779,5.5021,5.5034,5.5128,5.5363,5.5535,5.561,5.5588,5.564,5.5684,5.5684,5.5684,5.5684,5.5684,5.5684,5.5684,5.5684,5.5684,5.5684,5.5684,5.5703,5.5742,5.5972,5.6472,5.6819,5.678,5.6415,5.6184,5.6319,5.653,5.6472,5.6069,5.6703,5.7434,5.7242,5.7126,5.7588,5.7659,5.7582,5.7416,5.6938,5.6524,5.6284,5.6141,5.6148,5.5878,5.5607,5.5604,5.5768,4.3286,4.3479,4.3479,4.3479,4.3479,4.3479,4.3479,4.3479,4.3479,4.3479,4.3479,4.3479,4.3479,4.3479,4.3479,4.3479,4.3479,4.3479,4.3479,4.3479,4.3479,4.3496,4.3479,4.3479,4.3479,4.3597,4.3695,4.3804,4.3788,4.3788,4.3807,4.382,4.4008,4.4169,4.405,4.4233,4.4252,4.436,4.4934,4.6078,4.7297,4.7906,4.828,4.8893,4.8744,4.8761,4.8897,4.8864,4.9043,4.9187,4.9464,4.9489,4.9489,4.9537,4.9886,5.0431,5.0501,5.1637,5.3747,5.4108,5.4625,5.5162,5.525,5.5224,5.5173,5.516,5.5186,5.5411,5.5435,5.5524,5.5651,5.5684,5.5684,5.5684,5.5684,5.5684,5.5684,5.5684,5.5684,5.5684,5.5684,5.5684,5.5684,5.5684,5.5703,5.5722,5.5915,5.6145,5.6607,5.728,5.7569,5.7742,5.7261,5.6761,5.6992,5.7223,5.7338,5.7165,5.7473,5.8011,5.7934,5.805,5.8492,5.8473,5.8112,5.8046,5.8179,5.7868,5.7324,5.7346,5.7445,5.708,5.678,5.7077,5.7209,4.3479,4.3479,4.3479,4.3479,4.3479,4.3479,4.3479,4.3479,4.3479,4.3479,4.3479,4.3479,4.3479,4.3479,4.3479,4.3479,4.3479,4.3479,4.3479,4.3479,4.3496,4.3565,4.3629,4.3646,4.3712,4.3758,4.4065,4.415,4.4175,4.4233,4.4276,4.4161,4.4364,4.4514,4.4612,4.4695,4.4777,4.5129,4.527,4.624,4.7469,4.7841,4.8352,4.8826,4.9114,4.9187,4.9401,4.9401,4.9445,4.9575,4.9813,4.9911,4.9879,4.9955,5.024,5.0681,5.0834,5.189,5.353,5.4325,5.478,5.5318,5.5684,5.5588,5.561,5.5684,5.5684,5.5651,5.5651,5.5662,5.5684,5.5684,5.5684,5.5684,5.5684,5.5684,5.5684,5.5684,5.5684,5.5684,5.5684,5.5684,5.5684,5.5684,5.5703,5.5752,5.603,5.6511,5.7242,5.8088,5.83,5.8473,5.7973,5.7511,5.7665,5.7896,5.7992,5.8242,5.855,5.8684,5.8684,5.8915,5.9319,5.9108,5.8781,5.9088,5.9477,5.8907,5.8357,5.8319,5.828,5.8165,5.8107,5.8346,5.8338,4.3479,4.3479,4.3479,4.3479,4.3479,4.3479,4.3479,4.3479,4.3479,4.3479,4.3479,4.3479,4.3479,4.3496,4.3529,4.3529,4.3513,4.3496,4.358,4.358,4.3531,4.3758,4.3896,4.4016,4.4136,4.4392,4.4514,4.4521,4.4631,4.4811,4.4738,4.4618,4.4745,4.4644,4.4732,4.4985,4.5357,4.5624,4.5678,4.6062,4.7111,4.7679,4.8221,4.8532,4.9051,4.9475,4.9537,4.976,4.9949,5.0056,5.0283,5.0432,5.0399,5.0563,5.0924,5.131,5.1657,5.2679,5.3923,5.4126,5.4337,5.5164,5.5684,5.5684,5.5684,5.5684,5.5684,5.5684,5.5684,5.5684,5.5684,5.5684,5.5684,5.5684,5.5684,5.5684,5.5684,5.5684,5.5684,5.5684,5.5684,5.5684,5.5876,5.5915,5.6069,5.6137,5.7107,5.7627,5.8223,5.8915,5.905,5.9069,5.8627,5.8357,5.8396,5.8569,5.88,5.9146,5.9492,5.9531,5.9511,5.9838,6.0031,6.0127,5.9954,6.0358,6.0492,5.9723,5.9184,5.9142,5.9104,5.9058,5.8954,5.8992,5.8858,4.3479,4.3479,4.3479,4.3479,4.3479,4.3479,4.3479,4.3479,4.3479,4.3479,4.3479,4.3479,4.3479,4.3546,4.3742,4.3804,4.3833,4.4095,4.4125,4.4184,4.4227,4.4252,4.4378,4.4392,4.446,4.4663,4.4781,4.4908,4.4943,4.5222,4.5303,4.5223,4.5131,4.5213,4.5293,4.5283,4.5582,4.5647,4.5679,4.5867,4.6865,4.75,4.8179,4.8965,4.948,4.9986,5.0202,5.0123,5.026,5.0432,5.0614,5.0692,5.0856,5.1144,5.1587,5.2038,5.2433,5.3337,5.4222,5.4241,5.4568,5.5299,5.5684,5.5684,5.5684,5.5684,5.5684,5.5684,5.5684,5.5684,5.5684,5.5684,5.5684,5.5684,5.5684,5.5684,5.5684,5.5684,5.5684,5.5684,5.5684,5.5684,5.5934,5.6203,5.6395,5.6656,5.7742,5.8723,5.9242,5.9665,5.9781,5.9762,5.9377,5.9396,5.9454,5.955,5.9627,5.9954,6.0319,6.0223,6.0146,6.0358,6.055,6.0762,6.08,6.0723,6.055,6.0204,5.9992,5.9923,5.9981,6.005,5.9896,5.9665,5.955,4.3479,4.3479,4.3479,4.3479,4.3479,4.3479,4.3479,4.3479,4.3479,4.3479,4.3496,4.358,4.3646,4.3758,4.402,4.4194,4.4252,4.4419,4.4527,4.454,4.4527,4.4644,4.4707,4.4788,4.4837,4.4919,4.5085,4.5243,4.5272,4.5495,4.5522,4.5531,4.5594,4.5549,4.5549,4.5594,4.5594,4.5522,4.5506,4.5543,4.6512,4.7375,4.7984,4.9029,4.9718,5.0331,5.0493,5.0442,5.0451,5.0575,5.0721,5.0837,5.1164,5.1577,5.2115,5.2673,5.3241,5.3972,5.4568,5.4914,5.5107,5.5607,5.5684,5.5684,5.5684,5.5684,5.5684,5.5684,5.5684,5.5684,5.5684,5.5684,5.5684,5.5684,5.5684,5.5684,5.5684,5.5684,5.5684,5.5684,5.5722,5.5818,5.6684,5.7107,5.7703,5.7877,5.8396,5.93,5.9896,6.0262,6.0454,6.0396,6.0185,6.0358,6.0589,6.0358,6.0146,6.0281,6.0589,6.0646,6.0666,6.08,6.08,6.08,6.08,6.08,6.0666,6.0454,6.0531,6.0685,6.0627,6.0492,6.0492,6.0262,6.0416,4.3479,4.3479,4.3479,4.3479,4.3479,4.3479,4.3479,4.3479,4.3479,4.3479,4.3529,4.3788,4.394,4.4046,4.4364,4.4548,4.4606,4.4676,4.472,4.4757,4.4793,4.4872,4.4988,4.5118,4.5201,4.5495,4.5522,4.5504,4.555,4.5568,4.5594,4.5594,4.5594,4.5594,4.5594,4.5594,4.5594,4.5624,4.5664,4.5818,4.6356,4.753,4.8289,4.8808,4.9875,5.0624,5.0624,5.0624,5.0614,5.0673,5.0683,5.0991,5.1654,5.1904,5.2692,5.403,5.4299,5.4838,5.5511,5.5626,5.5645,5.5665,5.5684,5.5684,5.5684,5.5684,5.5684,5.5684,5.5684,5.5684,5.5684,5.5684,5.5684,5.5684,5.5684,5.5684,5.5684,5.5684,5.5684,5.5684,5.578,5.6069,5.7203,5.8165,5.8973,5.9338,5.9415,5.9858,6.0416,6.0646,6.0781,6.0723,6.0569,6.0627,6.0723,6.0762,6.0704,6.08,6.08,6.08,6.08,6.08,6.08,6.08,6.08,6.08,6.08,6.0762,6.08,6.08,6.08,6.0723,6.0781,6.08,6.08,4.3479,4.3479,4.3479,4.3479,4.3479,4.3479,4.3479,4.3479,4.3479,4.3496,4.3563,4.3868,4.4016,4.4175,4.4625,4.4931,4.4954,4.5222,4.5263,4.5243,4.5222,4.5322,4.541,4.541,4.5485,4.5568,4.5594,4.5594,4.5586,4.5594,4.5594,4.5594,4.5594,4.5594,4.5594,4.5652,4.5806,4.6355,4.6519,4.674,4.7298,4.8298,4.8933,4.8952,5.0115,5.0673,5.0683,5.0683,5.0683,5.0712,5.0731,5.1183,5.1962,5.2327,5.3318,5.4434,5.4857,5.5376,5.5645,5.5684,5.5684,5.5684,5.5684,5.5684,5.5684,5.5684,5.5684,5.5684,5.5684,5.5684,5.5684,5.5684,5.5684,5.5684,5.5684,5.5684,5.5684,5.5684,5.5684,5.5684,5.5742,5.6607,5.7646,5.855,5.9415,6.005,6.0108,6.0204,6.0646,6.0723,6.08,6.08,6.0723,6.0762,6.08,6.08,6.08,6.08,6.08,6.08,6.08,6.08,6.08,6.08,6.08,6.08,6.08,6.08,6.08,6.08,6.08,6.08,6.08,6.08,6.08,4.3614,4.3515,4.3479,4.3479,4.3479,4.3479,4.3546,4.3646,4.3677,4.3742,4.3927,4.4233,4.4395,4.4568,4.4947,4.5282,4.5302,4.5476,4.5586,4.5594,4.5586,4.5568,4.5577,4.5594,4.5577,4.5594,4.5594,4.5594,4.5594,4.5594,4.5594,4.5594,4.5614,4.5594,4.5594,4.5671,4.6009,4.6567,4.6855,4.7201,4.7952,4.8779,4.9356,4.9586,5.0144,5.0683,5.0683,5.0683,5.0683,5.075,5.1029,5.1471,5.2308,5.3183,5.403,5.4857,5.5299,5.5665,5.5684,5.5684,5.5684,5.5684,5.5684,5.5684,5.5684,5.5684,5.5684,5.5684,5.5684,5.5684,5.5684,5.5684,5.5684,5.5684,5.5684,5.5684,5.5703,5.5703,5.5742,5.5722,5.5895,5.6896,5.7973,5.8858,5.9723,6.0262,6.0742,6.08,6.08,6.08,6.08,6.08,6.08,6.08,6.08,6.08,6.08,6.08,6.08,6.08,6.08,6.08,6.08,6.08,6.08,6.08,6.08,6.08,6.08,6.08,6.08,6.08,6.08,6.08,6.08,4.3804,4.3531,4.3496,4.3496,4.3513,4.3597,4.3758,4.3986,4.3998,4.4219,4.4567,4.4861,4.4954,4.5096,4.5429,4.554,4.555,4.5586,4.5586,4.5594,4.5594,4.5594,4.5594,4.5594,4.5594,4.5594,4.5594,4.5594,4.5594,4.5594,4.5594,4.5652,4.5806,4.5845,4.5864,4.6086,4.6471,4.7009,4.7221,4.7778,4.8682,4.9202,4.9606,4.9894,5.0298,5.0625,5.0683,5.0683,5.0683,5.0914,5.1395,5.2231,5.3126,5.401,5.4838,5.5434,5.5645,5.5684,5.5684,5.5684,5.5684,5.5684,5.5684,5.5684,5.5684,5.5684,5.5684,5.5684,5.5684,5.5684,5.5684,5.5684,5.5684,5.5684,5.5684,5.5703,5.5722,5.5742,5.578,5.5838,5.5895,5.6684,5.7992,5.9011,5.98,6.0396,6.08,6.08,6.08,6.08,6.08,6.08,6.08,6.08,6.08,6.08,6.08,6.08,6.08,6.08,6.08,6.08,6.08,6.08,6.08,6.08,6.08,6.08,6.08,6.08,6.08,6.08,6.08,6.08,6.08,4.394,4.3818,4.3614,4.3647,4.3881,4.415,4.4194,4.4043,4.4276,4.4514,4.4618,4.4954,4.5118,4.5148,4.5438,4.5568,4.5594,4.5594,4.5594,4.5594,4.5594,4.5594,4.5594,4.5594,4.5594,4.5594,4.5594,4.5594,4.5594,4.5594,4.5594,4.5633,4.6144,4.6355,4.6624,4.7048,4.7413,4.7682,4.7759,4.8548,4.9413,5.0029,5.0202,5.0375,5.0471,5.0683,5.0683,5.0683,5.0683,5.0837,5.1491,5.2288,5.3164,5.401,5.4838,5.5549,5.5684,5.5684,5.5684,5.5684,5.5684,5.5684,5.5684,5.5684,5.5684,5.5684,5.5684,5.5684,5.5684,5.5684,5.5684,5.5684,5.5684,5.5684,5.578,5.5934,5.603,5.6376,5.6395,5.6299,5.6357,5.7088,5.8338,5.9011,5.9781,6.0435,6.08,6.08,6.08,6.08,6.08,6.08,6.08,6.08,6.08,6.08,6.08,6.08,6.08,6.08,6.08,6.08,6.08,6.08,6.08,6.08,6.08,6.08,6.08,6.08,6.08,6.08,6.08,6.08,6.08,4.4252,4.4175,4.3852,4.3915,4.4261,4.4644,4.4657,4.4489,4.4676,4.4861,4.4992,4.5203,4.5283,4.5332,4.5513,4.5594,4.5594,4.5594,4.5594,4.5594,4.5594,4.5594,4.5594,4.5594,4.5594,4.5594,4.5594,4.5594,4.5594,4.5594,4.5594,4.5671,4.649,4.6817,4.7067,4.7528,4.8202,4.8452,4.8798,4.951,5.0144,5.0683,5.0683,5.0683,5.0683,5.0683,5.0683,5.0683,5.0683,5.0798,5.1471,5.2288,5.326,5.426,5.5049,5.5684,5.5684,5.5684,5.5684,5.5684,5.5684,5.5684,5.5684,5.5684,5.5684,5.5684,5.5684,5.5684,5.5684,5.5684,5.5684,5.5684,5.5684,5.5684,5.5953,5.6233,5.6646,5.7088,5.7069,5.6953,5.73,5.7915,5.8607,5.9184,5.9762,6.0454,6.08,6.08,6.08,6.08,6.08,6.08,6.08,6.08,6.08,6.08,6.08,6.08,6.08,6.08,6.08,6.08,6.08,6.08,6.08,6.08,6.08,6.08,6.08,6.08,6.08,6.08,6.08,6.08,6.08,4.4606,4.4606,4.4266,4.4318,4.4657,4.4988,4.5129,4.5129,4.5129,4.5283,4.5541,4.5577,4.5549,4.5522,4.5586,4.5594,4.5594,4.5594,4.5594,4.5594,4.5594,4.5594,4.5594,4.5594,4.5594,4.5594,4.5594,4.5594,4.5594,4.5633,4.5671,4.572,4.6644,4.724,4.7625,4.8317,4.9009,4.9413,4.9567,4.9952,5.0414,5.0683,5.0683,5.0683,5.0683,5.0683,5.0683,5.0683,5.0683,5.0971,5.1491,5.2299,5.3587,5.4722,5.5453,5.5665,5.5684,5.5684,5.5684,5.5684,5.5684,5.5684,5.5684,5.5684,5.5684,5.5684,5.5684,5.5684,5.5684,5.5684,5.5684,5.5742,5.5761,5.6049,5.6426,5.6799,5.728,5.7684,5.7877,5.778,5.7877,5.8473,5.8973,5.9531,5.9838,6.0492,6.08,6.08,6.08,6.08,6.08,6.08,6.08,6.08,6.08,6.08,6.08,6.08,6.08,6.08,6.08,6.08,6.08,6.08,6.08,6.08,6.08,6.08,6.08,6.08,6.08,6.08,6.08,6.08,6.08,4.4763,4.4985,4.4865,4.4908,4.5011,4.5342,4.5457,4.5485,4.5485,4.5513,4.5586,4.5594,4.5594,4.5594,4.5594,4.5594,4.5594,4.5594,4.5594,4.5594,4.5594,4.5594,4.5594,4.5594,4.5594,4.5594,4.5594,4.5594,4.5594,4.5671,4.599,4.6586,4.7355,4.7894,4.8586,4.9375,4.9971,5.0231,5.0269,5.0327,5.0606,5.0683,5.0683,5.0683,5.0683,5.0683,5.0683,5.0683,5.0683,5.0837,5.1491,5.2645,5.4126,5.5145,5.5626,5.5684,5.5684,5.5684,5.5684,5.5684,5.5684,5.5684,5.5684,5.5684,5.5684,5.5684,5.5684,5.5684,5.5684,5.5684,5.5703,5.5761,5.5876,5.6357,5.6964,5.7434,5.7934,5.8338,5.8684,5.8684,5.8627,5.8954,5.9435,5.9742,6.0031,6.0358,6.0666,6.08,6.08,6.08,6.08,6.08,6.08,6.08,6.08,6.08,6.08,6.08,6.08,6.08,6.08,6.08,6.08,6.08,6.08,6.08,6.08,6.08,6.08,6.08,6.08,6.08,6.08,6.08,6.08,4.5011,4.5312,4.5322,4.5303,4.5371,4.5541,4.5594,4.5594,4.5594,4.5594,4.5594,4.5594,4.5594,4.5594,4.5594,4.5594,4.5594,4.5594,4.5594,4.5594,4.5594,4.5594,4.5594,4.5594,4.5594,4.5594,4.5594,4.5594,4.5594,4.5671,4.6028,4.6923,4.774,4.8586,4.9433,5.0202,5.0683,5.0664,5.0683,5.0683,5.0683,5.0683,5.0683,5.0683,5.0683,5.0683,5.0683,5.0683,5.0683,5.1087,5.1856,5.2664,5.3933,5.4991,5.5588,5.5684,5.5684,5.5684,5.5684,5.5684,5.5684,5.5684,5.5684,5.5684,5.5684,5.5684,5.5684,5.5684,5.5684,5.5684,5.5684,5.5742,5.5761,5.6079,5.7242,5.8184,5.8954,5.9665,5.9858,5.9877,5.9819,5.9877,6.0223,6.0262,6.0492,6.0512,6.0762,6.08,6.08,6.08,6.08,6.08,6.08,6.08,6.08,6.08,6.08,6.08,6.08,6.08,6.08,6.08,6.08,6.08,6.08,6.08,6.08,6.08,6.08,6.08,6.08,6.08,6.08,6.08,6.08,4.5253,4.5532,4.5577,4.5586,4.5594,4.5594,4.5594,4.5594,4.5594,4.5594,4.5594,4.5594,4.5594,4.5594,4.5594,4.5594,4.5594,4.5594,4.5594,4.5594,4.5594,4.5594,4.5594,4.5594,4.5594,4.5594,4.5594,4.5594,4.5594,4.5845,4.6355,4.7058,4.7865,4.8721,4.9548,5.0202,5.0683,5.0683,5.0683,5.0683,5.0683,5.0683,5.0683,5.0683,5.0683,5.0683,5.0683,5.0683,5.0683,5.1298,5.2164,5.3087,5.3914,5.4953,5.5434,5.5684,5.5684,5.5684,5.5684,5.5684,5.5684,5.5684,5.5684,5.5684,5.5684,5.5684,5.5684,5.5705,5.5705,5.5684,5.5684,5.5703,5.5722,5.6203,5.7569,5.8761,5.9685,6.0569,6.0704,6.0742,6.0723,6.0685,6.0704,6.0762,6.0762,6.0781,6.08,6.08,6.08,6.08,6.08,6.08,6.08,6.08,6.08,6.08,6.08,6.08,6.08,6.08,6.08,6.08,6.08,6.08,6.08,6.08,6.08,6.08,6.08,6.08,6.08,6.08,6.08,6.08,6.08,4.5148,4.5203,4.5485,4.5594,4.5594,4.5594,4.5594,4.5594,4.5594,4.5594,4.5594,4.5594,4.5594,4.5594,4.5594,4.5594,4.5594,4.5594,4.5594,4.5594,4.5594,4.5594,4.5594,4.5594,4.5594,4.5594,4.5594,4.5594,4.5729,4.6278,4.7048,4.7798,4.8663,4.949,5.0279,5.0683,5.0683,5.0683,5.0683,5.0683,5.0683,5.0683,5.0683,5.0683,5.0683,5.0683,5.0683,5.0683,5.0683,5.1183,5.2202,5.3299,5.4164,5.4953,5.553,5.5684,5.5684,5.5684,5.5684,5.5684,5.5684,5.5684,5.5684,5.5684,5.5684,5.5684,5.5705,5.5728,5.5717,5.5695,5.5684,5.5684,5.578,5.6819,5.805,5.8819,5.9646,6.0339,6.0762,6.0781,6.0762,6.0762,6.0762,6.0781,6.0781,6.08,6.08,6.08,6.08,6.08,6.08,6.08,6.08,6.08,6.08,6.08,6.08,6.08,6.08,6.08,6.08,6.08,6.08,6.08,6.08,6.08,6.08,6.08,6.08,6.08,6.08,6.08,6.08,6.08,6.08]}]]